SondeTracker

Meteorological Radiosondes Database

Operations

Sounding was ended - last measurement: 2022-12-07 13:04:29z

MAP
About Radiosonde

Number: U2230867

Launch Site: Salem [OR] (US)

Type: RS41

AUX: NO

Frequency: 401.401 MHz

Max Speed: 119 km/h at 34266 m

Average Speed: 36.94 km/h

Max Altitude: 34812 m

Average Ascent Speed: 5.54 m/s

Average Descent Speed: 40.48 m/s

Status: UNKNOWN

Status Changes
Launch Site Type AUX Frequency Status Finder Landing Point Description Changes made by
APRS Statistics

Received Frames: 1502

First Frame [UTC]: 2022-12-07 11:07:08z

Last Frame [UTC]: 2022-12-07 13:04:29z

Receivers: K6GDP-11, k6gdp-12, KE7WWC, KG7GDB-12, KJ7NUX-14, W7BDB-12, W7BDB-13, WA9ONY-10, WA9ONY-14

Flight Time: 01:57:21 h

Distance From First Measurement: 64.80 km

Nearest City: Stayton [OR] (US) [46.88 km]

Nearest Hunter: AF7U [51.88 km]

Ground Altitude: 1124 m

Distance from QTH: 0.00 km

APRS Data
Receiver Number Date/Time [UTC] φ λ Course [°] Speed [km/h] Altitude [m] Description
KG7GDB-12U22308672022-12-07 13:04:2944.7961-122.20446201864Clb=-15.4m/s t=-1.7C h=29.8% p=809.2hPa 401.401 MHz Type=RS41-SGP ser=U2230867 Radiosonde
W7BDB-13U22308672022-12-07 13:03:2744.7945-122.20666222635Clb=-16.4m/s p=734.1hPa t=-5.0C h=39.5% 401.40MHz Type=RS41-SGP Details on http://radiosondy.info
W7BDB-13U22308672022-12-07 13:02:5144.7938-122.2088493125Clb=-18.6m/s p=689.6hPa t=-7.9C h=16.7% 401.40MHz Type=RS41-SGP Details on http://radiosondy.info
W7BDB-13U22308672022-12-07 13:02:3044.7938-122.20890153395Clb=-18.9m/s p=666.0hPa t=-10.1C h=17.8% 401.40MHz Type=RS41-SGP TxOff=8h16m batt=2.6V Details on http://radiosondy.info
WA9ONY-10U22308672022-12-07 13:02:1244.7937-122.20988173648Clb=-18.9m/s p=644.4hPa t=-11.1C h=40.4% 401.40MHz Type=RS41-SGP batt=2.6V Join https://groups.io/g/Balloons
W7BDB-13U22308672022-12-07 13:02:0944.7937-122.20995153684Clb=-18.6m/s p=641.4hPa t=-11.0C h=32.8% 401.40MHz Type=RS41-SGP Details on http://radiosondy.info
WA9ONY-14U22308672022-12-07 13:02:0844.7937-122.209101153701Clb=-19.0m/s p=639.9hPa t=-10.9C h=26.9% 401.40MHz Type=RS41-SGP Join https://groups.io/g/Balloons
WA9ONY-10U22308672022-12-07 13:01:5944.7938-122.2198153830Clb=-18.6m/s p=629.4hPa t=-11.4C h=26.1% 401.40MHz Type=RS41-SGP Join https://groups.io/g/Balloons
WA9ONY-14U22308672022-12-07 13:01:5544.7938-122.2195173885Clb=-18.8m/s p=625.1hPa t=-11.7C h=25.1% 401.40MHz Type=RS41-SGP Join https://groups.io/g/Balloons
W7BDB-13U22308672022-12-07 13:01:4744.7938-122.2197173977Clb=-18.7m/s p=617.7hPa t=-12.5C h=26.6% 401.40MHz Type=RS41-SGP Details on http://radiosondy.info
WA9ONY-10U22308672022-12-07 13:01:4044.7939-122.21100154068Clb=-18.4m/s p=610.4hPa t=-13.3C h=27.5% 401.40MHz Type=RS41-SGP Join https://groups.io/g/Balloons
WA9ONY-14U22308672022-12-07 13:01:2644.7939-122.211116224247Clb=-18.8m/s p=595.9hPa t=-13.9C h=13.7% 401.40MHz Type=RS41-SGP Join https://groups.io/g/Balloons
W7BDB-13U22308672022-12-07 13:01:2444.794-122.211116224265Clb=-18.6m/s p=594.4hPa t=-14.0C h=13.5% 401.40MHz Type=RS41-SGP batt=2.5V Details on http://radiosondy.info
WA9ONY-10U22308672022-12-07 13:01:0744.7942-122.212107204469Clb=-19.5m/s p=578.6hPa t=-15.3C h=14.2% 401.40MHz Type=RS41-SGP Join https://groups.io/g/Balloons
W7BDB-13U22308672022-12-07 13:01:0044.7942-122.212102174544Clb=-19.7m/s p=572.9hPa t=-15.9C h=14.3% 401.40MHz Type=RS41-SGP Details on http://radiosondy.info
WA9ONY-14U22308672022-12-07 13:00:4944.7942-122.21399154658Clb=-19.8m/s p=564.2hPa t=-16.8C h=13.6% 401.40MHz Type=RS41-SGP batt=2.5V Join https://groups.io/g/Balloons
WA9ONY-14U22308672022-12-07 13:00:3244.7943-122.21381154851Clb=-19.8m/s p=550.1hPa t=-18.3C h=13.0% 401.40MHz Type=RS41-SGP Join https://groups.io/g/Balloons
WA9ONY-14U22308672022-12-07 13:00:1644.7943-122.21481135043Clb=-19.6m/s p=536.2hPa t=-19.5C h=18.4% 401.40MHz Type=RS41-SGP Join https://groups.io/g/Balloons
WA9ONY-10U22308672022-12-07 13:00:1544.7943-122.21481135043Clb=-19.6m/s p=536.2hPa t=-19.5C h=18.4% 401.40MHz Type=RS41-SGP Join https://groups.io/g/Balloons
W7BDB-13U22308672022-12-07 13:00:0644.7942-122.21477115138Clb=-19.8m/s p=529.3hPa t=-20.2C h=17.5% 401.40MHz Type=RS41-SGP batt=2.5V Details on http://radiosondy.info
WA9ONY-10U22308672022-12-07 12:59:5844.7942-122.21456115235Clb=-19.8m/s p=522.5hPa t=-20.5C h=17.8% 401.40MHz Type=RS41-SGP Join https://groups.io/g/Balloons
KJ7NUX-14U22308672022-12-07 12:59:4944.7941-122.21472115408Clb=-20.4m/s p=510.3hPa t=-21.7C h=18.7% 401.40MHz Type=RS41-SGP batt=2.5V Details on http://radiosondy.info
WA9ONY-14U22308672022-12-07 12:59:4844.7941-122.21575135427Clb=-20.3m/s p=509.0hPa t=-21.9C h=20.8% 401.40MHz Type=RS41-SGP Join https://groups.io/g/Balloons
W7BDB-13U22308672022-12-07 12:59:4744.7941-122.21589115447Clb=-20.2m/s p=507.7hPa t=-22.0C h=21.0% 401.40MHz Type=RS41-SGP Details on http://radiosondy.info
WA9ONY-14U22308672022-12-07 12:59:3944.794-122.2155095624Clb=-20.0m/s p=495.6hPa t=-23.2C h=15.9% 401.40MHz Type=RS41-SGP Join https://groups.io/g/Balloons
KJ7NUX-14U22308672022-12-07 12:59:3544.7939-122.21569245722Clb=-20.7m/s p=488.9hPa t=-23.8C h=13.0% 401.40MHz Type=RS41-SGP Details on http://radiosondy.info
W7BDB-13U22308672022-12-07 12:59:3244.7939-122.21564155761Clb=-20.0m/s p=486.4hPa t=-23.9C h=15.5% 401.40MHz Type=RS41-SGP Details on http://radiosondy.info
WA9ONY-10U22308672022-12-07 12:59:2844.7939-122.21581155819Clb=-20.4m/s p=482.5hPa t=-24.4C h=17.1% 401.40MHz Type=RS41-SGP Join https://groups.io/g/Balloons
WA9ONY-10U22308672022-12-07 12:59:1844.7938-122.21672136017Clb=-20.5m/s p=469.6hPa t=-26.0C h=15.1% 401.40MHz Type=RS41-SGP TxOff=8h18m batt=2.6V Join https://groups.io/g/Balloons
W7BDB-13U22308672022-12-07 12:59:1544.7938-122.21696156077Clb=-20.6m/s p=465.8hPa t=-26.5C h=17.7% 401.40MHz Type=RS41-SGP TxOff=8h18m batt=2.5V Details on http://radiosondy.info
WA9ONY-10U22308672022-12-07 12:59:0844.7938-122.216103156217Clb=-20.7m/s p=456.8hPa t=-27.6C h=22.1% 401.40MHz Type=RS41-SGP Join https://groups.io/g/Balloons
KG7GDB-12U22308672022-12-07 12:59:0344.7938-122.21692176357Clb=-21.3m/s t=-28.9C h=21.2% p=448.1hPa 401.401 MHz Type=RS41-SGP ser=U2230867 Radiosonde
W7BDB-13U22308672022-12-07 12:58:5944.7938-122.21791156398Clb=-20.7m/s p=445.5hPa t=-29.2C h=21.0% 401.40MHz Type=RS41-SGP Details on http://radiosondy.info
WA9ONY-10U22308672022-12-07 12:58:5844.7938-122.21792136418Clb=-20.3m/s p=444.3hPa t=-29.4C h=20.4% 401.40MHz Type=RS41-SGP Join https://groups.io/g/Balloons
K6GDP-11U22308672022-12-07 12:58:5144.7939-122.217122136581Clb=-21.5m/s t=-30.6C h=16.2% p=434.2hPa 401.400 MHz Type=RS41-SGP ser=U2230867 Radiosonde
WA9ONY-14U22308672022-12-07 12:58:4844.7939-122.217124176622Clb=-21.9m/s p=431.7hPa t=-30.9C h=18.3% 401.40MHz Type=RS41-SGP Join https://groups.io/g/Balloons
W7BDB-13U22308672022-12-07 12:58:4344.794-122.217108196726Clb=-21.0m/s p=425.4hPa t=-31.8C h=24.5% 401.40MHz Type=RS41-SGP Details on http://radiosondy.info
WA9ONY-10U22308672022-12-07 12:58:3944.7941-122.218103196830Clb=-21.0m/s p=419.2hPa t=-32.6C h=40.1% 401.40MHz Type=RS41-SGP Join https://groups.io/g/Balloons
KG7GDB-12U22308672022-12-07 12:58:3344.7943-122.218121226999Clb=-22.3m/s t=-34.2C h=47.4% p=409.3hPa 401.401 MHz Type=RS41-SGP ser=U2230867 Radiosonde
W7BDB-13U22308672022-12-07 12:58:2844.7944-122.218126227041Clb=-21.2m/s p=406.9hPa t=-34.5C h=51.3% 401.40MHz Type=RS41-SGP batt=2.4V Details on http://radiosondy.info
K6GDP-11U22308672022-12-07 12:58:2044.7948-122.219129247233Clb=-21.9m/s t=-35.7C h=37.9% p=396.0hPa 401.400 MHz Type=RS41-SGP ser=U2230867 Radiosonde
WA9ONY-14U22308672022-12-07 12:58:1844.7948-122.219133197254Clb=-21.8m/s p=394.6hPa t=-35.8C h=39.2% 401.40MHz Type=RS41-SGP Join https://groups.io/g/Balloons
W7BDB-12U22308672022-12-07 12:58:1644.7949-122.219113177338Clb=-21.9m/s t=-36.4C h=32.5% p=389.8hPa 401.399 MHz Type=RS41-SGP ser=U2230867 Radiosonde
K6GDP-11U22308672022-12-07 12:58:1244.7871-122.227142410684Clb=-23.9m/s t=-59.9C h=23.5% p=234.8hPa 401.400 MHz Type=RS41-SGP ser=U2230867 Radiosonde
KJ7NUX-14U22308672022-12-07 12:58:0644.7869-122.227133510755Clb=-24.1m/s p=232.2hPa t=-60.3C h=27.5% 401.40MHz Type=RS41-SGP batt=2.5V Details on http://radiosondy.info
WA9ONY-10U22308672022-12-07 12:58:0444.7867-122.227123710826Clb=-24.3m/s p=229.5hPa t=-60.6C h=26.3% 401.40MHz Type=RS41-SGP Join https://groups.io/g/Balloons
WA9ONY-14U22308672022-12-07 12:57:5944.7858-122.227303311065Clb=-24.3m/s p=220.8hPa t=-61.2C h=22.6% 401.40MHz Type=RS41-SGP batt=2.6V Join https://groups.io/g/Balloons
WA9ONY-14U22308672022-12-07 12:57:5844.7852-122.228482611309Clb=-25.0m/s p=212.2hPa t=-61.5C h=18.1% 401.40MHz Type=RS41-SGP Join https://groups.io/g/Balloons
WA9ONY-14U22308672022-12-07 12:57:5744.7847-122.23753111814Clb=-25.9m/s p=195.7hPa t=-62.6C h=12.2% 401.40MHz Type=RS41-SGP TxOff=8h22m batt=2.4V Join https://groups.io/g/Balloons
K6GDP-11U22308672022-12-07 12:57:5644.7847-122.2321063312229Clb=-26.7m/s t=-60.1C h=4.0% p=183.1hPa 401.400 MHz Type=RS41-SGP ser=U2230867 Radiosonde
KG7GDB-12U22308672022-12-07 12:57:5544.7857-122.2331192412746Clb=-28.6m/s t=-57.6C h=2.4% p=168.8hPa 401.401 MHz Type=RS41-SGP ser=U2230867 Radiosonde
K6GDP-11U22308672022-12-07 12:57:5444.7858-122.235893713091Clb=-29.1m/s t=-55.0C h=1.8% p=159.8hPa 401.400 MHz Type=RS41-SGP ser=U2230867 Radiosonde
WA9ONY-14U22308672022-12-07 12:57:5344.7861-122.2361153713458Clb=-28.3m/s p=150.9hPa t=-55.5C h=4.3% 401.40MHz Type=RS41-SGP batt=2.5V Join https://groups.io/g/Balloons
KE7WWCU22308672022-12-07 12:57:5244.7869-122.2381204113858Clb=-29.7m/s t=-57.1C h=1.9% p=141.8hPa 401.375 MHz Type=RS41-SGP ser=U2230867 Radiosonde
KG7GDB-12U22308672022-12-07 12:57:5144.7879-122.2411124114595Clb=-31.1m/s t=-56.9C h=1.8% p=126.2hPa 401.401 MHz Type=RS41-SGP ser=U2230867 Radiosonde
K6GDP-11U22308672022-12-07 12:57:5044.7882-122.2431064614905Clb=-31.6m/s t=-56.8C h=1.7% p=120.3hPa 401.400 MHz Type=RS41-SGP ser=U2230867 Radiosonde
KG7GDB-12U22308672022-12-07 12:57:4944.7886-122.2461003715541Clb=-33.7m/s t=-56.3C h=1.5% p=108.9hPa 401.401 MHz Type=RS41-SGP ser=U2230867 Radiosonde
KJ7NUX-14U22308672022-12-07 12:57:4844.7887-122.248794616208Clb=-33.1m/s p=98.0hPa t=-58.6C h=4.9% 401.40MHz Type=RS41-SGP TxOff=8h25m batt=2.6V Details on http://radiosondy.info
WA9ONY-10U22308672022-12-07 12:57:4744.7884-122.25874316582Clb=-35.3m/s p=92.4hPa t=-58.9C h=5.0% 401.40MHz Type=RS41-SGP batt=2.6V Join https://groups.io/g/Balloons
K6GDP-11U22308672022-12-07 12:57:4644.7885-122.252993516974Clb=-36.8m/s t=-58.1C h=1.6% p=86.9hPa 401.400 MHz Type=RS41-SGP ser=U2230867 Radiosonde
WA9ONY-10U22308672022-12-07 12:57:4544.7886-122.254952817676Clb=-37.8m/s p=77.7hPa t=-59.0C h=4.9% 401.40MHz Type=RS41-SGP TxOff=8h26m batt=2.5V Join https://groups.io/g/Balloons
K6GDP-11U22308672022-12-07 12:57:4444.7885-122.255843018137Clb=-40.2m/s t=-57.7C h=1.2% p=72.4hPa 401.400 MHz Type=RS41-SGP ser=U2230867 Radiosonde
WA9ONY-10U22308672022-12-07 12:57:4144.7884-122.257994418860Clb=-40.6m/s p=64.6hPa t=-59.8C h=4.9% 401.40MHz Type=RS41-SGP batt=2.6V Join https://groups.io/g/Balloons
KJ7NUX-14U22308672022-12-07 12:57:3544.7887-122.2581143519236Clb=-41.7m/s p=60.8hPa t=-60.9C h=5.4% 401.40MHz Type=RS41-SGP Details on http://radiosondy.info
WA9ONY-10U22308672022-12-07 12:57:3444.7888-122.2581093919278Clb=-42.7m/s p=60.3hPa t=-60.8C h=5.4% 401.40MHz Type=RS41-SGP Join https://groups.io/g/Balloons
KE7WWCU22308672022-12-07 12:57:3344.7889-122.2591184419364Clb=-43.9m/s t=-60.9C h=1.4% p=59.6hPa 401.375 MHz Type=RS41-SGP ser=U2230867 Radiosonde
K6GDP-11U22308672022-12-07 12:57:3044.7889-122.2591174319408Clb=-42.4m/s t=-61.1C h=1.4% p=59.3hPa 401.400 MHz Type=RS41-SGP ser=U2230867 Radiosonde
WA9ONY-14U22308672022-12-07 12:57:2144.7893-122.2591242419710Clb=-42.1m/s p=56.3hPa t=-60.1C h=4.9% 401.40MHz Type=RS41-SGP batt=2.6V Join https://groups.io/g/Balloons
KJ7NUX-14U22308672022-12-07 12:57:1144.7894-122.261063119926Clb=-43.6m/s p=54.4hPa t=-60.5C h=5.2% 401.40MHz Type=RS41-SGP batt=2.5V Details on http://radiosondy.info
WA9ONY-14U22308672022-12-07 12:57:0244.7894-122.26773520148Clb=-45.8m/s p=52.6hPa t=-60.0C h=5.1% 401.40MHz Type=RS41-SGP Join https://groups.io/g/Balloons
WA9ONY-10U22308672022-12-07 12:56:5944.7894-122.26863720193Clb=-45.0m/s p=52.1hPa t=-60.2C h=5.3% 401.40MHz Type=RS41-SGP batt=2.5V Join https://groups.io/g/Balloons
KG7GDB-12U22308672022-12-07 12:56:5644.7894-122.261913120283Clb=-45.7m/s t=-60.5C h=1.4% p=51.5hPa 401.401 MHz Type=RS41-SGP ser=U2230867 Radiosonde
WA9ONY-14U22308672022-12-07 12:56:4344.7894-122.2611004420606Clb=-47.7m/s p=48.8hPa t=-60.1C h=5.3% 401.40MHz Type=RS41-SGP Join https://groups.io/g/Balloons
KJ7NUX-14U22308672022-12-07 12:56:4244.7894-122.262994620653Clb=-46.8m/s p=48.4hPa t=-59.9C h=5.2% 401.40MHz Type=RS41-SGP Details on http://radiosondy.info
WA9ONY-10U22308672022-12-07 12:56:4144.7894-122.262994420653Clb=-46.8m/s p=48.4hPa t=-59.9C h=5.2% 401.40MHz Type=RS41-SGP Join https://groups.io/g/Balloons
K6GDP-11U22308672022-12-07 12:56:3644.7895-122.2621044320845Clb=-51.4m/s t=-59.5C h=1.3% p=47.1hPa 401.400 MHz Type=RS41-SGP ser=U2230867 Radiosonde
WA9ONY-14U22308672022-12-07 12:56:2544.7897-122.2631204621113Clb=-54.3m/s p=45.2hPa t=-58.5C h=4.6% 401.40MHz Type=RS41-SGP TxOff=8h27m batt=2.5V Join https://groups.io/g/Balloons
WA9ONY-10U22308672022-12-07 12:56:2344.7898-122.2631234421166Clb=-53.0m/s p=44.9hPa t=-58.4C h=4.4% 401.40MHz Type=RS41-SGP Join https://groups.io/g/Balloons
KJ7NUX-14U22308672022-12-07 12:56:1344.7902-122.2641363521478Clb=-52.3m/s p=42.8hPa t=-57.2C h=4.1% 401.40MHz Type=RS41-SGP Details on http://radiosondy.info
WA9ONY-14U22308672022-12-07 12:56:0844.7905-122.2641463321636Clb=-53.2m/s p=41.6hPa t=-57.7C h=4.0% 401.40MHz Type=RS41-SGP Join https://groups.io/g/Balloons
WA9ONY-10U22308672022-12-07 12:56:0644.7906-122.2641453121689Clb=-53.3m/s p=41.3hPa t=-57.9C h=4.1% 401.40MHz Type=RS41-SGP TxOff=8h27m batt=2.6V Join https://groups.io/g/Balloons
KG7GDB-12U22308672022-12-07 12:56:0044.7908-122.2641533121847Clb=-54.8m/s t=-58.1C h=1.1% p=40.2hPa 401.401 MHz Type=RS41-SGP ser=U2230867 Radiosonde
WA9ONY-14U22308672022-12-07 12:55:4844.7912-122.2651501722177Clb=-55.2m/s p=38.1hPa t=-59.1C h=4.6% 401.40MHz Type=RS41-SGP Join https://groups.io/g/Balloons
WA9ONY-10U22308672022-12-07 12:55:4644.7913-122.2651481722233Clb=-55.6m/s p=37.8hPa t=-59.1C h=4.6% 401.40MHz Type=RS41-SGP Join https://groups.io/g/Balloons
KJ7NUX-14U22308672022-12-07 12:55:4444.7913-122.2651341722343Clb=-55.1m/s p=37.2hPa t=-59.1C h=4.6% 401.40MHz Type=RS41-SGP TxOff=8h27m batt=2.5V Details on http://radiosondy.info
K6GDP-11U22308672022-12-07 12:55:4144.7914-122.2651391122507Clb=-56.5m/s t=-59.5C h=1.1% p=36.2hPa 401.400 MHz Type=RS41-SGP ser=U2230867 Radiosonde
WA9ONY-14U22308672022-12-07 12:55:3244.7915-122.2651102422728Clb=-55.6m/s p=35.1hPa t=-59.6C h=4.9% 401.40MHz Type=RS41-SGP batt=2.5V Join https://groups.io/g/Balloons
WA9ONY-10U22308672022-12-07 12:55:3044.7915-122.2651032422783Clb=-54.8m/s p=34.6hPa t=-59.8C h=4.8% 401.40MHz Type=RS41-SGP Join https://groups.io/g/Balloons
W7BDB-13U22308672022-12-07 12:55:2944.7915-122.2651122822837Clb=-55.7m/s p=34.3hPa t=-59.8C h=4.9% 401.40MHz Type=RS41-SGP Details on http://radiosondy.info
KJ7NUX-14U22308672022-12-07 12:55:1744.7917-122.2661173123229Clb=-58.7m/s p=32.4hPa t=-59.6C h=4.8% 401.40MHz Type=RS41-SGP Details on http://radiosondy.info
WA9ONY-14U22308672022-12-07 12:55:1644.7917-122.2661123023288Clb=-57.4m/s p=31.9hPa t=-59.6C h=4.8% 401.40MHz Type=RS41-SGP Join https://groups.io/g/Balloons
WA9ONY-10U22308672022-12-07 12:55:1444.7917-122.2661133023345Clb=-58.6m/s p=31.7hPa t=-59.6C h=4.7% 401.40MHz Type=RS41-SGP batt=2.6V Join https://groups.io/g/Balloons
KG7GDB-12U22308672022-12-07 12:55:0844.7918-122.2671133023637Clb=-59.6m/s t=-59.5C h=1.1% p=30.4hPa 401.401 MHz Type=RS41-SGP ser=U2230867 Radiosonde
W7BDB-13U22308672022-12-07 12:55:0044.7919-122.2671103723815Clb=-61.8m/s p=29.4hPa t=-58.6C h=4.7% 401.40MHz Type=RS41-SGP Details on http://radiosondy.info
WA9ONY-14U22308672022-12-07 12:54:5844.7919-122.2671153723875Clb=-61.1m/s p=29.1hPa t=-58.3C h=4.5% 401.40MHz Type=RS41-SGP Join https://groups.io/g/Balloons
WA9ONY-10U22308672022-12-07 12:54:5744.792-122.2671153923937Clb=-61.9m/s p=28.9hPa t=-58.0C h=4.4% 401.40MHz Type=RS41-SGP Join https://groups.io/g/Balloons
KJ7NUX-14U22308672022-12-07 12:54:5044.7921-122.2681134124179Clb=-62.2m/s p=27.8hPa t=-59.0C h=4.5% 401.40MHz Type=RS41-SGP Details on http://radiosondy.info
K6GDP-11U22308672022-12-07 12:54:4844.7922-122.2681214424299Clb=-63.4m/s t=-60.0C h=1.3% p=27.4hPa 401.400 MHz Type=RS41-SGP ser=U2230867 Radiosonde
WA9ONY-14U22308672022-12-07 12:54:4344.7924-122.2681273924487Clb=-64.1m/s p=26.5hPa t=-60.6C h=5.6% 401.40MHz Type=RS41-SGP batt=2.6V Join https://groups.io/g/Balloons
WA9ONY-10U22308672022-12-07 12:54:4244.7924-122.2681323924550Clb=-64.3m/s p=26.2hPa t=-60.2C h=5.4% 401.40MHz Type=RS41-SGP Join https://groups.io/g/Balloons
W7BDB-13U22308672022-12-07 12:54:3744.7927-122.2691363524741Clb=-64.3m/s p=25.5hPa t=-59.4C h=5.0% 401.40MHz Type=RS41-SGP batt=2.5V Details on http://radiosondy.info
WA9ONY-14U22308672022-12-07 12:54:2744.793-122.2691223325134Clb=-66.5m/s p=24.1hPa t=-57.4C h=4.2% 401.40MHz Type=RS41-SGP Join https://groups.io/g/Balloons
WA9ONY-10U22308672022-12-07 12:54:2544.793-122.2691183325199Clb=-66.3m/s p=23.6hPa t=-57.8C h=4.4% 401.40MHz Type=RS41-SGP batt=2.5V Join https://groups.io/g/Balloons
KG7GDB-12U22308672022-12-07 12:54:1644.7933-122.271043325740Clb=-70.0m/s t=-58.1C h=1.1% p=21.9hPa 401.401 MHz Type=RS41-SGP ser=U2230867 Radiosonde
W7BDB-13U22308672022-12-07 12:54:1044.7933-122.27984125810Clb=-70.4m/s p=21.3hPa t=-58.1C h=4.6% 401.40MHz Type=RS41-SGP Details on http://radiosondy.info
WA9ONY-10U22308672022-12-07 12:54:0844.7933-122.27993925880Clb=-70.8m/s p=21.4hPa t=-57.9C h=4.5% 401.40MHz Type=RS41-SGP Join https://groups.io/g/Balloons
KJ7NUX-14U22308672022-12-07 12:53:5944.7934-122.2711034426310Clb=-74.1m/s p=20.0hPa t=-58.4C h=4.7% 401.40MHz Type=RS41-SGP Details on http://radiosondy.info
K6GDP-11U22308672022-12-07 12:53:5844.7934-122.271993926383Clb=-73.0m/s t=-58.2C h=1.1% p=19.8hPa 401.400 MHz Type=RS41-SGP ser=U2230867 Radiosonde
WA9ONY-14U22308672022-12-07 12:53:5344.7935-122.2721014626529Clb=-74.4m/s p=19.3hPa t=-58.1C h=4.7% 401.40MHz Type=RS41-SGP TxOff=8h28m batt=2.6V Join https://groups.io/g/Balloons
WA9ONY-10U22308672022-12-07 12:53:5144.7935-122.2721044626604Clb=-75.1m/s p=18.9hPa t=-57.1C h=4.3% 401.40MHz Type=RS41-SGP Join https://groups.io/g/Balloons
W7BDB-13U22308672022-12-07 12:53:4344.7937-122.2721114826984Clb=-75.9m/s p=17.9hPa t=-56.1C h=3.9% 401.40MHz Type=RS41-SGP Details on http://radiosondy.info
WA9ONY-14U22308672022-12-07 12:53:3844.7939-122.2731145027288Clb=-76.8m/s p=17.0hPa t=-56.5C h=3.9% 401.40MHz Type=RS41-SGP Join https://groups.io/g/Balloons
WA9ONY-10U22308672022-12-07 12:53:3644.7939-122.2731135027365Clb=-77.8m/s p=16.8hPa t=-56.8C h=4.0% 401.40MHz Type=RS41-SGP TxOff=8h29m batt=2.5V Join https://groups.io/g/Balloons
KJ7NUX-14U22308672022-12-07 12:53:3444.794-122.2741045627519Clb=-77.3m/s p=16.3hPa t=-57.0C h=4.2% 401.40MHz Type=RS41-SGP Details on http://radiosondy.info
KG7GDB-12U22308672022-12-07 12:53:2544.7941-122.2741135427833Clb=-81.1m/s t=-57.4C h=1.1% p=15.6hPa 401.401 MHz Type=RS41-SGP ser=U2230867 Radiosonde
WA9ONY-14U22308672022-12-07 12:53:1944.7943-122.2751136128075Clb=-80.0m/s p=15.1hPa t=-57.5C h=4.5% 401.40MHz Type=RS41-SGP Join https://groups.io/g/Balloons
W7BDB-13U22308672022-12-07 12:53:1844.7943-122.2751176328155Clb=-81.1m/s p=14.9hPa t=-57.8C h=4.6% 401.40MHz Type=RS41-SGP TxOff=8h29m batt=2.6V Details on http://radiosondy.info
WA9ONY-10U22308672022-12-07 12:53:1744.7943-122.2751176328155Clb=-81.1m/s p=14.9hPa t=-57.8C h=4.6% 401.40MHz Type=RS41-SGP Join https://groups.io/g/Balloons
K6GDP-11U22308672022-12-07 12:53:0544.7949-122.2761186528815Clb=-83.3m/s t=-57.1C h=1.1% p=13.5hPa 401.400 MHz Type=RS41-SGP ser=U2230867 Radiosonde
KJ7NUX-14U22308672022-12-07 12:53:0444.7949-122.2761197228815Clb=-83.3m/s p=13.4hPa t=-57.0C h=4.6% 401.40MHz Type=RS41-SGP batt=2.5V Details on http://radiosondy.info
WA9ONY-14U22308672022-12-07 12:53:0244.795-122.2771227028897Clb=-84.1m/s p=13.3hPa t=-57.2C h=4.5% 401.40MHz Type=RS41-SGP batt=2.5V Join https://groups.io/g/Balloons
WA9ONY-10U22308672022-12-07 12:53:0044.7951-122.2771217028981Clb=-84.8m/s p=13.1hPa t=-57.4C h=4.7% 401.40MHz Type=RS41-SGP Join https://groups.io/g/Balloons
W7BDB-13U22308672022-12-07 12:52:5044.7955-122.2781128029494Clb=-88.8m/s p=12.1hPa t=-56.9C h=4.6% 401.40MHz Type=RS41-SGP Details on http://radiosondy.info
WA9ONY-14U22308672022-12-07 12:52:4444.7957-122.2791078129762Clb=-89.8m/s p=11.6hPa t=-54.7C h=3.6% 401.40MHz Type=RS41-SGP Join https://groups.io/g/Balloons
WA9ONY-10U22308672022-12-07 12:52:4244.7958-122.2791098129851Clb=-89.7m/s p=11.4hPa t=-54.6C h=3.7% 401.40MHz Type=RS41-SGP batt=2.5V Join https://groups.io/g/Balloons
KJ7NUX-14U22308672022-12-07 12:52:3544.7961-122.281128330210Clb=-92.0m/s p=10.8hPa t=-55.0C h=3.9% 401.40MHz Type=RS41-SGP Details on http://radiosondy.info
KG7GDB-12U22308672022-12-07 12:52:2444.7963-122.2811128030485Clb=-93.3m/s t=-55.3C h=0.9% p=10.5hPa 401.401 MHz Type=RS41-SGP ser=U2230867 Radiosonde
WA9ONY-10U22308672022-12-07 12:52:1744.7965-122.2821148530765Clb=-94.3m/s p=9.9hPa t=-56.3C h=4.3% 401.40MHz Type=RS41-SGP Join https://groups.io/g/Balloons
W7BDB-13U22308672022-12-07 12:52:1344.7967-122.2821118930952Clb=-94.4m/s p=9.7hPa t=-57.5C h=5.0% 401.40MHz Type=RS41-SGP Details on http://radiosondy.info
K6GDP-11U22308672022-12-07 12:52:0044.7971-122.2841048931623Clb=-98.8m/s t=-53.7C h=0.8% p=8.7hPa 401.400 MHz Type=RS41-SGP ser=U2230867 Radiosonde
WA9ONY-10U22308672022-12-07 12:51:5744.7971-122.2851089331721Clb=-100.2m/s p=8.5hPa t=-53.6C h=3.5% 401.40MHz Type=RS41-SGP Join https://groups.io/g/Balloons
W7BDB-12U22308672022-12-07 12:51:5044.7974-122.2861079332115Clb=-98.9m/s t=-55.3C h=1.0% p=8.0hPa 401.399 MHz Type=RS41-SGP ser=U2230867 Radiosonde
W7BDB-13U22308672022-12-07 12:51:3944.7977-122.2871079432515Clb=-100.4m/s p=7.6hPa t=-54.7C h=4.1% 401.40MHz Type=RS41-SGP batt=2.6V Details on http://radiosondy.info
WA9ONY-10U22308672022-12-07 12:51:3644.7978-122.2881089332716Clb=-101.8m/s p=7.3hPa t=-56.1C h=4.8% 401.40MHz Type=RS41-SGP batt=2.5V Join https://groups.io/g/Balloons
KJ7NUX-14U22308672022-12-07 12:51:2544.7982-122.291069633307Clb=-95.9m/s p=6.6hPa t=-55.2C h=4.8% 401.40MHz Type=RS41-SGP TxPastBurst=8h30m batt=2.5V Details on http://radiosondy.info
KG7GDB-12U22308672022-12-07 12:51:2044.7983-122.291049133495Clb=-93.8m/s t=-54.0C h=0.9% p=6.4hPa 401.401 MHz Type=RS41-SGP ser=U2230867 Radiosonde
WA9ONY-14U22308672022-12-07 12:51:1744.7984-122.29110710033677Clb=-89.4m/s p=6.2hPa t=-53.7C h=4.3% 401.40MHz Type=RS41-SGP Join https://groups.io/g/Balloons
W7BDB-13U22308672022-12-07 12:51:1044.7987-122.2921049434022Clb=-87.2m/s p=5.8hPa t=-52.2C h=3.8% 401.40MHz Type=RS41-SGP Details on http://radiosondy.info
K6GDP-11U22308672022-12-07 12:51:0144.7991-122.2941128034507Clb=-71.3m/s t=-50.0C h=0.6% p=5.3hPa 401.400 MHz Type=RS41-SGP ser=U2230867 Radiosonde
WA9ONY-14U22308672022-12-07 12:51:0044.7991-122.2941139334507Clb=-71.2m/s p=5.3hPa t=-50.0C h=2.9% 401.40MHz Type=RS41-SGP TxPastBurst=8h30m batt=2.5V Join https://groups.io/g/Balloons
KJ7NUX-14U22308672022-12-07 12:50:5844.7993-122.29511310234633Clb=-54.2m/s p=5.1hPa t=-50.1C h=3.0% 401.40MHz Type=RS41-SGP Details on http://radiosondy.info
KE7WWCU22308672022-12-07 12:50:5544.7997-122.29610211734812Clb=-6.4m/s t=-50.8C h=0.7% p=4.9hPa 401.375 MHz Type=RS41-SGP ser=U2230867 Radiosonde
WA9ONY-10U22308672022-12-07 12:50:4444.7998-122.2971039834811Clb=6.5m/s p=4.9hPa t=-50.7C h=3.2% 401.40MHz Type=RS41-SGP TxPastBurst=8h30m batt=2.5V Join https://groups.io/g/Balloons
W7BDB-13U22308672022-12-07 12:50:4244.7999-122.29810310734805Clb=4.4m/s p=4.9hPa t=-50.7C h=3.2% 401.40MHz Type=RS41-SGP Details on http://radiosondy.info
KJ7NUX-14U22308672022-12-07 12:50:3144.8001-122.3979634768Clb=3.8m/s p=4.9hPa t=-50.7C h=3.2% 401.40MHz Type=RS41-SGP Details on http://radiosondy.info
KG7GDB-12U22308672022-12-07 12:50:2944.8002-122.3011107634759Clb=4.9m/s t=-50.8C h=0.7% p=5.0hPa 401.401 MHz Type=RS41-SGP ser=U2230867 Radiosonde
WA9ONY-10U22308672022-12-07 12:50:2744.8002-122.30111110934759Clb=4.8m/s p=4.9hPa t=-50.8C h=3.2% 401.40MHz Type=RS41-SGP Join https://groups.io/g/Balloons
WA9ONY-14U22308672022-12-07 12:50:2544.8003-122.30111711134754Clb=6.0m/s p=4.9hPa t=-50.8C h=3.2% 401.40MHz Type=RS41-SGP Join https://groups.io/g/Balloons
W7BDB-13U22308672022-12-07 12:50:1644.8009-122.30310310234727Clb=5.0m/s p=5.0hPa t=-50.9C h=3.2% 401.40MHz Type=RS41-SGP batt=2.5V Details on http://radiosondy.info
WA9ONY-10U22308672022-12-07 12:50:0844.801-122.304919434706Clb=5.4m/s p=5.0hPa t=-51.0C h=3.2% 401.40MHz Type=RS41-SGP Join https://groups.io/g/Balloons
K6GDP-11U22308672022-12-07 12:50:0744.801-122.305957634700Clb=5.5m/s t=-51.0C h=0.6% p=5.0hPa 401.400 MHz Type=RS41-SGP ser=U2230867 Radiosonde
KJ7NUX-14U22308672022-12-07 12:50:0144.8011-122.30511710234684Clb=5.6m/s p=5.0hPa t=-51.0C h=3.2% 401.40MHz Type=RS41-SGP batt=2.6V Details on http://radiosondy.info
WA9ONY-10U22308672022-12-07 12:49:5244.8017-122.30710010034651Clb=5.7m/s p=5.0hPa t=-51.0C h=3.2% 401.40MHz Type=RS41-SGP batt=2.5V Join https://groups.io/g/Balloons
W7BDB-13U22308672022-12-07 12:49:5044.8017-122.308969834645Clb=5.7m/s p=5.0hPa t=-51.0C h=3.1% 401.40MHz Type=RS41-SGP Details on http://radiosondy.info
WA9ONY-14U22308672022-12-07 12:49:4944.8017-122.308969834645Clb=5.7m/s p=5.0hPa t=-51.0C h=3.1% 401.40MHz Type=RS41-SGP Join https://groups.io/g/Balloons
KJ7NUX-14U22308672022-12-07 12:49:3444.8021-122.31111110034594Clb=5.6m/s p=5.1hPa t=-51.4C h=3.2% 401.40MHz Type=RS41-SGP Details on http://radiosondy.info
WA9ONY-10U22308672022-12-07 12:49:3344.8021-122.3111119834594Clb=5.6m/s p=5.1hPa t=-51.4C h=3.2% 401.40MHz Type=RS41-SGP Join https://groups.io/g/Balloons
WA9ONY-14U22308672022-12-07 12:49:3044.8022-122.31111010034588Clb=6.0m/s p=5.1hPa t=-51.5C h=3.2% 401.40MHz Type=RS41-SGP Join https://groups.io/g/Balloons
W7BDB-13U22308672022-12-07 12:49:2044.8026-122.31311010434561Clb=5.5m/s p=5.1hPa t=-52.1C h=3.4% 401.40MHz Type=RS41-SGP Details on http://radiosondy.info
WA9ONY-10U22308672022-12-07 12:49:1144.8029-122.31411010234538Clb=4.8m/s p=5.1hPa t=-52.1C h=3.3% 401.40MHz Type=RS41-SGP Join https://groups.io/g/Balloons
WA9ONY-14U22308672022-12-07 12:49:0944.803-122.31410810234534Clb=5.9m/s p=5.1hPa t=-52.0C h=3.3% 401.40MHz Type=RS41-SGP batt=2.5V Join https://groups.io/g/Balloons
K6GDP-11U22308672022-12-07 12:49:0844.8031-122.31510410034527Clb=6.7m/s t=-52.1C h=0.7% p=5.2hPa 401.400 MHz Type=RS41-SGP ser=U2230867 Radiosonde
KJ7NUX-14U22308672022-12-07 12:49:0044.8033-122.31610610934505Clb=4.8m/s p=5.1hPa t=-52.0C h=3.2% 401.40MHz Type=RS41-SGP Details on http://radiosondy.info
WA9ONY-10U22308672022-12-07 12:48:5344.8037-122.31811510934482Clb=4.3m/s p=5.1hPa t=-52.3C h=3.2% 401.40MHz Type=RS41-SGP batt=2.5V Join https://groups.io/g/Balloons
WA9ONY-14U22308672022-12-07 12:48:5144.8038-122.31811210934478Clb=4.0m/s p=5.2hPa t=-52.3C h=3.3% 401.40MHz Type=RS41-SGP Join https://groups.io/g/Balloons
W7BDB-13U22308672022-12-07 12:48:4944.8039-122.31810811134473Clb=6.0m/s p=5.2hPa t=-52.4C h=3.3% 401.40MHz Type=RS41-SGP TxPastBurst=8h30m batt=2.6V Details on http://radiosondy.info
WA9ONY-10U22308672022-12-07 12:48:3644.8042-122.32110811334425Clb=5.8m/s p=5.2hPa t=-53.2C h=3.4% 401.40MHz Type=RS41-SGP Join https://groups.io/g/Balloons
WA9ONY-14U22308672022-12-07 12:48:3344.8043-122.32211011334420Clb=6.6m/s p=5.2hPa t=-53.2C h=3.4% 401.40MHz Type=RS41-SGP Join https://groups.io/g/Balloons
KJ7NUX-14U22308672022-12-07 12:48:3244.8044-122.32211111334413Clb=6.3m/s p=5.2hPa t=-53.3C h=3.4% 401.40MHz Type=RS41-SGP batt=2.5V Details on http://radiosondy.info
W7BDB-13U22308672022-12-07 12:48:1944.8049-122.32410911534384Clb=5.9m/s p=5.2hPa t=-53.7C h=3.5% 401.40MHz Type=RS41-SGP Details on http://radiosondy.info
WA9ONY-10U22308672022-12-07 12:48:1244.8051-122.32510011734366Clb=6.5m/s p=5.2hPa t=-53.9C h=3.6% 401.40MHz Type=RS41-SGP Join https://groups.io/g/Balloons
WA9ONY-14U22308672022-12-07 12:48:1144.8052-122.3259811734359Clb=6.8m/s p=5.3hPa t=-54.0C h=3.6% 401.40MHz Type=RS41-SGP TxPastBurst=8h30m batt=2.5V Join https://groups.io/g/Balloons
K6GDP-11U22308672022-12-07 12:48:0844.8053-122.3269910734348Clb=4.2m/s t=-54.2C h=0.8% p=5.3hPa 401.400 MHz Type=RS41-SGP ser=U2230867 Radiosonde
KJ7NUX-14U22308672022-12-07 12:47:5944.8057-122.32811811734318Clb=4.9m/s p=5.3hPa t=-54.7C h=3.8% 401.40MHz Type=RS41-SGP Details on http://radiosondy.info
WA9ONY-10U22308672022-12-07 12:47:5444.806-122.32911511534308Clb=6.0m/s p=5.3hPa t=-54.9C h=3.9% 401.40MHz Type=RS41-SGP TxPastBurst=8h30m batt=2.6V Join https://groups.io/g/Balloons
WA9ONY-14U22308672022-12-07 12:47:5344.8061-122.32911011534302Clb=6.2m/s p=5.3hPa t=-54.9C h=3.9% 401.40MHz Type=RS41-SGP Join https://groups.io/g/Balloons
W7BDB-13U22308672022-12-07 12:47:4944.8063-122.3310111334289Clb=5.3m/s p=5.3hPa t=-55.0C h=3.9% 401.40MHz Type=RS41-SGP Details on http://radiosondy.info
KE7WWCU22308672022-12-07 12:47:4244.8065-122.33210511934266Clb=6.4m/s t=-55.0C h=0.8% p=5.4hPa 401.375 MHz Type=RS41-SGP ser=U2230867 Radiosonde
WA9ONY-10U22308672022-12-07 12:47:3644.8068-122.33311311134250Clb=4.9m/s p=5.4hPa t=-54.9C h=4.1% 401.40MHz Type=RS41-SGP Join https://groups.io/g/Balloons
WA9ONY-14U22308672022-12-07 12:47:3444.8069-122.33311211134244Clb=5.4m/s p=5.4hPa t=-54.8C h=3.9% 401.40MHz Type=RS41-SGP Join https://groups.io/g/Balloons
KG7GDB-12U22308672022-12-07 12:47:3344.807-122.33410510434231Clb=6.6m/s t=-54.8C h=0.8% p=5.4hPa 401.401 MHz Type=RS41-SGP ser=U2230867 Radiosonde
KJ7NUX-14U22308672022-12-07 12:47:2944.8071-122.33410310634225Clb=5.8m/s p=5.4hPa t=-54.7C h=3.9% 401.40MHz Type=RS41-SGP Details on http://radiosondy.info
W7BDB-13U22308672022-12-07 12:47:1644.8073-122.33610410634200Clb=6.4m/s p=5.4hPa t=-54.6C h=3.8% 401.40MHz Type=RS41-SGP batt=2.5V Details on http://radiosondy.info
WA9ONY-10U22308672022-12-07 12:47:1244.8075-122.33610610434189Clb=5.0m/s p=5.4hPa t=-54.6C h=3.8% 401.40MHz Type=RS41-SGP Join https://groups.io/g/Balloons
WA9ONY-14U22308672022-12-07 12:47:1044.8075-122.33710610234183Clb=6.1m/s p=5.4hPa t=-54.6C h=3.8% 401.40MHz Type=RS41-SGP batt=2.6V Join https://groups.io/g/Balloons
K6GDP-11U22308672022-12-07 12:47:0444.8078-122.3381069434164Clb=5.6m/s t=-54.7C h=0.8% p=5.4hPa 401.400 MHz Type=RS41-SGP ser=U2230867 Radiosonde
KJ7NUX-14U22308672022-12-07 12:46:5544.8082-122.3410710234128Clb=6.9m/s p=5.5hPa t=-54.9C h=3.8% 401.40MHz Type=RS41-SGP TxPastBurst=8h30m batt=2.5V Details on http://radiosondy.info
WA9ONY-10U22308672022-12-07 12:46:5444.8082-122.3410710634128Clb=6.9m/s p=5.5hPa t=-54.9C h=3.8% 401.40MHz Type=RS41-SGP batt=2.5V Join https://groups.io/g/Balloons
WA9ONY-14U22308672022-12-07 12:46:5244.8083-122.3410410634120Clb=7.2m/s p=5.5hPa t=-54.9C h=3.8% 401.40MHz Type=RS41-SGP Join https://groups.io/g/Balloons
W7BDB-13U22308672022-12-07 12:46:4744.8085-122.34110310034103Clb=5.1m/s p=5.5hPa t=-55.0C h=3.9% 401.40MHz Type=RS41-SGP Details on http://radiosondy.info
WA9ONY-10U22308672022-12-07 12:46:3544.809-122.3431119634067Clb=6.6m/s p=5.5hPa t=-55.1C h=3.7% 401.40MHz Type=RS41-SGP Join https://groups.io/g/Balloons
WA9ONY-14U22308672022-12-07 12:46:3344.8091-122.3441099634060Clb=7.0m/s p=5.5hPa t=-55.1C h=3.8% 401.40MHz Type=RS41-SGP Join https://groups.io/g/Balloons
KG7GDB-12U22308672022-12-07 12:46:2844.8092-122.3451069134041Clb=5.9m/s t=-55.2C h=0.8% p=5.6hPa 401.401 MHz Type=RS41-SGP ser=U2230867 Radiosonde
KJ7NUX-14U22308672022-12-07 12:46:2444.8094-122.34511110034028Clb=6.4m/s p=5.6hPa t=-55.2C h=3.8% 401.40MHz Type=RS41-SGP Details on http://radiosondy.info
W7BDB-13U22308672022-12-07 12:46:1444.8098-122.3471119634005Clb=6.6m/s p=5.6hPa t=-55.4C h=3.9% 401.40MHz Type=RS41-SGP Details on http://radiosondy.info
WA9ONY-14U22308672022-12-07 12:46:1244.8099-122.3471089833998Clb=7.1m/s p=5.6hPa t=-55.5C h=3.8% 401.40MHz Type=RS41-SGP batt=2.5V Join https://groups.io/g/Balloons
K6GDP-11U22308672022-12-07 12:46:0544.8101-122.3481059433974Clb=6.8m/s t=-55.9C h=0.9% p=5.6hPa 401.400 MHz Type=RS41-SGP ser=U2230867 Radiosonde
WA9ONY-10U22308672022-12-07 12:45:5744.8105-122.351069133944Clb=6.5m/s p=5.6hPa t=-55.9C h=4.1% 401.40MHz Type=RS41-SGP batt=2.5V Join https://groups.io/g/Balloons
WA9ONY-14U22308672022-12-07 12:45:5544.8105-122.351039133937Clb=7.0m/s p=5.6hPa t=-55.9C h=4.1% 401.40MHz Type=RS41-SGP Join https://groups.io/g/Balloons
KJ7NUX-14U22308672022-12-07 12:45:5444.8106-122.3511029333931Clb=6.2m/s p=5.6hPa t=-55.9C h=4.1% 401.40MHz Type=RS41-SGP Details on http://radiosondy.info
W7BDB-13U22308672022-12-07 12:45:4844.8107-122.3511089433914Clb=6.7m/s p=5.6hPa t=-55.8C h=4.0% 401.40MHz Type=RS41-SGP batt=2.5V Details on http://radiosondy.info
WA9ONY-10U22308672022-12-07 12:45:4044.8111-122.3531069433885Clb=5.5m/s p=5.7hPa t=-55.8C h=4.0% 401.40MHz Type=RS41-SGP Join https://groups.io/g/Balloons
WA9ONY-14U22308672022-12-07 12:45:3844.8112-122.3531009433879Clb=7.5m/s p=5.7hPa t=-55.9C h=4.0% 401.40MHz Type=RS41-SGP Join https://groups.io/g/Balloons
KG7GDB-12U22308672022-12-07 12:45:3044.8112-122.355909433854Clb=4.8m/s t=-56.3C h=0.9% p=5.8hPa 401.401 MHz Type=RS41-SGP ser=U2230867 Radiosonde
KJ7NUX-14U22308672022-12-07 12:45:2444.8113-122.3561068933834Clb=6.1m/s p=5.7hPa t=-56.3C h=4.2% 401.40MHz Type=RS41-SGP batt=2.6V Details on http://radiosondy.info
WA9ONY-10U22308672022-12-07 12:45:1944.8115-122.3561109133823Clb=4.8m/s p=5.7hPa t=-56.2C h=4.1% 401.40MHz Type=RS41-SGP Join https://groups.io/g/Balloons
WA9ONY-14U22308672022-12-07 12:45:1744.8115-122.3561078933818Clb=5.6m/s p=5.7hPa t=-56.2C h=4.1% 401.40MHz Type=RS41-SGP TxPastBurst=8h30m batt=2.5V Join https://groups.io/g/Balloons
K6GDP-11U22308672022-12-07 12:45:0844.8117-122.358929133786Clb=5.8m/s t=-56.0C h=0.9% p=5.8hPa 401.400 MHz Type=RS41-SGP ser=U2230867 Radiosonde
WA9ONY-10U22308672022-12-07 12:45:0244.8118-122.3591078133762Clb=5.5m/s p=5.8hPa t=-55.8C h=3.9% 401.40MHz Type=RS41-SGP TxPastBurst=8h30m batt=2.6V Join https://groups.io/g/Balloons
WA9ONY-14U22308672022-12-07 12:45:0044.8119-122.361088133757Clb=6.1m/s p=5.8hPa t=-55.8C h=3.9% 401.40MHz Type=RS41-SGP Join https://groups.io/g/Balloons
KJ7NUX-14U22308672022-12-07 12:44:5444.812-122.36978033739Clb=5.1m/s p=5.8hPa t=-56.0C h=4.0% 401.40MHz Type=RS41-SGP Details on http://radiosondy.info
W7BDB-13U22308672022-12-07 12:44:5044.812-122.361958033729Clb=5.6m/s p=5.8hPa t=-56.2C h=4.0% 401.40MHz Type=RS41-SGP Details on http://radiosondy.info
WA9ONY-10U22308672022-12-07 12:44:4244.8122-122.3621047633705Clb=6.0m/s p=5.9hPa t=-56.4C h=4.1% 401.40MHz Type=RS41-SGP Join https://groups.io/g/Balloons
WA9ONY-14U22308672022-12-07 12:44:4144.8122-122.3621057633699Clb=5.9m/s p=5.8hPa t=-56.4C h=4.2% 401.40MHz Type=RS41-SGP Join https://groups.io/g/Balloons
KG7GDB-12U22308672022-12-07 12:44:3144.8124-122.364937233669Clb=5.5m/s t=-56.3C h=0.9% p=5.9hPa 401.401 MHz Type=RS41-SGP ser=U2230867 Radiosonde
KE7WWCU22308672022-12-07 12:44:2044.8125-122.3651077833647Clb=5.8m/s t=-56.2C h=0.9% p=6.0hPa 401.375 MHz Type=RS41-SGP ser=U2230867 Radiosonde
WA9ONY-10U22308672022-12-07 12:44:1944.8125-122.3651088133647Clb=5.8m/s p=5.9hPa t=-56.1C h=4.0% 401.40MHz Type=RS41-SGP Join https://groups.io/g/Balloons
WA9ONY-14U22308672022-12-07 12:44:1644.8125-122.3651108333641Clb=5.1m/s p=5.9hPa t=-56.1C h=4.0% 401.40MHz Type=RS41-SGP batt=2.6V Join https://groups.io/g/Balloons
W7BDB-13U22308672022-12-07 12:44:1444.8126-122.3651108333636Clb=4.7m/s p=5.9hPa t=-56.0C h=4.0% 401.40MHz Type=RS41-SGP TxPastBurst=8h30m batt=2.6V Details on http://radiosondy.info
K6GDP-11U22308672022-12-07 12:44:0444.8127-122.366888733608Clb=6.1m/s t=-56.1C h=0.9% p=6.0hPa 401.400 MHz Type=RS41-SGP ser=U2230867 Radiosonde
WA9ONY-10U22308672022-12-07 12:44:0144.8128-122.3671018333590Clb=5.5m/s p=5.9hPa t=-56.2C h=4.0% 401.40MHz Type=RS41-SGP batt=2.6V Join https://groups.io/g/Balloons
KJ7NUX-14U22308672022-12-07 12:44:0044.8132-122.3691048933556Clb=5.4m/s p=6.0hPa t=-56.6C h=4.1% 401.40MHz Type=RS41-SGP batt=2.6V Details on http://radiosondy.info
W7BDB-13U22308672022-12-07 12:43:5744.8132-122.37969333546Clb=5.9m/s p=6.0hPa t=-56.6C h=4.0% 401.40MHz Type=RS41-SGP Details on http://radiosondy.info
WA9ONY-10U22308672022-12-07 12:43:5544.8133-122.37989333533Clb=5.7m/s p=6.0hPa t=-56.5C h=4.0% 401.40MHz Type=RS41-SGP Join https://groups.io/g/Balloons
WA9ONY-14U22308672022-12-07 12:43:5344.8133-122.3711009333527Clb=5.5m/s p=6.0hPa t=-56.5C h=3.9% 401.40MHz Type=RS41-SGP Join https://groups.io/g/Balloons
KG7GDB-12U22308672022-12-07 12:43:4644.8137-122.3731048133493Clb=5.3m/s t=-56.6C h=0.8% p=6.1hPa 401.401 MHz Type=RS41-SGP ser=U2230867 Radiosonde
WA9ONY-10U22308672022-12-07 12:43:4144.8138-122.3731069633476Clb=6.5m/s p=6.1hPa t=-56.8C h=3.8% 401.40MHz Type=RS41-SGP Join https://groups.io/g/Balloons
WA9ONY-14U22308672022-12-07 12:43:4044.8139-122.3741079633470Clb=6.5m/s p=6.1hPa t=-56.9C h=3.9% 401.40MHz Type=RS41-SGP batt=2.6V Join https://groups.io/g/Balloons
KJ7NUX-14U22308672022-12-07 12:43:3844.814-122.37410810233463Clb=5.7m/s p=6.1hPa t=-57.1C h=3.9% 401.40MHz Type=RS41-SGP Details on http://radiosondy.info
W7BDB-13U22308672022-12-07 12:43:3544.8141-122.37510510033453Clb=5.6m/s p=6.1hPa t=-57.5C h=4.1% 401.40MHz Type=RS41-SGP Details on http://radiosondy.info
K6GDP-11U22308672022-12-07 12:43:2944.8143-122.3761019133430Clb=4.9m/s t=-57.8C h=0.9% p=6.2hPa 401.400 MHz Type=RS41-SGP ser=U2230867 Radiosonde
WA9ONY-14U22308672022-12-07 12:43:2644.8145-122.37710610933411Clb=6.6m/s p=6.1hPa t=-57.9C h=4.2% 401.40MHz Type=RS41-SGP Join https://groups.io/g/Balloons
KJ7NUX-14U22308672022-12-07 12:43:2144.8148-122.389610733370Clb=5.1m/s p=6.2hPa t=-58.5C h=4.4% 401.40MHz Type=RS41-SGP Details on http://radiosondy.info
W7BDB-13U22308672022-12-07 12:43:2044.8148-122.389710933364Clb=6.1m/s p=6.2hPa t=-58.6C h=4.5% 401.40MHz Type=RS41-SGP batt=2.5V Details on http://radiosondy.info
WA9ONY-10U22308672022-12-07 12:43:1944.8149-122.38110110733352Clb=5.8m/s p=6.2hPa t=-58.7C h=4.6% 401.40MHz Type=RS41-SGP Join https://groups.io/g/Balloons
KG7GDB-12U22308672022-12-07 12:43:1444.8154-122.38310810233309Clb=6.5m/s t=-58.7C h=1.0% p=6.3hPa 401.401 MHz Type=RS41-SGP ser=U2230867 Radiosonde
WA9ONY-14U22308672022-12-07 12:43:1044.8157-122.38410510733290Clb=5.4m/s p=6.2hPa t=-58.8C h=4.5% 401.40MHz Type=RS41-SGP TxPastBurst=8h30m batt=2.5V Join https://groups.io/g/Balloons
WA9ONY-10U22308672022-12-07 12:43:0944.8157-122.38410510733290Clb=5.4m/s p=6.2hPa t=-58.8C h=4.5% 401.40MHz Type=RS41-SGP Join https://groups.io/g/Balloons
KJ7NUX-14U22308672022-12-07 12:43:0644.8158-122.38610010233272Clb=5.8m/s p=6.3hPa t=-58.8C h=4.5% 401.40MHz Type=RS41-SGP TxPastBurst=8h30m batt=2.6V Details on http://radiosondy.info
K6GDP-11U22308672022-12-07 12:43:0144.8161-122.38710710433243Clb=5.8m/s t=-59.0C h=1.0% p=6.4hPa 401.400 MHz Type=RS41-SGP ser=U2230867 Radiosonde
WA9ONY-14U22308672022-12-07 12:42:5944.8163-122.38810910233231Clb=5.6m/s p=6.3hPa t=-59.0C h=4.6% 401.40MHz Type=RS41-SGP Join https://groups.io/g/Balloons
W7BDB-12U22308672022-12-07 12:42:5844.8165-122.3891049633207Clb=5.0m/s t=-59.0C h=1.0% p=6.4hPa 401.399 MHz Type=RS41-SGP ser=U2230867 Radiosonde
W7BDB-13U22308672022-12-07 12:42:5144.8169-122.3911139633182Clb=5.4m/s p=6.4hPa t=-59.0C h=4.5% 401.40MHz Type=RS41-SGP Details on http://radiosondy.info
KJ7NUX-14U22308672022-12-07 12:42:5044.817-122.3911129633177Clb=5.4m/s p=6.4hPa t=-59.1C h=4.5% 401.40MHz Type=RS41-SGP Details on http://radiosondy.info
WA9ONY-10U22308672022-12-07 12:42:4844.8171-122.3911119633171Clb=6.8m/s p=6.4hPa t=-59.1C h=4.5% 401.40MHz Type=RS41-SGP Join https://groups.io/g/Balloons
KG7GDB-12U22308672022-12-07 12:42:3644.8177-122.3941089433121Clb=5.9m/s t=-59.8C h=1.1% p=6.5hPa 401.401 MHz Type=RS41-SGP ser=U2230867 Radiosonde
WA9ONY-14U22308672022-12-07 12:42:3344.8178-122.3951048933109Clb=6.2m/s p=6.4hPa t=-59.7C h=4.7% 401.40MHz Type=RS41-SGP batt=2.5V Join https://groups.io/g/Balloons
KE7WWCU22308672022-12-07 12:42:3144.8179-122.3951039133098Clb=5.0m/s t=-59.6C h=1.1% p=6.5hPa 401.375 MHz Type=RS41-SGP ser=U2230867 Radiosonde
W7BDB-13U22308672022-12-07 12:42:2944.818-122.3961098133086Clb=7.1m/s p=6.4hPa t=-59.5C h=4.6% 401.40MHz Type=RS41-SGP batt=2.5V Details on http://radiosondy.info
KJ7NUX-14U22308672022-12-07 12:42:2844.8181-122.3961138133079Clb=5.8m/s p=6.5hPa t=-59.5C h=4.6% 401.40MHz Type=RS41-SGP Details on http://radiosondy.info
K6GDP-11U22308672022-12-07 12:42:2344.8185-122.3971167233055Clb=7.4m/s t=-59.5C h=1.0% p=6.5hPa 401.400 MHz Type=RS41-SGP ser=U2230867 Radiosonde
WA9ONY-14U22308672022-12-07 12:42:2144.8186-122.3971167833048Clb=6.1m/s p=6.5hPa t=-59.5C h=4.5% 401.40MHz Type=RS41-SGP Join https://groups.io/g/Balloons
W7BDB-13U22308672022-12-07 12:42:0944.8192-122.41077232994Clb=6.4m/s p=6.6hPa t=-60.4C h=4.9% 401.40MHz Type=RS41-SGP Details on http://radiosondy.info
WA9ONY-14U22308672022-12-07 12:42:0844.8193-122.41076732988Clb=5.7m/s p=6.6hPa t=-60.4C h=4.9% 401.40MHz Type=RS41-SGP Join https://groups.io/g/Balloons
KJ7NUX-14U22308672022-12-07 12:42:0744.8193-122.41107232982Clb=5.4m/s p=6.6hPa t=-60.5C h=4.9% 401.40MHz Type=RS41-SGP batt=2.5V Details on http://radiosondy.info
KG7GDB-12U22308672022-12-07 12:41:5744.82-122.4021246532932Clb=4.7m/s t=-60.8C h=1.2% p=6.7hPa 401.401 MHz Type=RS41-SGP ser=U2230867 Radiosonde
WA9ONY-10U22308672022-12-07 12:41:5644.8201-122.4021247832927Clb=6.0m/s p=6.6hPa t=-60.8C h=5.2% 401.40MHz Type=RS41-SGP Join https://groups.io/g/Balloons
KE7WWCU22308672022-12-07 12:41:5344.8204-122.4031188932907Clb=5.2m/s t=-60.7C h=1.2% p=6.7hPa 401.375 MHz Type=RS41-SGP ser=U2230867 Radiosonde
W7BDB-13U22308672022-12-07 12:41:5244.8205-122.4031178032902Clb=5.2m/s p=6.6hPa t=-60.6C h=5.1% 401.40MHz Type=RS41-SGP Details on http://radiosondy.info
KJ7NUX-14U22308672022-12-07 12:41:4944.8208-122.4041138032883Clb=5.7m/s p=6.7hPa t=-60.5C h=5.1% 401.40MHz Type=RS41-SGP Details on http://radiosondy.info
K6GDP-11U22308672022-12-07 12:41:4644.821-122.4041207232865Clb=6.6m/s t=-60.4C h=1.2% p=6.7hPa 401.400 MHz Type=RS41-SGP ser=U2230867 Radiosonde
W7BDB-12U22308672022-12-07 12:41:4244.8216-122.4061138132830Clb=5.8m/s t=-60.3C h=1.2% p=6.8hPa 401.399 MHz Type=RS41-SGP ser=U2230867 Radiosonde
W7BDB-13U22308672022-12-07 12:41:3844.8219-122.4071158932812Clb=6.6m/s p=6.7hPa t=-60.1C h=5.2% 401.40MHz Type=RS41-SGP TxPastBurst=8h30m batt=2.5V Details on http://radiosondy.info
WA9ONY-14U22308672022-12-07 12:41:3644.822-122.4071158532805Clb=5.3m/s p=6.8hPa t=-60.0C h=5.1% 401.40MHz Type=RS41-SGP Join https://groups.io/g/Balloons
KJ7NUX-14U22308672022-12-07 12:41:3444.8222-122.4081138932789Clb=7.0m/s p=6.8hPa t=-59.9C h=5.1% 401.40MHz Type=RS41-SGP Details on http://radiosondy.info
KG7GDB-12U22308672022-12-07 12:41:2644.8228-122.411149632748Clb=5.1m/s t=-59.6C h=1.1% p=6.9hPa 401.401 MHz Type=RS41-SGP ser=U2230867 Radiosonde
W7BDB-13U22308672022-12-07 12:41:2244.8232-122.4111079332725Clb=4.8m/s p=6.9hPa t=-59.4C h=4.9% 401.40MHz Type=RS41-SGP Details on http://radiosondy.info
KJ7NUX-14U22308672022-12-07 12:41:1844.8236-122.4121139432697Clb=6.7m/s p=6.9hPa t=-59.1C h=4.9% 401.40MHz Type=RS41-SGP batt=2.5V Details on http://radiosondy.info
WA9ONY-10U22308672022-12-07 12:41:1644.8236-122.4131129432690Clb=6.6m/s p=6.9hPa t=-59.1C h=4.9% 401.40MHz Type=RS41-SGP TxPastBurst=8h30m batt=2.5V Join https://groups.io/g/Balloons
K6GDP-11U22308672022-12-07 12:41:1544.8238-122.4131118532679Clb=4.4m/s t=-59.0C h=1.1% p=7.0hPa 401.400 MHz Type=RS41-SGP ser=U2230867 Radiosonde
W7BDB-13U22308672022-12-07 12:41:0744.8245-122.4151099832638Clb=6.3m/s p=6.9hPa t=-58.6C h=4.7% 401.40MHz Type=RS41-SGP Details on http://radiosondy.info
WA9ONY-10U22308672022-12-07 12:41:0644.8245-122.4161079432632Clb=5.7m/s p=6.9hPa t=-58.6C h=4.6% 401.40MHz Type=RS41-SGP Join https://groups.io/g/Balloons
KE7WWCU22308672022-12-07 12:41:0344.8647-122.5631137428818Clb=7.1m/s t=-58.8C h=1.0% p=13.0hPa 401.375 MHz Type=RS41-SGP ser=U2230867 Radiosonde
WA9ONY-14U22308672022-12-07 12:41:0044.8649-122.5641246728806Clb=5.3m/s p=12.9hPa t=-58.9C h=4.6% 401.40MHz Type=RS41-SGP Join https://groups.io/g/Balloons
KG7GDB-12U22308672022-12-07 12:40:5944.865-122.5641257428799Clb=7.0m/s t=-58.9C h=1.0% p=13.0hPa 401.401 MHz Type=RS41-SGP ser=U2230867 Radiosonde
KJ7NUX-14U22308672022-12-07 12:40:5644.8652-122.5651226328787Clb=5.0m/s p=12.9hPa t=-58.9C h=4.6% 401.40MHz Type=RS41-SGP Details on http://radiosondy.info
W7BDB-13U22308672022-12-07 12:40:5044.8654-122.5651106128769Clb=6.3m/s p=13.0hPa t=-58.8C h=4.4% 401.40MHz Type=RS41-SGP Details on http://radiosondy.info
WA9ONY-10U22308672022-12-07 12:40:4144.8656-122.5661045928744Clb=6.7m/s p=13.0hPa t=-58.8C h=4.5% 401.40MHz Type=RS41-SGP Join https://groups.io/g/Balloons
WA9ONY-14U22308672022-12-07 12:40:3844.8656-122.5661056128738Clb=4.9m/s p=13.1hPa t=-58.8C h=4.5% 401.40MHz Type=RS41-SGP TxPastBurst=8h30m batt=2.5V Join https://groups.io/g/Balloons
K6GDP-11U22308672022-12-07 12:40:3744.8657-122.5671065928726Clb=7.3m/s t=-58.9C h=1.0% p=13.2hPa 401.400 MHz Type=RS41-SGP ser=U2230867 Radiosonde
W7BDB-12U22308672022-12-07 12:40:2944.8661-122.5681145728687Clb=6.2m/s t=-59.3C h=1.1% p=13.2hPa 401.399 MHz Type=RS41-SGP ser=U2230867 Radiosonde
KJ7NUX-14U22308672022-12-07 12:40:2244.8661-122.5681155728687Clb=6.1m/s p=13.2hPa t=-59.3C h=4.6% 401.40MHz Type=RS41-SGP TxPastBurst=8h30m batt=2.5V Details on http://radiosondy.info
WA9ONY-10U22308672022-12-07 12:40:2044.8662-122.5681115628681Clb=7.1m/s p=13.2hPa t=-59.3C h=4.6% 401.40MHz Type=RS41-SGP TxPastBurst=8h30m batt=2.5V Join https://groups.io/g/Balloons
WA9ONY-14U22308672022-12-07 12:40:1844.8662-122.5681085628674Clb=5.8m/s p=13.2hPa t=-59.2C h=4.6% 401.40MHz Type=RS41-SGP Join https://groups.io/g/Balloons
W7BDB-13U22308672022-12-07 12:40:1644.8662-122.5681065628668Clb=6.0m/s p=13.2hPa t=-59.2C h=4.6% 401.40MHz Type=RS41-SGP batt=2.6V Details on http://radiosondy.info
WA9ONY-10U22308672022-12-07 12:39:5544.8667-122.571275228619Clb=7.1m/s p=13.3hPa t=-59.7C h=4.9% 401.40MHz Type=RS41-SGP Join https://groups.io/g/Balloons
WA9ONY-14U22308672022-12-07 12:39:5344.8668-122.571315028612Clb=6.6m/s p=13.3hPa t=-59.7C h=5.0% 401.40MHz Type=RS41-SGP Join https://groups.io/g/Balloons
KG7GDB-12U22308672022-12-07 12:39:5244.8669-122.571325428606Clb=4.7m/s t=-59.8C h=1.1% p=13.4hPa 401.401 MHz Type=RS41-SGP ser=U2230867 Radiosonde
KE7WWCU22308672022-12-07 12:39:4744.8671-122.5711225228589Clb=6.0m/s t=-59.7C h=1.1% p=13.4hPa 401.375 MHz Type=RS41-SGP ser=U2230867 Radiosonde
KJ7NUX-14U22308672022-12-07 12:39:4544.8671-122.5711235228589Clb=6.0m/s p=13.4hPa t=-59.7C h=4.9% 401.40MHz Type=RS41-SGP Details on http://radiosondy.info
W7BDB-13U22308672022-12-07 12:39:3744.8673-122.5711205428578Clb=5.8m/s p=13.4hPa t=-59.6C h=4.8% 401.40MHz Type=RS41-SGP Details on http://radiosondy.info
WA9ONY-10U22308672022-12-07 12:39:2844.8674-122.5711275628559Clb=5.0m/s p=13.5hPa t=-59.4C h=4.8% 401.40MHz Type=RS41-SGP Join https://groups.io/g/Balloons
WA9ONY-14U22308672022-12-07 12:39:2544.8675-122.5711255628552Clb=5.9m/s p=13.5hPa t=-59.4C h=4.7% 401.40MHz Type=RS41-SGP batt=2.5V Join https://groups.io/g/Balloons
k6gdp-12U22308672022-12-07 12:39:2344.8676-122.5721205628540Clb=6.0m/s t=-59.4C h=1.1% p=13.6hPa 401.378 MHz Type=RS41-SGP ser=U2230867 Radiosonde
K6GDP-11U22308672022-12-07 12:39:2044.8677-122.5721215728534Clb=6.0m/s t=-59.3C h=1.1% p=13.5hPa 401.400 MHz Type=RS41-SGP ser=U2230867 Radiosonde
W7BDB-12U22308672022-12-07 12:39:1244.8681-122.5731215628502Clb=6.4m/s t=-59.2C h=1.0% p=13.6hPa 401.399 MHz Type=RS41-SGP ser=U2230867 Radiosonde
WA9ONY-10U22308672022-12-07 12:39:0244.8682-122.5731234828496Clb=4.9m/s p=13.6hPa t=-59.2C h=4.4% 401.40MHz Type=RS41-SGP batt=2.6V Join https://groups.io/g/Balloons
KJ7NUX-14U22308672022-12-07 12:39:0144.8683-122.5731265028491Clb=6.7m/s p=13.6hPa t=-59.2C h=4.4% 401.40MHz Type=RS41-SGP Details on http://radiosondy.info
WA9ONY-14U22308672022-12-07 12:39:0044.8683-122.5731264828490Clb=6.7m/s p=13.6hPa t=-59.2C h=4.4% 401.40MHz Type=RS41-SGP Join https://groups.io/g/Balloons
W7BDB-13U22308672022-12-07 12:38:5844.8683-122.5731304828484Clb=7.2m/s p=13.6hPa t=-59.3C h=4.5% 401.40MHz Type=RS41-SGP Details on http://radiosondy.info
WA9ONY-10U22308672022-12-07 12:38:4144.8689-122.5741254828434Clb=5.1m/s p=13.7hPa t=-59.8C h=4.8% 401.40MHz Type=RS41-SGP Join https://groups.io/g/Balloons
WA9ONY-14U22308672022-12-07 12:38:3844.869-122.5741224828429Clb=6.7m/s p=13.8hPa t=-59.9C h=4.9% 401.40MHz Type=RS41-SGP Join https://groups.io/g/Balloons
KG7GDB-12U22308672022-12-07 12:38:3444.8691-122.5751165228415Clb=5.4m/s t=-60.0C h=1.1% p=13.8hPa 401.401 MHz Type=RS41-SGP ser=U2230867 Radiosonde
W7BDB-13U22308672022-12-07 12:38:2244.8693-122.5751184828392Clb=5.2m/s p=13.8hPa t=-60.1C h=5.0% 401.40MHz Type=RS41-SGP TxPastBurst=8h30m batt=2.5V Details on http://radiosondy.info
WA9ONY-10U22308672022-12-07 12:38:1644.8695-122.5761135228372Clb=5.3m/s p=13.8hPa t=-60.0C h=4.8% 401.40MHz Type=RS41-SGP Join https://groups.io/g/Balloons
WA9ONY-14U22308672022-12-07 12:38:1444.8695-122.5761155028366Clb=6.8m/s p=13.9hPa t=-60.0C h=4.9% 401.40MHz Type=RS41-SGP batt=2.6V Join https://groups.io/g/Balloons
k6gdp-12U22308672022-12-07 12:38:1044.8697-122.5761165728347Clb=6.1m/s t=-60.0C h=1.1% p=14.0hPa 401.378 MHz Type=RS41-SGP ser=U2230867 Radiosonde
K6GDP-11U22308672022-12-07 12:38:0744.8698-122.5771125928341Clb=6.9m/s t=-60.0C h=1.1% p=14.0hPa 401.400 MHz Type=RS41-SGP ser=U2230867 Radiosonde
WA9ONY-10U22308672022-12-07 12:37:5544.87-122.5771103528309Clb=6.3m/s p=14.0hPa t=-59.9C h=4.8% 401.40MHz Type=RS41-SGP batt=2.5V Join https://groups.io/g/Balloons
WA9ONY-14U22308672022-12-07 12:37:5244.87-122.5771073728303Clb=5.9m/s p=14.0hPa t=-60.0C h=4.9% 401.40MHz Type=RS41-SGP Join https://groups.io/g/Balloons
W7BDB-13U22308672022-12-07 12:37:5044.87-122.5781023728296Clb=7.2m/s p=14.1hPa t=-60.0C h=4.9% 401.40MHz Type=RS41-SGP Details on http://radiosondy.info
KJ7NUX-14U22308672022-12-07 12:37:4844.87-122.5781003928289Clb=5.7m/s p=14.0hPa t=-60.0C h=4.9% 401.40MHz Type=RS41-SGP Details on http://radiosondy.info
WA9ONY-10U22308672022-12-07 12:37:3344.8703-122.5791093928247Clb=6.3m/s p=14.1hPa t=-59.8C h=4.8% 401.40MHz Type=RS41-SGP Join https://groups.io/g/Balloons
WA9ONY-14U22308672022-12-07 12:37:3144.8703-122.5791073728240Clb=5.5m/s p=14.2hPa t=-59.8C h=4.8% 401.40MHz Type=RS41-SGP Join https://groups.io/g/Balloons
KG7GDB-12U22308672022-12-07 12:37:2344.8704-122.5791113328215Clb=5.5m/s t=-60.0C h=1.2% p=14.2hPa 401.401 MHz Type=RS41-SGP ser=U2230867 Radiosonde
W7BDB-13U22308672022-12-07 12:37:1544.8705-122.579993128201Clb=7.3m/s p=14.2hPa t=-60.0C h=5.0% 401.40MHz Type=RS41-SGP Details on http://radiosondy.info
KJ7NUX-14U22308672022-12-07 12:37:1144.8705-122.58983128189Clb=6.5m/s p=14.3hPa t=-60.0C h=5.0% 401.40MHz Type=RS41-SGP Details on http://radiosondy.info
WA9ONY-10U22308672022-12-07 12:37:0944.8705-122.581043328181Clb=7.0m/s p=14.3hPa t=-60.0C h=5.1% 401.40MHz Type=RS41-SGP Join https://groups.io/g/Balloons
WA9ONY-14U22308672022-12-07 12:37:0644.8706-122.581063328175Clb=5.4m/s p=14.3hPa t=-59.9C h=5.1% 401.40MHz Type=RS41-SGP TxPastBurst=8h30m batt=2.5V Join https://groups.io/g/Balloons
k6gdp-12U22308672022-12-07 12:36:5944.8706-122.58983728151Clb=4.9m/s t=-59.8C h=1.1% p=14.4hPa 401.378 MHz Type=RS41-SGP ser=U2230867 Radiosonde
K6GDP-11U22308672022-12-07 12:36:5644.8706-122.5811023528146Clb=6.1m/s t=-59.7C h=1.1% p=14.4hPa 401.400 MHz Type=RS41-SGP ser=U2230867 Radiosonde
WA9ONY-10U22308672022-12-07 12:36:4744.8708-122.5811233328122Clb=6.1m/s p=14.4hPa t=-59.5C h=4.9% 401.40MHz Type=RS41-SGP TxPastBurst=8h30m batt=2.5V Join https://groups.io/g/Balloons
WA9ONY-14U22308672022-12-07 12:36:4444.8708-122.5811173328116Clb=6.5m/s p=14.5hPa t=-59.4C h=4.9% 401.40MHz Type=RS41-SGP Join https://groups.io/g/Balloons
W7BDB-13U22308672022-12-07 12:36:4044.8709-122.5811143328104Clb=5.3m/s p=14.5hPa t=-59.3C h=4.8% 401.40MHz Type=RS41-SGP batt=2.6V Details on http://radiosondy.info
KJ7NUX-14U22308672022-12-07 12:36:3644.8709-122.5811243328091Clb=6.9m/s p=14.5hPa t=-59.2C h=4.8% 401.40MHz Type=RS41-SGP batt=2.5V Details on http://radiosondy.info
WA9ONY-10U22308672022-12-07 12:36:2344.8711-122.5821073328060Clb=4.7m/s p=14.6hPa t=-59.1C h=4.8% 401.40MHz Type=RS41-SGP Join https://groups.io/g/Balloons
WA9ONY-14U22308672022-12-07 12:36:2044.8712-122.5821113328054Clb=7.0m/s p=14.6hPa t=-59.0C h=4.7% 401.40MHz Type=RS41-SGP Join https://groups.io/g/Balloons
KG7GDB-12U22308672022-12-07 12:36:1044.8713-122.5831063128015Clb=5.4m/s t=-59.0C h=1.1% p=14.7hPa 401.401 MHz Type=RS41-SGP ser=U2230867 Radiosonde
W7BDB-13U22308672022-12-07 12:36:0044.8714-122.5831203928002Clb=6.8m/s p=14.7hPa t=-58.8C h=4.7% 401.40MHz Type=RS41-SGP Details on http://radiosondy.info
WA9ONY-10U22308672022-12-07 12:35:5744.8714-122.5831213927996Clb=5.6m/s p=14.7hPa t=-58.8C h=4.6% 401.40MHz Type=RS41-SGP Join https://groups.io/g/Balloons
WA9ONY-14U22308672022-12-07 12:35:5544.8715-122.5831193927989Clb=7.6m/s p=14.7hPa t=-58.7C h=4.6% 401.40MHz Type=RS41-SGP batt=2.5V Join https://groups.io/g/Balloons
k6gdp-12U22308672022-12-07 12:35:4644.8717-122.5841074327951Clb=6.5m/s t=-58.6C h=1.0% p=14.9hPa 401.378 MHz Type=RS41-SGP ser=U2230867 Radiosonde
K6GDP-11U22308672022-12-07 12:35:4344.8717-122.5841074327951Clb=6.5m/s t=-58.6C h=1.0% p=14.9hPa 401.400 MHz Type=RS41-SGP ser=U2230867 Radiosonde
WA9ONY-10U22308672022-12-07 12:35:3744.8718-122.584993927932Clb=4.9m/s p=14.9hPa t=-58.4C h=4.4% 401.40MHz Type=RS41-SGP batt=2.6V Join https://groups.io/g/Balloons
WA9ONY-14U22308672022-12-07 12:35:3544.8718-122.5841033927925Clb=7.5m/s p=14.9hPa t=-58.4C h=4.4% 401.40MHz Type=RS41-SGP Join https://groups.io/g/Balloons
W7BDB-13U22308672022-12-07 12:35:2644.8719-122.5851134827899Clb=6.1m/s p=14.9hPa t=-58.4C h=4.4% 401.40MHz Type=RS41-SGP Details on http://radiosondy.info
KJ7NUX-14U22308672022-12-07 12:35:2244.872-122.5851225227886Clb=6.8m/s p=14.9hPa t=-58.6C h=4.5% 401.40MHz Type=RS41-SGP Details on http://radiosondy.info
WA9ONY-10U22308672022-12-07 12:35:1344.8721-122.5861155627868Clb=5.6m/s p=15.0hPa t=-58.8C h=4.6% 401.40MHz Type=RS41-SGP Join https://groups.io/g/Balloons
WA9ONY-14U22308672022-12-07 12:35:1144.8722-122.5861075627861Clb=7.5m/s p=15.0hPa t=-58.9C h=4.6% 401.40MHz Type=RS41-SGP Join https://groups.io/g/Balloons
KG7GDB-12U22308672022-12-07 12:34:5544.8724-122.5871035627825Clb=6.4m/s t=-59.2C h=1.1% p=15.2hPa 401.401 MHz Type=RS41-SGP ser=U2230867 Radiosonde
W7BDB-13U22308672022-12-07 12:34:4644.8725-122.5871074627807Clb=5.0m/s p=15.2hPa t=-59.0C h=4.8% 401.40MHz Type=RS41-SGP batt=2.5V Details on http://radiosondy.info
WA9ONY-10U22308672022-12-07 12:34:4544.8725-122.5871075027807Clb=5.0m/s p=15.2hPa t=-59.0C h=4.8% 401.40MHz Type=RS41-SGP Join https://groups.io/g/Balloons
WA9ONY-14U22308672022-12-07 12:34:4344.8725-122.5881114627800Clb=6.8m/s p=15.2hPa t=-59.0C h=4.8% 401.40MHz Type=RS41-SGP batt=2.6V Join https://groups.io/g/Balloons
KJ7NUX-14U22308672022-12-07 12:34:4044.8726-122.5881154427788Clb=5.4m/s p=15.2hPa t=-58.9C h=4.8% 401.40MHz Type=RS41-SGP TxPastBurst=8h30m batt=2.6V Details on http://radiosondy.info
K6GDP-11U22308672022-12-07 12:34:2744.8728-122.589923727757Clb=6.7m/s t=-58.7C h=1.1% p=15.3hPa 401.400 MHz Type=RS41-SGP ser=U2230867 Radiosonde
KE7WWCU22308672022-12-07 12:34:2544.8728-122.589943327751Clb=7.0m/s t=-58.6C h=1.1% p=15.4hPa 401.375 MHz Type=RS41-SGP ser=U2230867 Radiosonde
WA9ONY-10U22308672022-12-07 12:34:2144.8728-122.589984327744Clb=5.6m/s p=15.3hPa t=-58.5C h=4.7% 401.40MHz Type=RS41-SGP batt=2.6V Join https://groups.io/g/Balloons
WA9ONY-14U22308672022-12-07 12:34:1844.8728-122.589984327739Clb=5.6m/s p=15.4hPa t=-58.4C h=4.7% 401.40MHz Type=RS41-SGP Join https://groups.io/g/Balloons
W7BDB-13U22308672022-12-07 12:34:1144.8728-122.591063927712Clb=6.6m/s p=15.4hPa t=-58.2C h=4.6% 401.40MHz Type=RS41-SGP Details on http://radiosondy.info
KJ7NUX-14U22308672022-12-07 12:34:0244.873-122.591083927686Clb=7.5m/s p=15.5hPa t=-58.0C h=4.5% 401.40MHz Type=RS41-SGP Details on http://radiosondy.info
WA9ONY-10U22308672022-12-07 12:33:5944.873-122.591003527680Clb=6.4m/s p=15.5hPa t=-57.9C h=4.5% 401.40MHz Type=RS41-SGP Join https://groups.io/g/Balloons
WA9ONY-14U22308672022-12-07 12:33:5744.8731-122.591943527674Clb=5.2m/s p=15.5hPa t=-57.9C h=4.4% 401.40MHz Type=RS41-SGP Join https://groups.io/g/Balloons
KG7GDB-12U22308672022-12-07 12:33:4144.8731-122.591934127628Clb=5.5m/s t=-57.7C h=1.0% p=15.7hPa 401.401 MHz Type=RS41-SGP ser=U2230867 Radiosonde
W7BDB-13U22308672022-12-07 12:33:3444.8731-122.5921093727615Clb=6.8m/s p=15.7hPa t=-57.7C h=4.3% 401.40MHz Type=RS41-SGP Details on http://radiosondy.info
WA9ONY-10U22308672022-12-07 12:33:3344.8731-122.5921093927615Clb=6.8m/s p=15.7hPa t=-57.7C h=4.3% 401.40MHz Type=RS41-SGP Join https://groups.io/g/Balloons
WA9ONY-14U22308672022-12-07 12:33:3044.8731-122.5921133727609Clb=5.0m/s p=15.7hPa t=-57.7C h=4.3% 401.40MHz Type=RS41-SGP TxPastBurst=8h30m batt=2.6V Join https://groups.io/g/Balloons
KJ7NUX-14U22308672022-12-07 12:33:2244.8733-122.592953127585Clb=5.2m/s p=15.8hPa t=-58.1C h=4.5% 401.40MHz Type=RS41-SGP Details on http://radiosondy.info
K6GDP-11U22308672022-12-07 12:33:1444.8733-122.5931042427560Clb=6.4m/s t=-58.3C h=1.0% p=15.8hPa 401.400 MHz Type=RS41-SGP ser=U2230867 Radiosonde
WA9ONY-10U22308672022-12-07 12:33:1244.8733-122.5931063127554Clb=6.0m/s p=15.8hPa t=-58.3C h=4.6% 401.40MHz Type=RS41-SGP TxPastBurst=8h30m batt=2.5V Join https://groups.io/g/Balloons
WA9ONY-14U22308672022-12-07 12:33:1044.8733-122.5931033127548Clb=7.1m/s p=15.8hPa t=-58.3C h=4.5% 401.40MHz Type=RS41-SGP Join https://groups.io/g/Balloons
W7BDB-13U22308672022-12-07 12:32:5944.8734-122.5941103127516Clb=5.9m/s p=15.9hPa t=-58.3C h=4.5% 401.40MHz Type=RS41-SGP TxPastBurst=8h30m batt=2.5V Details on http://radiosondy.info
WA9ONY-10U22308672022-12-07 12:32:5044.8735-122.5941043127491Clb=4.9m/s p=16.0hPa t=-58.2C h=4.5% 401.40MHz Type=RS41-SGP Join https://groups.io/g/Balloons
KJ7NUX-14U22308672022-12-07 12:32:4944.8735-122.5941153327485Clb=7.5m/s p=16.0hPa t=-58.1C h=4.6% 401.40MHz Type=RS41-SGP batt=2.6V Details on http://radiosondy.info
WA9ONY-14U22308672022-12-07 12:32:4844.8735-122.5941153327485Clb=7.5m/s p=16.0hPa t=-58.1C h=4.6% 401.40MHz Type=RS41-SGP Join https://groups.io/g/Balloons
KG7GDB-12U22308672022-12-07 12:32:2944.8739-122.5951274127433Clb=6.3m/s t=-58.1C h=1.0% p=16.1hPa 401.401 MHz Type=RS41-SGP ser=U2230867 Radiosonde
WA9ONY-10U22308672022-12-07 12:32:2544.874-122.5951263327427Clb=5.0m/s p=16.1hPa t=-58.1C h=4.6% 401.40MHz Type=RS41-SGP Join https://groups.io/g/Balloons
W7BDB-13U22308672022-12-07 12:32:2344.874-122.5951213727421Clb=7.1m/s p=16.2hPa t=-58.1C h=4.5% 401.40MHz Type=RS41-SGP Details on http://radiosondy.info
WA9ONY-14U22308672022-12-07 12:32:2244.874-122.5951213327421Clb=7.1m/s p=16.2hPa t=-58.1C h=4.5% 401.40MHz Type=RS41-SGP batt=2.5V Join https://groups.io/g/Balloons
k6gdp-12U22308672022-12-07 12:32:0744.8744-122.5961343327369Clb=5.9m/s t=-58.0C h=1.0% p=16.3hPa 401.378 MHz Type=RS41-SGP ser=U2230867 Radiosonde
KJ7NUX-14U22308672022-12-07 12:32:0644.8744-122.5961353927369Clb=5.8m/s p=16.3hPa t=-57.9C h=4.5% 401.40MHz Type=RS41-SGP Details on http://radiosondy.info
WA9ONY-10U22308672022-12-07 12:32:0344.8745-122.5961344327364Clb=5.5m/s p=16.3hPa t=-57.9C h=4.4% 401.40MHz Type=RS41-SGP batt=2.5V Join https://groups.io/g/Balloons
WA9ONY-14U22308672022-12-07 12:32:0044.8745-122.5961344327357Clb=7.0m/s p=16.3hPa t=-58.0C h=4.4% 401.40MHz Type=RS41-SGP Join https://groups.io/g/Balloons
W7BDB-12U22308672022-12-07 12:31:5544.8749-122.5971134127324Clb=5.8m/s t=-58.1C h=1.0% p=16.4hPa 401.399 MHz Type=RS41-SGP ser=U2230867 Radiosonde
W7BDB-13U22308672022-12-07 12:31:4844.8749-122.5971133727319Clb=5.3m/s p=16.4hPa t=-58.1C h=4.5% 401.40MHz Type=RS41-SGP Details on http://radiosondy.info
WA9ONY-10U22308672022-12-07 12:31:4044.8751-122.5971253727300Clb=5.1m/s p=16.5hPa t=-58.1C h=4.6% 401.40MHz Type=RS41-SGP Join https://groups.io/g/Balloons
WA9ONY-14U22308672022-12-07 12:31:3844.8751-122.5971243727295Clb=5.5m/s p=16.5hPa t=-58.1C h=4.5% 401.40MHz Type=RS41-SGP Join https://groups.io/g/Balloons
KJ7NUX-14U22308672022-12-07 12:31:2944.8753-122.5981244127269Clb=7.3m/s p=16.5hPa t=-58.0C h=4.5% 401.40MHz Type=RS41-SGP Details on http://radiosondy.info
KG7GDB-12U22308672022-12-07 12:31:1444.8755-122.5981144127238Clb=4.9m/s t=-57.8C h=1.0% p=16.7hPa 401.401 MHz Type=RS41-SGP ser=U2230867 Radiosonde
WA9ONY-10U22308672022-12-07 12:31:1244.8755-122.5981154127238Clb=4.9m/s p=16.6hPa t=-57.7C h=4.4% 401.40MHz Type=RS41-SGP Join https://groups.io/g/Balloons
WA9ONY-14U22308672022-12-07 12:31:1044.8756-122.5981154127233Clb=4.7m/s p=16.6hPa t=-57.7C h=4.4% 401.40MHz Type=RS41-SGP batt=2.6V Join https://groups.io/g/Balloons
W7BDB-13U22308672022-12-07 12:31:0444.8757-122.5991224327220Clb=6.9m/s p=16.7hPa t=-57.7C h=4.5% 401.40MHz Type=RS41-SGP batt=2.5V Details on http://radiosondy.info
k6gdp-12U22308672022-12-07 12:30:4944.876-122.5991234127176Clb=6.1m/s t=-57.7C h=1.0% p=16.9hPa 401.378 MHz Type=RS41-SGP ser=U2230867 Radiosonde
WA9ONY-10U22308672022-12-07 12:30:4844.876-122.5991244427176Clb=6.0m/s p=16.8hPa t=-57.6C h=4.4% 401.40MHz Type=RS41-SGP batt=2.5V Join https://groups.io/g/Balloons
KJ7NUX-14U22308672022-12-07 12:30:4644.8761-122.61254327170Clb=5.0m/s p=16.8hPa t=-57.6C h=4.4% 401.40MHz Type=RS41-SGP batt=2.5V Details on http://radiosondy.info
WA9ONY-14U22308672022-12-07 12:30:4544.8761-122.61254427170Clb=5.0m/s p=16.8hPa t=-57.6C h=4.4% 401.40MHz Type=RS41-SGP Join https://groups.io/g/Balloons
W7BDB-13U22308672022-12-07 12:30:2644.8765-122.6011204627121Clb=5.8m/s p=16.9hPa t=-57.6C h=4.2% 401.40MHz Type=RS41-SGP Details on http://radiosondy.info
WA9ONY-10U22308672022-12-07 12:30:2544.8766-122.6011164327115Clb=7.3m/s p=17.0hPa t=-57.6C h=4.3% 401.40MHz Type=RS41-SGP Join https://groups.io/g/Balloons
WA9ONY-14U22308672022-12-07 12:30:2244.8766-122.6011134427109Clb=5.7m/s p=16.9hPa t=-57.5C h=4.2% 401.40MHz Type=RS41-SGP Join https://groups.io/g/Balloons
KJ7NUX-14U22308672022-12-07 12:30:0844.8769-122.6021184827071Clb=5.5m/s p=17.1hPa t=-57.7C h=4.3% 401.40MHz Type=RS41-SGP Details on http://radiosondy.info
WA9ONY-10U22308672022-12-07 12:29:5944.8771-122.6021285027053Clb=6.8m/s p=17.1hPa t=-58.0C h=4.4% 401.40MHz Type=RS41-SGP Join https://groups.io/g/Balloons
KG7GDB-12U22308672022-12-07 12:29:5744.8772-122.6021275627046Clb=5.5m/s t=-58.1C h=1.0% p=17.2hPa 401.401 MHz Type=RS41-SGP ser=U2230867 Radiosonde
WA9ONY-14U22308672022-12-07 12:29:5644.8772-122.6021285027046Clb=5.4m/s p=17.1hPa t=-58.1C h=4.4% 401.40MHz Type=RS41-SGP TxPastBurst=8h30m batt=2.5V Join https://groups.io/g/Balloons
W7BDB-13U22308672022-12-07 12:29:4744.8774-122.6031194827022Clb=5.8m/s p=17.2hPa t=-58.3C h=4.5% 401.40MHz Type=RS41-SGP Details on http://radiosondy.info
WA9ONY-10U22308672022-12-07 12:29:3544.8777-122.6041174826989Clb=6.3m/s p=17.3hPa t=-58.3C h=4.5% 401.40MHz Type=RS41-SGP TxPastBurst=8h30m batt=2.6V Join https://groups.io/g/Balloons
k6gdp-12U22308672022-12-07 12:29:3144.8778-122.6041154426984Clb=4.8m/s t=-58.3C h=1.0% p=17.3hPa 401.378 MHz Type=RS41-SGP ser=U2230867 Radiosonde
WA9ONY-14U22308672022-12-07 12:29:2944.8778-122.6041164826984Clb=4.7m/s p=17.3hPa t=-58.3C h=4.5% 401.40MHz Type=RS41-SGP Join https://groups.io/g/Balloons
K6GDP-11U22308672022-12-07 12:29:2844.8778-122.6041194626978Clb=5.6m/s t=-58.3C h=1.1% p=17.4hPa 401.400 MHz Type=RS41-SGP ser=U2230867 Radiosonde
KJ7NUX-14U22308672022-12-07 12:29:2544.8779-122.6041245426972Clb=7.0m/s p=17.3hPa t=-58.3C h=4.5% 401.40MHz Type=RS41-SGP Details on http://radiosondy.info
W7BDB-12U22308672022-12-07 12:29:1944.8782-122.6051124626941Clb=5.6m/s t=-58.2C h=1.0% p=17.5hPa 401.399 MHz Type=RS41-SGP ser=U2230867 Radiosonde
KE7WWCU22308672022-12-07 12:29:1644.8782-122.6051124626941Clb=5.6m/s t=-58.2C h=1.0% p=17.5hPa 401.375 MHz Type=RS41-SGP ser=U2230867 Radiosonde
WA9ONY-10U22308672022-12-07 12:29:1044.8783-122.6051135626929Clb=7.1m/s p=17.4hPa t=-58.1C h=4.4% 401.40MHz Type=RS41-SGP Join https://groups.io/g/Balloons
W7BDB-13U22308672022-12-07 12:29:0844.8784-122.6051125226923Clb=5.3m/s p=17.5hPa t=-58.1C h=4.4% 401.40MHz Type=RS41-SGP batt=2.5V Details on http://radiosondy.info
WA9ONY-14U22308672022-12-07 12:29:0744.8784-122.6051125626923Clb=5.3m/s p=17.5hPa t=-58.1C h=4.4% 401.40MHz Type=RS41-SGP Join https://groups.io/g/Balloons
KJ7NUX-14U22308672022-12-07 12:28:4944.8788-122.6071234826875Clb=7.2m/s p=17.6hPa t=-58.2C h=4.4% 401.40MHz Type=RS41-SGP TxPastBurst=8h30m batt=2.5V Details on http://radiosondy.info
WA9ONY-10U22308672022-12-07 12:28:4644.8789-122.6071224426868Clb=6.8m/s p=17.6hPa t=-58.2C h=4.4% 401.40MHz Type=RS41-SGP Join https://groups.io/g/Balloons
WA9ONY-14U22308672022-12-07 12:28:4444.8789-122.6071184626861Clb=5.9m/s p=17.6hPa t=-58.2C h=4.4% 401.40MHz Type=RS41-SGP batt=2.6V Join https://groups.io/g/Balloons
KG7GDB-12U22308672022-12-07 12:28:4344.879-122.6071173926855Clb=7.0m/s t=-58.2C h=1.0% p=17.7hPa 401.401 MHz Type=RS41-SGP ser=U2230867 Radiosonde
W7BDB-13U22308672022-12-07 12:28:3244.8791-122.6081004826832Clb=6.9m/s p=17.7hPa t=-58.2C h=4.4% 401.40MHz Type=RS41-SGP Details on http://radiosondy.info
WA9ONY-10U22308672022-12-07 12:28:2144.8792-122.6081124826807Clb=5.8m/s p=17.8hPa t=-58.3C h=4.4% 401.40MHz Type=RS41-SGP batt=2.5V Join https://groups.io/g/Balloons
WA9ONY-14U22308672022-12-07 12:28:1944.8793-122.6081134826802Clb=4.6m/s p=17.8hPa t=-58.4C h=4.4% 401.40MHz Type=RS41-SGP Join https://groups.io/g/Balloons
k6gdp-12U22308672022-12-07 12:28:1844.8793-122.6091105226796Clb=6.7m/s t=-58.5C h=1.0% p=17.9hPa 401.378 MHz Type=RS41-SGP ser=U2230867 Radiosonde
K6GDP-11U22308672022-12-07 12:28:1644.8794-122.6091084826789Clb=6.5m/s t=-58.5C h=1.0% p=17.9hPa 401.400 MHz Type=RS41-SGP ser=U2230867 Radiosonde
KJ7NUX-14U22308672022-12-07 12:28:1044.8794-122.6091084426777Clb=6.3m/s p=17.9hPa t=-58.5C h=4.5% 401.40MHz Type=RS41-SGP Details on http://radiosondy.info
WA9ONY-10U22308672022-12-07 12:27:5544.8796-122.61954326745Clb=5.6m/s p=18.0hPa t=-58.8C h=4.7% 401.40MHz Type=RS41-SGP Join https://groups.io/g/Balloons
WA9ONY-14U22308672022-12-07 12:27:5344.8796-122.61974326739Clb=6.1m/s p=18.0hPa t=-58.8C h=4.6% 401.40MHz Type=RS41-SGP Join https://groups.io/g/Balloons
W7BDB-13U22308672022-12-07 12:27:5144.8796-122.611014326732Clb=6.8m/s p=18.0hPa t=-58.7C h=4.6% 401.40MHz Type=RS41-SGP Details on http://radiosondy.info
WA9ONY-10U22308672022-12-07 12:27:3044.8798-122.6111074326684Clb=5.6m/s p=18.2hPa t=-58.5C h=4.5% 401.40MHz Type=RS41-SGP Join https://groups.io/g/Balloons
KJ7NUX-14U22308672022-12-07 12:27:2944.8798-122.6111053926677Clb=7.3m/s p=18.2hPa t=-58.6C h=4.4% 401.40MHz Type=RS41-SGP Details on http://radiosondy.info
WA9ONY-14U22308672022-12-07 12:27:2844.8798-122.6111054126677Clb=7.3m/s p=18.2hPa t=-58.6C h=4.4% 401.40MHz Type=RS41-SGP batt=2.5V Join https://groups.io/g/Balloons
KG7GDB-12U22308672022-12-07 12:27:2344.8799-122.6121074126659Clb=6.9m/s t=-58.9C h=1.0% p=18.3hPa 401.401 MHz Type=RS41-SGP ser=U2230867 Radiosonde
W7BDB-13U22308672022-12-07 12:27:0744.8801-122.6121093926635Clb=7.1m/s p=18.3hPa t=-58.8C h=4.5% 401.40MHz Type=RS41-SGP TxPastBurst=8h30m batt=2.5V Details on http://radiosondy.info
WA9ONY-10U22308672022-12-07 12:27:0244.8801-122.6131083926623Clb=5.2m/s p=18.4hPa t=-58.9C h=4.6% 401.40MHz Type=RS41-SGP batt=2.6V Join https://groups.io/g/Balloons
WA9ONY-14U22308672022-12-07 12:27:0044.8801-122.6131123926617Clb=6.9m/s p=18.3hPa t=-59.0C h=4.6% 401.40MHz Type=RS41-SGP Join https://groups.io/g/Balloons
k6gdp-12U22308672022-12-07 12:26:5744.8802-122.6131193726605Clb=5.0m/s t=-59.1C h=1.1% p=18.4hPa 401.378 MHz Type=RS41-SGP ser=U2230867 Radiosonde
K6GDP-11U22308672022-12-07 12:26:5544.8803-122.6131153726599Clb=6.5m/s t=-59.2C h=1.1% p=18.4hPa 401.400 MHz Type=RS41-SGP ser=U2230867 Radiosonde
KJ7NUX-14U22308672022-12-07 12:26:4744.8804-122.6141043726581Clb=5.3m/s p=18.5hPa t=-59.2C h=4.7% 401.40MHz Type=RS41-SGP batt=2.6V Details on http://radiosondy.info
WA9ONY-10U22308672022-12-07 12:26:3944.8804-122.6141043526563Clb=5.1m/s p=18.5hPa t=-59.1C h=4.7% 401.40MHz Type=RS41-SGP Join https://groups.io/g/Balloons
WA9ONY-14U22308672022-12-07 12:26:3744.8805-122.614993526557Clb=5.7m/s p=18.5hPa t=-59.2C h=4.7% 401.40MHz Type=RS41-SGP Join https://groups.io/g/Balloons
W7BDB-13U22308672022-12-07 12:26:3044.8805-122.615813726538Clb=5.4m/s p=18.6hPa t=-59.2C h=4.7% 401.40MHz Type=RS41-SGP Details on http://radiosondy.info
WA9ONY-10U22308672022-12-07 12:26:1444.8804-122.615783926500Clb=6.6m/s p=18.7hPa t=-59.4C h=4.8% 401.40MHz Type=RS41-SGP Join https://groups.io/g/Balloons
WA9ONY-14U22308672022-12-07 12:26:1244.8804-122.615774126494Clb=4.9m/s p=18.7hPa t=-59.5C h=4.8% 401.40MHz Type=RS41-SGP TxPastBurst=8h30m batt=2.6V Join https://groups.io/g/Balloons
KJ7NUX-14U22308672022-12-07 12:26:0844.8804-122.616843726482Clb=7.2m/s p=18.7hPa t=-59.5C h=4.8% 401.40MHz Type=RS41-SGP Details on http://radiosondy.info
KG7GDB-12U22308672022-12-07 12:26:0544.8804-122.616853926475Clb=5.5m/s t=-59.4C h=1.1% p=18.8hPa 401.401 MHz Type=RS41-SGP ser=U2230867 Radiosonde
W7BDB-13U22308672022-12-07 12:25:5244.8802-122.616693926444Clb=7.4m/s p=18.9hPa t=-59.2C h=4.6% 401.40MHz Type=RS41-SGP Details on http://radiosondy.info
WA9ONY-10U22308672022-12-07 12:25:5044.8802-122.617683526437Clb=6.0m/s p=18.9hPa t=-59.1C h=4.6% 401.40MHz Type=RS41-SGP TxPastBurst=8h30m batt=2.5V Join https://groups.io/g/Balloons
WA9ONY-14U22308672022-12-07 12:25:4744.8802-122.617653526432Clb=5.1m/s p=18.9hPa t=-59.1C h=4.6% 401.40MHz Type=RS41-SGP Join https://groups.io/g/Balloons
k6gdp-12U22308672022-12-07 12:25:4244.88-122.617603326414Clb=5.2m/s t=-59.1C h=1.0% p=19.0hPa 401.378 MHz Type=RS41-SGP ser=U2230867 Radiosonde
K6GDP-11U22308672022-12-07 12:25:3944.88-122.617663126408Clb=6.7m/s t=-59.0C h=1.0% p=19.0hPa 401.400 MHz Type=RS41-SGP ser=U2230867 Radiosonde
KJ7NUX-14U22308672022-12-07 12:25:3144.8799-122.618823526384Clb=7.5m/s p=19.1hPa t=-59.0C h=4.4% 401.40MHz Type=RS41-SGP Details on http://radiosondy.info
WA9ONY-10U22308672022-12-07 12:25:2844.8799-122.618813726377Clb=5.4m/s p=19.1hPa t=-59.1C h=4.4% 401.40MHz Type=RS41-SGP Join https://groups.io/g/Balloons
WA9ONY-14U22308672022-12-07 12:25:2544.8799-122.618823526372Clb=4.5m/s p=19.1hPa t=-59.1C h=4.3% 401.40MHz Type=RS41-SGP Join https://groups.io/g/Balloons
W7BDB-13U22308672022-12-07 12:25:1544.8799-122.618833526348Clb=7.3m/s p=19.2hPa t=-59.4C h=4.5% 401.40MHz Type=RS41-SGP batt=2.5V Details on http://radiosondy.info
WA9ONY-10U22308672022-12-07 12:25:0044.8799-122.6191093726316Clb=5.2m/s p=19.2hPa t=-59.9C h=4.6% 401.40MHz Type=RS41-SGP Join https://groups.io/g/Balloons
WA9ONY-14U22308672022-12-07 12:24:5744.8799-122.6191073726312Clb=6.5m/s p=19.3hPa t=-59.9C h=4.7% 401.40MHz Type=RS41-SGP batt=2.5V Join https://groups.io/g/Balloons
KJ7NUX-14U22308672022-12-07 12:24:4644.8799-122.621073026288Clb=7.0m/s p=19.3hPa t=-60.1C h=4.6% 401.40MHz Type=RS41-SGP batt=2.6V Details on http://radiosondy.info
WA9ONY-10U22308672022-12-07 12:24:3344.8801-122.621012226260Clb=4.1m/s p=19.4hPa t=-60.5C h=4.8% 401.40MHz Type=RS41-SGP batt=2.5V Join https://groups.io/g/Balloons
WA9ONY-14U22308672022-12-07 12:24:3044.8801-122.621052026255Clb=5.3m/s p=19.4hPa t=-60.5C h=4.8% 401.40MHz Type=RS41-SGP Join https://groups.io/g/Balloons
K6GDP-11U22308672022-12-07 12:24:1944.8802-122.621841526219Clb=4.7m/s t=-61.0C h=1.2% p=19.6hPa 401.400 MHz Type=RS41-SGP ser=U2230867 Radiosonde
WA9ONY-10U22308672022-12-07 12:24:1144.8802-122.6211063026202Clb=6.4m/s p=19.6hPa t=-61.1C h=5.1% 401.40MHz Type=RS41-SGP Join https://groups.io/g/Balloons
WA9ONY-14U22308672022-12-07 12:24:0944.8802-122.6211092826196Clb=5.2m/s p=19.6hPa t=-61.1C h=5.1% 401.40MHz Type=RS41-SGP Join https://groups.io/g/Balloons
W7BDB-13U22308672022-12-07 12:24:0144.8804-122.6221332426166Clb=7.2m/s p=19.7hPa t=-61.5C h=5.3% 401.40MHz Type=RS41-SGP Details on http://radiosondy.info
WA9ONY-10U22308672022-12-07 12:23:5644.8806-122.6221602226141Clb=5.5m/s p=19.8hPa t=-61.3C h=5.2% 401.40MHz Type=RS41-SGP Join https://groups.io/g/Balloons
WA9ONY-14U22308672022-12-07 12:23:5544.8806-122.6221562426136Clb=5.0m/s p=19.8hPa t=-61.3C h=5.2% 401.40MHz Type=RS41-SGP batt=2.6V Join https://groups.io/g/Balloons
KG7GDB-12U22308672022-12-07 12:23:5344.8807-122.6221082626106Clb=6.8m/s t=-61.2C h=1.2% p=20.0hPa 401.401 MHz Type=RS41-SGP ser=U2230867 Radiosonde
k6gdp-12U22308672022-12-07 12:23:5244.8811-122.6231302026044Clb=5.2m/s t=-60.9C h=1.2% p=20.2hPa 401.378 MHz Type=RS41-SGP ser=U2230867 Radiosonde
K6GDP-11U22308672022-12-07 12:23:5144.8811-122.6231132026032Clb=7.8m/s t=-60.8C h=1.2% p=20.2hPa 401.400 MHz Type=RS41-SGP ser=U2230867 Radiosonde
WA9ONY-10U22308672022-12-07 12:23:4944.8812-122.6231083126020Clb=5.5m/s p=20.2hPa t=-60.7C h=5.1% 401.40MHz Type=RS41-SGP Join https://groups.io/g/Balloons
WA9ONY-14U22308672022-12-07 12:23:4844.8812-122.6231133126014Clb=6.9m/s p=20.2hPa t=-60.6C h=5.0% 401.40MHz Type=RS41-SGP Join https://groups.io/g/Balloons
KJ7NUX-14U22308672022-12-07 12:23:4644.8813-122.6231153026001Clb=6.0m/s p=20.2hPa t=-60.6C h=5.0% 401.40MHz Type=RS41-SGP TxPastBurst=8h30m batt=2.6V Details on http://radiosondy.info
W7BDB-13U22308672022-12-07 12:23:4244.8814-122.6241253325976Clb=6.9m/s p=20.3hPa t=-60.5C h=5.0% 401.40MHz Type=RS41-SGP Details on http://radiosondy.info
KE7WWCU22308672022-12-07 12:23:4144.8815-122.6241323125970Clb=4.8m/s t=-60.6C h=1.2% p=20.4hPa 401.375 MHz Type=RS41-SGP ser=U2230867 Radiosonde
WA9ONY-10U22308672022-12-07 12:23:3744.8816-122.6241302825960Clb=7.4m/s p=20.4hPa t=-60.5C h=5.0% 401.40MHz Type=RS41-SGP Join https://groups.io/g/Balloons
WA9ONY-14U22308672022-12-07 12:23:3544.8816-122.6241223025952Clb=7.0m/s p=20.4hPa t=-60.6C h=5.0% 401.40MHz Type=RS41-SGP TxPastBurst=8h30m batt=2.6V Join https://groups.io/g/Balloons
KG7GDB-12U22308672022-12-07 12:23:2644.8818-122.6251233325916Clb=6.2m/s t=-60.7C h=1.2% p=20.6hPa 401.401 MHz Type=RS41-SGP ser=U2230867 Radiosonde
KJ7NUX-14U22308672022-12-07 12:23:2344.8819-122.6251193925903Clb=5.3m/s p=20.6hPa t=-60.6C h=5.1% 401.40MHz Type=RS41-SGP Details on http://radiosondy.info
WA9ONY-10U22308672022-12-07 12:23:2144.8819-122.6251203925899Clb=4.3m/s p=20.6hPa t=-60.6C h=5.1% 401.40MHz Type=RS41-SGP TxPastBurst=8h30m batt=2.5V Join https://groups.io/g/Balloons
WA9ONY-14U22308672022-12-07 12:23:2044.882-122.6251253725893Clb=6.3m/s p=20.6hPa t=-60.6C h=5.0% 401.40MHz Type=RS41-SGP Join https://groups.io/g/Balloons
W7BDB-13U22308672022-12-07 12:23:1644.8821-122.6251283925881Clb=5.1m/s p=20.6hPa t=-60.6C h=5.0% 401.40MHz Type=RS41-SGP Details on http://radiosondy.info
k6gdp-12U22308672022-12-07 12:23:1144.8823-122.6261053525849Clb=7.1m/s t=-60.6C h=1.2% p=20.8hPa 401.378 MHz Type=RS41-SGP ser=U2230867 Radiosonde
K6GDP-11U22308672022-12-07 12:23:0844.8823-122.6261073525843Clb=5.5m/s t=-60.6C h=1.2% p=20.8hPa 401.400 MHz Type=RS41-SGP ser=U2230867 Radiosonde
WA9ONY-10U22308672022-12-07 12:23:0644.8823-122.6261064125838Clb=5.1m/s p=20.8hPa t=-60.5C h=5.0% 401.40MHz Type=RS41-SGP Join https://groups.io/g/Balloons
WA9ONY-14U22308672022-12-07 12:23:0544.8823-122.6261064125832Clb=7.6m/s p=20.8hPa t=-60.5C h=5.0% 401.40MHz Type=RS41-SGP Join https://groups.io/g/Balloons
KJ7NUX-14U22308672022-12-07 12:23:0144.8825-122.6271174125806Clb=6.8m/s p=20.9hPa t=-60.4C h=5.0% 401.40MHz Type=RS41-SGP Details on http://radiosondy.info
KE7WWCU22308672022-12-07 12:22:5744.8827-122.6271124325781Clb=6.1m/s t=-60.3C h=1.2% p=21.1hPa 401.375 MHz Type=RS41-SGP ser=U2230867 Radiosonde
WA9ONY-10U22308672022-12-07 12:22:5644.8827-122.6281144325775Clb=5.3m/s p=21.0hPa t=-60.2C h=4.9% 401.40MHz Type=RS41-SGP Join https://groups.io/g/Balloons
WA9ONY-14U22308672022-12-07 12:22:5544.8827-122.6281164125769Clb=7.2m/s p=21.0hPa t=-60.2C h=4.9% 401.40MHz Type=RS41-SGP batt=2.5V Join https://groups.io/g/Balloons
KG7GDB-12U22308672022-12-07 12:22:5144.883-122.6291083725724Clb=7.0m/s t=-60.3C h=1.1% p=21.2hPa 401.401 MHz Type=RS41-SGP ser=U2230867 Radiosonde
k6gdp-12U22308672022-12-07 12:22:5044.8836-122.631183925650Clb=5.4m/s t=-60.7C h=1.2% p=21.5hPa 401.378 MHz Type=RS41-SGP ser=U2230867 Radiosonde
WA9ONY-10U22308672022-12-07 12:22:4944.8836-122.631193525650Clb=5.3m/s p=21.4hPa t=-60.6C h=5.1% 401.40MHz Type=RS41-SGP Join https://groups.io/g/Balloons
W7BDB-12U22308672022-12-07 12:22:4844.8838-122.6311103125612Clb=5.5m/s t=-60.6C h=1.2% p=21.6hPa 401.399 MHz Type=RS41-SGP ser=U2230867 Radiosonde
KJ7NUX-14U22308672022-12-07 12:22:4744.8838-122.6311163525606Clb=6.8m/s p=21.6hPa t=-60.6C h=5.1% 401.40MHz Type=RS41-SGP Details on http://radiosondy.info
KE7WWCU22308672022-12-07 12:22:4644.884-122.6311283525580Clb=7.1m/s t=-60.5C h=1.2% p=21.7hPa 401.375 MHz Type=RS41-SGP ser=U2230867 Radiosonde
WA9ONY-14U22308672022-12-07 12:22:4544.884-122.6311293725580Clb=7.1m/s p=21.7hPa t=-60.4C h=5.0% 401.40MHz Type=RS41-SGP batt=2.6V Join https://groups.io/g/Balloons
KG7GDB-12U22308672022-12-07 12:22:4244.8845-122.6321223125529Clb=5.6m/s t=-60.2C h=1.2% p=21.9hPa 401.401 MHz Type=RS41-SGP ser=U2230867 Radiosonde
WA9ONY-10U22308672022-12-07 12:22:3844.8846-122.6321333525517Clb=5.6m/s p=21.9hPa t=-60.2C h=4.9% 401.40MHz Type=RS41-SGP batt=2.6V Join https://groups.io/g/Balloons
KJ7NUX-14U22308672022-12-07 12:22:3644.8847-122.6331313525505Clb=6.9m/s p=21.9hPa t=-60.2C h=4.9% 401.40MHz Type=RS41-SGP Details on http://radiosondy.info
W7BDB-13U22308672022-12-07 12:22:2744.8849-122.6331353325486Clb=6.9m/s p=22.0hPa t=-60.3C h=4.9% 401.40MHz Type=RS41-SGP batt=2.6V Details on http://radiosondy.info
k6gdp-12U22308672022-12-07 12:22:2144.8851-122.6331363725468Clb=6.7m/s t=-60.3C h=1.2% p=22.1hPa 401.378 MHz Type=RS41-SGP ser=U2230867 Radiosonde
K6GDP-11U22308672022-12-07 12:22:1944.8852-122.6331223125455Clb=5.4m/s t=-60.3C h=1.2% p=22.1hPa 401.400 MHz Type=RS41-SGP ser=U2230867 Radiosonde
WA9ONY-14U22308672022-12-07 12:22:1744.8852-122.6331233325455Clb=5.4m/s p=22.1hPa t=-60.2C h=4.9% 401.40MHz Type=RS41-SGP Join https://groups.io/g/Balloons
KJ7NUX-14U22308672022-12-07 12:21:5844.8855-122.6341193125408Clb=5.6m/s p=22.3hPa t=-60.2C h=4.9% 401.40MHz Type=RS41-SGP batt=2.6V Details on http://radiosondy.info
WA9ONY-14U22308672022-12-07 12:21:5144.9061-122.681575222150Clb=5.8m/s p=37.6hPa t=-60.2C h=4.9% 401.40MHz Type=RS41-SGP Join https://groups.io/g/Balloons
KG7GDB-12U22308672022-12-07 12:21:4744.9064-122.6811475222133Clb=5.8m/s t=-60.2C h=1.2% p=37.8hPa 401.401 MHz Type=RS41-SGP ser=U2230867 Radiosonde
WA9ONY-10U22308672022-12-07 12:21:3844.9068-122.6811535022111Clb=4.4m/s p=37.8hPa t=-60.1C h=4.9% 401.40MHz Type=RS41-SGP Join https://groups.io/g/Balloons
KJ7NUX-14U22308672022-12-07 12:21:3644.907-122.6811545022107Clb=4.6m/s p=37.8hPa t=-60.1C h=4.9% 401.40MHz Type=RS41-SGP batt=2.6V Details on http://radiosondy.info
W7BDB-13U22308672022-12-07 12:21:3344.9072-122.6811505022096Clb=5.8m/s p=37.9hPa t=-60.1C h=4.9% 401.40MHz Type=RS41-SGP Details on http://radiosondy.info
WA9ONY-14U22308672022-12-07 12:21:3244.9072-122.6811504822096Clb=5.8m/s p=37.9hPa t=-60.1C h=4.9% 401.40MHz Type=RS41-SGP batt=2.6V Join https://groups.io/g/Balloons
k6gdp-12U22308672022-12-07 12:21:2844.9074-122.6821485022085Clb=5.0m/s t=-60.1C h=1.2% p=38.0hPa 401.378 MHz Type=RS41-SGP ser=U2230867 Radiosonde
K6GDP-11U22308672022-12-07 12:21:2644.9076-122.6821494422073Clb=5.0m/s t=-60.0C h=1.2% p=38.1hPa 401.400 MHz Type=RS41-SGP ser=U2230867 Radiosonde
WA9ONY-10U22308672022-12-07 12:21:1944.9079-122.6821344822057Clb=5.5m/s p=38.2hPa t=-60.1C h=5.0% 401.40MHz Type=RS41-SGP batt=2.7V Join https://groups.io/g/Balloons
WA9ONY-14U22308672022-12-07 12:21:1244.9081-122.6821354822041Clb=4.8m/s p=38.3hPa t=-60.0C h=5.0% 401.40MHz Type=RS41-SGP Join https://groups.io/g/Balloons
KJ7NUX-14U22308672022-12-07 12:21:0544.9085-122.6831374822019Clb=5.5m/s p=38.4hPa t=-59.9C h=4.9% 401.40MHz Type=RS41-SGP Details on http://radiosondy.info
W7BDB-13U22308672022-12-07 12:21:0244.9086-122.6831424622013Clb=7.0m/s p=38.4hPa t=-59.9C h=4.9% 401.40MHz Type=RS41-SGP batt=2.6V Details on http://radiosondy.info
WA9ONY-10U22308672022-12-07 12:20:5744.9088-122.6831424822002Clb=5.8m/s p=38.5hPa t=-59.8C h=4.9% 401.40MHz Type=RS41-SGP Join https://groups.io/g/Balloons
WA9ONY-14U22308672022-12-07 12:20:4944.909-122.6841414821986Clb=6.4m/s p=38.6hPa t=-59.7C h=4.9% 401.40MHz Type=RS41-SGP Join https://groups.io/g/Balloons
KG7GDB-12U22308672022-12-07 12:20:4344.9095-122.6841415021957Clb=5.5m/s t=-59.6C h=1.2% p=38.8hPa 401.401 MHz Type=RS41-SGP ser=U2230867 Radiosonde
WA9ONY-10U22308672022-12-07 12:20:3444.9097-122.6841474421946Clb=4.6m/s p=38.8hPa t=-59.5C h=4.7% 401.40MHz Type=RS41-SGP Join https://groups.io/g/Balloons
WA9ONY-14U22308672022-12-07 12:20:2844.91-122.6851444821929Clb=4.9m/s p=38.9hPa t=-59.6C h=4.8% 401.40MHz Type=RS41-SGP batt=2.6V Join https://groups.io/g/Balloons
W7BDB-13U22308672022-12-07 12:20:2544.9101-122.6851474821924Clb=6.8m/s p=39.0hPa t=-59.6C h=4.9% 401.40MHz Type=RS41-SGP Details on http://radiosondy.info
k6gdp-12U22308672022-12-07 12:20:2044.9102-122.6851454321912Clb=4.7m/s t=-59.7C h=1.2% p=39.1hPa 401.378 MHz Type=RS41-SGP ser=U2230867 Radiosonde
K6GDP-11U22308672022-12-07 12:20:1744.9104-122.6851394821901Clb=4.9m/s t=-59.7C h=1.2% p=39.1hPa 401.400 MHz Type=RS41-SGP ser=U2230867 Radiosonde
WA9ONY-10U22308672022-12-07 12:20:1344.9106-122.6851435221890Clb=5.7m/s p=39.2hPa t=-59.6C h=4.9% 401.40MHz Type=RS41-SGP batt=2.6V Join https://groups.io/g/Balloons
WA9ONY-14U22308672022-12-07 12:20:0744.9109-122.6861374821874Clb=5.7m/s p=39.3hPa t=-59.5C h=4.9% 401.40MHz Type=RS41-SGP Join https://groups.io/g/Balloons
KE7WWCU22308672022-12-07 12:20:0244.9112-122.6861424821859Clb=6.0m/s t=-59.5C h=1.2% p=39.4hPa 401.375 MHz Type=RS41-SGP ser=U2230867 Radiosonde
WA9ONY-10U22308672022-12-07 12:19:5444.9116-122.6861455221839Clb=6.1m/s p=39.5hPa t=-59.3C h=4.7% 401.40MHz Type=RS41-SGP Join https://groups.io/g/Balloons
KJ7NUX-14U22308672022-12-07 12:19:5244.9117-122.6861435221833Clb=5.1m/s p=39.6hPa t=-59.3C h=4.8% 401.40MHz Type=RS41-SGP TxPastBurst=8h30m batt=2.5V Details on http://radiosondy.info
WA9ONY-14U22308672022-12-07 12:19:4644.9119-122.6871475421823Clb=6.1m/s p=39.6hPa t=-59.3C h=4.7% 401.40MHz Type=RS41-SGP Join https://groups.io/g/Balloons
KG7GDB-12U22308672022-12-07 12:19:3644.9125-122.6871415421789Clb=5.2m/s t=-59.3C h=1.2% p=39.9hPa 401.401 MHz Type=RS41-SGP ser=U2230867 Radiosonde
WA9ONY-10U22308672022-12-07 12:19:2844.9126-122.6871415421784Clb=4.2m/s p=39.9hPa t=-59.2C h=4.7% 401.40MHz Type=RS41-SGP Join https://groups.io/g/Balloons
WA9ONY-14U22308672022-12-07 12:19:2044.9129-122.6881395621767Clb=4.7m/s p=40.0hPa t=-59.1C h=4.7% 401.40MHz Type=RS41-SGP TxPastBurst=8h30m batt=2.6V Join https://groups.io/g/Balloons
W7BDB-13U22308672022-12-07 12:19:1344.9132-122.6881455921752Clb=4.6m/s p=40.1hPa t=-59.1C h=4.7% 401.40MHz Type=RS41-SGP TxPastBurst=8h30m batt=2.6V Details on http://radiosondy.info
KJ7NUX-14U22308672022-12-07 12:19:1244.9133-122.6881435921746Clb=6.1m/s p=40.1hPa t=-59.0C h=4.7% 401.40MHz Type=RS41-SGP Details on http://radiosondy.info
k6gdp-12U22308672022-12-07 12:19:1144.9134-122.6881405921740Clb=4.5m/s t=-59.1C h=1.2% p=40.2hPa 401.378 MHz Type=RS41-SGP ser=U2230867 Radiosonde
K6GDP-11U22308672022-12-07 12:19:0844.9136-122.6881385921736Clb=5.1m/s t=-59.1C h=1.2% p=40.2hPa 401.400 MHz Type=RS41-SGP ser=U2230867 Radiosonde
WA9ONY-10U22308672022-12-07 12:19:0444.9137-122.6891396121731Clb=6.0m/s p=40.2hPa t=-59.0C h=4.7% 401.40MHz Type=RS41-SGP TxPastBurst=8h30m batt=2.6V Join https://groups.io/g/Balloons
WA9ONY-14U22308672022-12-07 12:18:5744.914-122.6891375921713Clb=5.2m/s p=40.3hPa t=-59.0C h=4.7% 401.40MHz Type=RS41-SGP Join https://groups.io/g/Balloons
KE7WWCU22308672022-12-07 12:18:5144.9145-122.691405621693Clb=4.3m/s t=-59.0C h=1.2% p=40.5hPa 401.375 MHz Type=RS41-SGP ser=U2230867 Radiosonde
WA9ONY-10U22308672022-12-07 12:18:4344.9148-122.691355721677Clb=4.6m/s p=40.5hPa t=-59.0C h=4.7% 401.40MHz Type=RS41-SGP Join https://groups.io/g/Balloons
W7BDB-13U22308672022-12-07 12:18:3844.915-122.691305421665Clb=5.5m/s p=40.6hPa t=-59.0C h=4.7% 401.40MHz Type=RS41-SGP Details on http://radiosondy.info
KJ7NUX-14U22308672022-12-07 12:18:3544.9151-122.691285621660Clb=5.7m/s p=40.7hPa t=-59.0C h=4.6% 401.40MHz Type=RS41-SGP Details on http://radiosondy.info
KG7GDB-12U22308672022-12-07 12:18:2244.9156-122.6911385421628Clb=4.5m/s t=-59.0C h=1.2% p=40.9hPa 401.401 MHz Type=RS41-SGP ser=U2230867 Radiosonde
WA9ONY-10U22308672022-12-07 12:18:1844.9157-122.6921405421623Clb=5.9m/s p=40.9hPa t=-59.0C h=4.7% 401.40MHz Type=RS41-SGP Join https://groups.io/g/Balloons
WA9ONY-14U22308672022-12-07 12:18:1344.916-122.6921365421607Clb=6.1m/s p=41.0hPa t=-58.9C h=4.6% 401.40MHz Type=RS41-SGP batt=2.6V Join https://groups.io/g/Balloons
W7BDB-13U22308672022-12-07 12:18:0344.9164-122.6931215621579Clb=4.4m/s p=41.2hPa t=-58.8C h=4.5% 401.40MHz Type=RS41-SGP Details on http://radiosondy.info
KJ7NUX-14U22308672022-12-07 12:18:0244.9165-122.6931225621574Clb=5.4m/s p=41.2hPa t=-58.7C h=4.5% 401.40MHz Type=RS41-SGP batt=2.7V Details on http://radiosondy.info
K6GDP-11U22308672022-12-07 12:18:0044.9165-122.6931245621569Clb=5.6m/s t=-58.8C h=1.1% p=41.3hPa 401.400 MHz Type=RS41-SGP ser=U2230867 Radiosonde
WA9ONY-10U22308672022-12-07 12:17:5944.9165-122.6931255621569Clb=5.6m/s p=41.2hPa t=-58.7C h=4.5% 401.40MHz Type=RS41-SGP batt=2.6V Join https://groups.io/g/Balloons
WA9ONY-14U22308672022-12-07 12:17:5344.9168-122.6931335421553Clb=4.7m/s p=41.4hPa t=-58.8C h=4.5% 401.40MHz Type=RS41-SGP Join https://groups.io/g/Balloons
WA9ONY-10U22308672022-12-07 12:17:4044.9174-122.6941265621516Clb=5.5m/s p=41.6hPa t=-59.0C h=4.6% 401.40MHz Type=RS41-SGP Join https://groups.io/g/Balloons
WA9ONY-14U22308672022-12-07 12:17:3444.9177-122.6951245221499Clb=6.3m/s p=41.7hPa t=-59.0C h=4.5% 401.40MHz Type=RS41-SGP Join https://groups.io/g/Balloons
W7BDB-13U22308672022-12-07 12:17:3244.9177-122.6951255021494Clb=5.6m/s p=41.8hPa t=-59.1C h=4.6% 401.40MHz Type=RS41-SGP batt=2.7V Details on http://radiosondy.info
KJ7NUX-14U22308672022-12-07 12:17:3144.9178-122.6951265021489Clb=3.9m/s p=41.8hPa t=-59.2C h=4.6% 401.40MHz Type=RS41-SGP Details on http://radiosondy.info
KG7GDB-12U22308672022-12-07 12:17:2144.9182-122.6961264621463Clb=5.8m/s t=-59.4C h=1.2% p=42.0hPa 401.401 MHz Type=RS41-SGP ser=U2230867 Radiosonde
WA9ONY-10U22308672022-12-07 12:17:2044.9182-122.6961274821463Clb=5.7m/s p=41.9hPa t=-59.4C h=4.7% 401.40MHz Type=RS41-SGP Join https://groups.io/g/Balloons
WA9ONY-14U22308672022-12-07 12:17:1444.9184-122.6961285021447Clb=6.5m/s p=42.1hPa t=-59.3C h=4.7% 401.40MHz Type=RS41-SGP batt=2.7V Join https://groups.io/g/Balloons
k6gdp-12U22308672022-12-07 12:17:0344.9189-122.6971255421409Clb=4.7m/s t=-59.3C h=1.2% p=42.3hPa 401.378 MHz Type=RS41-SGP ser=U2230867 Radiosonde
W7BDB-13U22308672022-12-07 12:17:0044.9189-122.6971265021409Clb=4.6m/s p=42.3hPa t=-59.2C h=4.6% 401.40MHz Type=RS41-SGP Details on http://radiosondy.info
K6GDP-11U22308672022-12-07 12:16:5944.919-122.6981245421405Clb=4.3m/s t=-59.3C h=1.2% p=42.4hPa 401.400 MHz Type=RS41-SGP ser=U2230867 Radiosonde
WA9ONY-14U22308672022-12-07 12:16:5544.9191-122.6981215021393Clb=5.1m/s p=42.4hPa t=-59.2C h=4.6% 401.40MHz Type=RS41-SGP Join https://groups.io/g/Balloons
W7BDB-12U22308672022-12-07 12:16:5444.9194-122.6981154621372Clb=6.1m/s t=-59.4C h=1.2% p=42.6hPa 401.399 MHz Type=RS41-SGP ser=U2230867 Radiosonde
WA9ONY-10U22308672022-12-07 12:16:4444.9195-122.6991184821358Clb=5.4m/s p=42.7hPa t=-59.4C h=4.8% 401.40MHz Type=RS41-SGP Join https://groups.io/g/Balloons
WA9ONY-14U22308672022-12-07 12:16:3644.9197-122.6991195021343Clb=5.3m/s p=42.8hPa t=-59.4C h=4.7% 401.40MHz Type=RS41-SGP Join https://groups.io/g/Balloons
W7BDB-13U22308672022-12-07 12:16:3144.9199-122.71175621328Clb=4.3m/s p=42.9hPa t=-59.5C h=4.7% 401.40MHz Type=RS41-SGP Details on http://radiosondy.info
KJ7NUX-14U22308672022-12-07 12:16:2944.9199-122.71195621322Clb=6.0m/s p=42.9hPa t=-59.6C h=4.8% 401.40MHz Type=RS41-SGP batt=2.6V Details on http://radiosondy.info
KG7GDB-12U22308672022-12-07 12:16:2344.9202-122.7011195421295Clb=4.3m/s t=-59.8C h=1.3% p=43.1hPa 401.401 MHz Type=RS41-SGP ser=U2230867 Radiosonde
WA9ONY-14U22308672022-12-07 12:16:1844.9203-122.7011225721291Clb=6.4m/s p=43.1hPa t=-59.7C h=4.8% 401.40MHz Type=RS41-SGP TxPastBurst=8h30m batt=2.7V Join https://groups.io/g/Balloons
WA9ONY-10U22308672022-12-07 12:16:0644.9208-122.7021165021254Clb=5.3m/s p=43.4hPa t=-59.8C h=4.7% 401.40MHz Type=RS41-SGP TxPastBurst=8h30m batt=2.6V Join https://groups.io/g/Balloons
W7BDB-13U22308672022-12-07 12:16:0244.9209-122.7031135221242Clb=6.2m/s p=43.5hPa t=-59.8C h=4.7% 401.40MHz Type=RS41-SGP batt=2.5V Details on http://radiosondy.info
KJ7NUX-14U22308672022-12-07 12:16:0144.921-122.7031135221236Clb=4.5m/s p=43.5hPa t=-59.8C h=4.8% 401.40MHz Type=RS41-SGP Details on http://radiosondy.info
WA9ONY-14U22308672022-12-07 12:16:0044.921-122.7031135221236Clb=4.5m/s p=43.5hPa t=-59.8C h=4.8% 401.40MHz Type=RS41-SGP Join https://groups.io/g/Balloons
WA9ONY-10U22308672022-12-07 12:15:4944.9213-122.7041145621200Clb=5.0m/s p=43.8hPa t=-59.9C h=4.8% 401.40MHz Type=RS41-SGP Join https://groups.io/g/Balloons
WA9ONY-14U22308672022-12-07 12:15:4244.9215-122.7041115621185Clb=4.6m/s p=43.8hPa t=-60.0C h=5.0% 401.40MHz Type=RS41-SGP Join https://groups.io/g/Balloons
W7BDB-13U22308672022-12-07 12:15:3444.9217-122.7051105621158Clb=4.8m/s p=44.1hPa t=-60.1C h=5.0% 401.40MHz Type=RS41-SGP Details on http://radiosondy.info
KJ7NUX-14U22308672022-12-07 12:15:3344.9218-122.7051115621153Clb=4.8m/s p=44.1hPa t=-60.2C h=5.0% 401.40MHz Type=RS41-SGP Details on http://radiosondy.info
WA9ONY-10U22308672022-12-07 12:15:3044.9218-122.7061105721148Clb=4.8m/s p=44.1hPa t=-60.2C h=5.0% 401.40MHz Type=RS41-SGP Join https://groups.io/g/Balloons
KG7GDB-12U22308672022-12-07 12:15:2844.9219-122.7061075621138Clb=4.9m/s t=-60.2C h=1.4% p=44.2hPa 401.401 MHz Type=RS41-SGP ser=U2230867 Radiosonde
WA9ONY-14U22308672022-12-07 12:15:2544.9219-122.7061095621133Clb=5.5m/s p=44.2hPa t=-60.2C h=4.9% 401.40MHz Type=RS41-SGP batt=2.7V Join https://groups.io/g/Balloons
WA9ONY-10U22308672022-12-07 12:15:1244.9222-122.7081005221097Clb=5.8m/s p=44.5hPa t=-60.3C h=4.9% 401.40MHz Type=RS41-SGP batt=2.6V Join https://groups.io/g/Balloons
k6gdp-12U22308672022-12-07 12:15:1044.9222-122.7081015021086Clb=5.1m/s t=-60.5C h=1.4% p=44.6hPa 401.378 MHz Type=RS41-SGP ser=U2230867 Radiosonde
K6GDP-11U22308672022-12-07 12:15:0844.9223-122.7081015221081Clb=5.2m/s t=-60.6C h=1.4% p=44.6hPa 401.400 MHz Type=RS41-SGP ser=U2230867 Radiosonde
WA9ONY-14U22308672022-12-07 12:15:0744.9223-122.7081024821081Clb=5.1m/s p=44.6hPa t=-60.5C h=5.0% 401.40MHz Type=RS41-SGP Join https://groups.io/g/Balloons
W7BDB-13U22308672022-12-07 12:15:0644.9223-122.7081014621075Clb=6.3m/s p=44.6hPa t=-60.6C h=5.0% 401.40MHz Type=RS41-SGP Details on http://radiosondy.info
W7BDB-13U22308672022-12-07 12:09:0844.9223-122.7081014621075Clb=6.3m/s p=44.6hPa t=-60.6C h=5.0% 401.40MHz Type=RS41-SGP Details on http://radiosondy.info
W7BDB-13U22308672022-12-07 12:07:0444.9229-122.725682620413Clb=4.4m/s p=49.7hPa t=-61.7C h=5.5% 401.40MHz Type=RS41-SGP Details on http://radiosondy.info
KJ7NUX-14U22308672022-12-07 12:06:5944.9231-122.7281613019890Clb=5.7m/s p=54.0hPa t=-60.7C h=5.3% 401.40MHz Type=RS41-SGP Details on http://radiosondy.info
WA9ONY-10U22308672022-12-07 12:06:5344.9233-122.7281572819874Clb=6.4m/s p=54.1hPa t=-60.6C h=5.2% 401.40MHz Type=RS41-SGP Join https://groups.io/g/Balloons
WA9ONY-14U22308672022-12-07 12:06:4844.9235-122.7281493119857Clb=6.0m/s p=54.3hPa t=-60.5C h=5.2% 401.40MHz Type=RS41-SGP TxPastBurst=8h30m batt=2.6V Join https://groups.io/g/Balloons
W7BDB-13U22308672022-12-07 12:06:4544.9236-122.7281523319846Clb=4.9m/s p=54.4hPa t=-60.5C h=5.2% 401.40MHz Type=RS41-SGP Details on http://radiosondy.info
WA9ONY-10U22308672022-12-07 12:06:3144.924-122.7281533119819Clb=4.0m/s p=54.6hPa t=-60.4C h=5.2% 401.40MHz Type=RS41-SGP TxPastBurst=8h30m batt=2.6V Join https://groups.io/g/Balloons
KJ7NUX-14U22308672022-12-07 12:06:2544.9242-122.7281503719803Clb=5.0m/s p=54.7hPa t=-60.3C h=5.1% 401.40MHz Type=RS41-SGP batt=2.7V Details on http://radiosondy.info
WA9ONY-14U22308672022-12-07 12:06:2444.9242-122.7281503119803Clb=5.0m/s p=54.7hPa t=-60.3C h=5.1% 401.40MHz Type=RS41-SGP Join https://groups.io/g/Balloons
WA9ONY-10U22308672022-12-07 12:06:1044.9246-122.7291344319763Clb=5.6m/s p=55.1hPa t=-60.4C h=5.2% 401.40MHz Type=RS41-SGP Join https://groups.io/g/Balloons
W7BDB-13U22308672022-12-07 12:05:0244.9246-122.7291344119763Clb=5.6m/s p=55.1hPa t=-60.4C h=5.2% 401.40MHz Type=RS41-SGP batt=2.6V Details on http://radiosondy.info
WA9ONY-14U22308672022-12-07 12:04:5944.9269-122.7321274419580Clb=5.8m/s p=56.7hPa t=-62.1C h=5.5% 401.40MHz Type=RS41-SGP Join https://groups.io/g/Balloons
WA9ONY-10U22308672022-12-07 12:04:4544.9274-122.7331264619543Clb=5.7m/s p=57.1hPa t=-62.5C h=5.8% 401.40MHz Type=RS41-SGP Join https://groups.io/g/Balloons
KJ7NUX-14U22308672022-12-07 12:04:4344.9275-122.7331214419537Clb=5.5m/s p=57.2hPa t=-62.5C h=5.8% 401.40MHz Type=RS41-SGP TxPastBurst=8h30m batt=2.6V Details on http://radiosondy.info
WA9ONY-14U22308672022-12-07 12:04:3944.9276-122.7331174619525Clb=5.1m/s p=57.2hPa t=-62.4C h=5.8% 401.40MHz Type=RS41-SGP batt=2.6V Join https://groups.io/g/Balloons
W7BDB-13U22308672022-12-07 12:04:2844.9278-122.7341204819499Clb=5.3m/s p=57.5hPa t=-62.3C h=5.7% 401.40MHz Type=RS41-SGP TxPastBurst=8h30m batt=2.6V Details on http://radiosondy.info
WA9ONY-10U22308672022-12-07 12:04:2344.9279-122.7341164619489Clb=5.9m/s p=57.6hPa t=-62.2C h=5.8% 401.40MHz Type=RS41-SGP batt=2.7V Join https://groups.io/g/Balloons
WA9ONY-14U22308672022-12-07 12:04:1744.9281-122.7351105019472Clb=6.6m/s p=57.8hPa t=-62.1C h=5.7% 401.40MHz Type=RS41-SGP Join https://groups.io/g/Balloons
KJ7NUX-14U22308672022-12-07 12:04:0944.9282-122.7351094619449Clb=5.2m/s p=58.0hPa t=-61.9C h=5.6% 401.40MHz Type=RS41-SGP Details on http://radiosondy.info
WA9ONY-10U22308672022-12-07 12:04:0244.9283-122.7361134419432Clb=5.2m/s p=58.1hPa t=-61.8C h=5.5% 401.40MHz Type=RS41-SGP Join https://groups.io/g/Balloons
K6GDP-11U22308672022-12-07 12:03:5944.9285-122.7371084419415Clb=6.5m/s t=-61.7C h=1.6% p=58.3hPa 401.400 MHz Type=RS41-SGP ser=U2230867 Radiosonde
W7BDB-13U22308672022-12-07 12:03:5844.9285-122.7371074419410Clb=5.6m/s p=58.4hPa t=-61.6C h=5.5% 401.40MHz Type=RS41-SGP Details on http://radiosondy.info
W7BDB-12U22308672022-12-07 12:03:5544.9286-122.7371044319376Clb=5.0m/s t=-61.5C h=1.6% p=58.7hPa 401.399 MHz Type=RS41-SGP ser=U2230867 Radiosonde
WA9ONY-10U22308672022-12-07 12:03:5244.9286-122.7371054619376Clb=5.0m/s p=58.7hPa t=-61.4C h=5.5% 401.40MHz Type=RS41-SGP Join https://groups.io/g/Balloons
KJ7NUX-14U22308672022-12-07 12:03:4944.9287-122.7381064619359Clb=4.7m/s p=58.8hPa t=-61.4C h=5.4% 401.40MHz Type=RS41-SGP Details on http://radiosondy.info
W7BDB-13U22308672022-12-07 12:03:4544.9289-122.7391034619322Clb=6.5m/s p=59.2hPa t=-61.2C h=5.3% 401.40MHz Type=RS41-SGP Details on http://radiosondy.info
WA9ONY-14U22308672022-12-07 12:03:4444.929-122.739984819305Clb=5.1m/s p=59.4hPa t=-61.4C h=5.4% 401.40MHz Type=RS41-SGP Join https://groups.io/g/Balloons
KJ7NUX-14U22308672022-12-07 12:03:4344.9291-122.74994419273Clb=4.8m/s p=59.6hPa t=-61.7C h=5.5% 401.40MHz Type=RS41-SGP batt=2.6V Details on http://radiosondy.info
WA9ONY-10U22308672022-12-07 12:03:4044.9291-122.7411004319269Clb=4.3m/s p=59.7hPa t=-61.6C h=5.5% 401.40MHz Type=RS41-SGP Join https://groups.io/g/Balloons
k6gdp-12U22308672022-12-07 12:03:3644.9292-122.7411014119252Clb=6.4m/s t=-61.7C h=1.6% p=59.9hPa 401.378 MHz Type=RS41-SGP ser=U2230867 Radiosonde
K6GDP-11U22308672022-12-07 12:03:3544.9292-122.7411004119246Clb=4.9m/s t=-61.7C h=1.6% p=60.0hPa 401.400 MHz Type=RS41-SGP ser=U2230867 Radiosonde
W7BDB-13U22308672022-12-07 12:03:3344.9292-122.7411024319241Clb=4.6m/s p=59.9hPa t=-61.6C h=5.5% 401.40MHz Type=RS41-SGP batt=2.6V Details on http://radiosondy.info
WA9ONY-10U22308672022-12-07 12:03:2944.9293-122.742944319216Clb=3.6m/s p=60.2hPa t=-61.6C h=5.6% 401.40MHz Type=RS41-SGP Join https://groups.io/g/Balloons
WA9ONY-14U22308672022-12-07 12:03:2644.9293-122.743924319199Clb=4.7m/s p=60.3hPa t=-61.5C h=5.5% 401.40MHz Type=RS41-SGP batt=2.7V Join https://groups.io/g/Balloons
KJ7NUX-14U22308672022-12-07 12:03:2544.9293-122.743914419189Clb=4.4m/s p=60.5hPa t=-61.4C h=5.5% 401.40MHz Type=RS41-SGP Details on http://radiosondy.info
W7BDB-13U22308672022-12-07 12:03:2044.9294-122.744984419162Clb=4.5m/s p=60.7hPa t=-61.2C h=5.4% 401.40MHz Type=RS41-SGP Details on http://radiosondy.info
WA9ONY-10U22308672022-12-07 12:03:1944.9294-122.744984419162Clb=4.5m/s p=60.7hPa t=-61.2C h=5.4% 401.40MHz Type=RS41-SGP batt=2.6V Join https://groups.io/g/Balloons
WA9ONY-14U22308672022-12-07 12:03:1644.9294-122.7441004619148Clb=4.8m/s p=60.9hPa t=-61.1C h=5.4% 401.40MHz Type=RS41-SGP Join https://groups.io/g/Balloons
KG7GDB-12U22308672022-12-07 12:03:1344.9295-122.744924419135Clb=5.0m/s t=-61.1C h=1.6% p=61.0hPa 401.401 MHz Type=RS41-SGP ser=U2230867 Radiosonde
WA9ONY-10U22308672022-12-07 12:03:0544.9295-122.745894319110Clb=4.7m/s p=61.2hPa t=-60.8C h=5.3% 401.40MHz Type=RS41-SGP Join https://groups.io/g/Balloons
KJ7NUX-14U22308672022-12-07 12:03:0444.9295-122.745924319105Clb=4.9m/s p=61.3hPa t=-60.8C h=5.4% 401.40MHz Type=RS41-SGP Details on http://radiosondy.info
WA9ONY-14U22308672022-12-07 12:03:0144.9295-122.746984419095Clb=4.8m/s p=61.4hPa t=-60.7C h=5.3% 401.40MHz Type=RS41-SGP Join https://groups.io/g/Balloons
k6gdp-12U22308672022-12-07 12:03:0044.9295-122.746994119088Clb=5.3m/s t=-60.7C h=1.6% p=61.5hPa 401.378 MHz Type=RS41-SGP ser=U2230867 Radiosonde
K6GDP-11U22308672022-12-07 12:02:5844.9295-122.746963919083Clb=5.6m/s t=-60.7C h=1.6% p=61.5hPa 401.400 MHz Type=RS41-SGP ser=U2230867 Radiosonde
W7BDB-13U22308672022-12-07 12:02:5644.9295-122.746974119077Clb=4.1m/s p=61.5hPa t=-60.6C h=5.4% 401.40MHz Type=RS41-SGP Details on http://radiosondy.info
k6gdp-12U22308672022-12-07 12:02:5344.9298-122.761822418459Clb=6.0m/s t=-58.5C h=1.4% p=68.0hPa 401.378 MHz Type=RS41-SGP ser=U2230867 Radiosonde
W7BDB-13U22308672022-12-07 12:02:5244.9296-122.763822818357Clb=3.7m/s p=69.0hPa t=-59.1C h=5.0% 401.40MHz Type=RS41-SGP Details on http://radiosondy.info
KG7GDB-12U22308672022-12-07 12:02:5144.9296-122.764863318351Clb=5.9m/s t=-59.1C h=1.5% p=69.2hPa 401.401 MHz Type=RS41-SGP ser=U2230867 Radiosonde
k6gdp-12U22308672022-12-07 12:02:5044.9296-122.764782618300Clb=5.4m/s t=-58.7C h=1.4% p=69.7hPa 401.378 MHz Type=RS41-SGP ser=U2230867 Radiosonde
WA9ONY-14U22308672022-12-07 12:02:4944.9295-122.766793018234Clb=4.9m/s p=70.4hPa t=-58.8C h=4.8% 401.40MHz Type=RS41-SGP Join https://groups.io/g/Balloons
WA9ONY-14U22308672022-12-07 12:02:4644.9295-122.767972818183Clb=4.7m/s p=71.0hPa t=-58.7C h=4.8% 401.40MHz Type=RS41-SGP Join https://groups.io/g/Balloons
WA9ONY-10U22308672022-12-07 12:02:3844.9295-122.767853118147Clb=4.7m/s p=71.3hPa t=-58.8C h=4.8% 401.40MHz Type=RS41-SGP Join https://groups.io/g/Balloons
K6GDP-11U22308672022-12-07 12:02:3744.9295-122.768923018137Clb=5.8m/s t=-58.9C h=1.5% p=71.5hPa 401.400 MHz Type=RS41-SGP ser=U2230867 Radiosonde
KJ7NUX-14U22308672022-12-07 12:02:3544.9295-122.768973318132Clb=4.2m/s p=71.5hPa t=-58.9C h=4.8% 401.40MHz Type=RS41-SGP Details on http://radiosondy.info
W7BDB-13U22308672022-12-07 12:02:3144.9295-122.768973318116Clb=3.8m/s p=71.7hPa t=-59.0C h=4.9% 401.40MHz Type=RS41-SGP Details on http://radiosondy.info
WA9ONY-10U22308672022-12-07 12:02:2444.9295-122.769903518097Clb=5.9m/s p=72.0hPa t=-59.0C h=4.9% 401.40MHz Type=RS41-SGP batt=2.7V Join https://groups.io/g/Balloons
WA9ONY-14U22308672022-12-07 12:02:2044.9295-122.769833318080Clb=5.5m/s p=72.1hPa t=-59.1C h=4.9% 401.40MHz Type=RS41-SGP Join https://groups.io/g/Balloons
KJ7NUX-14U22308672022-12-07 12:02:1244.9294-122.77943118048Clb=3.9m/s p=72.5hPa t=-59.2C h=5.0% 401.40MHz Type=RS41-SGP TxPastBurst=8h30m batt=2.6V Details on http://radiosondy.info
WA9ONY-10U22308672022-12-07 12:02:0844.9294-122.77913318043Clb=5.6m/s p=72.5hPa t=-59.2C h=5.0% 401.40MHz Type=RS41-SGP Join https://groups.io/g/Balloons
W7BDB-13U22308672022-12-07 12:02:0744.9294-122.77903118038Clb=5.0m/s p=72.6hPa t=-59.2C h=5.0% 401.40MHz Type=RS41-SGP TxPastBurst=8h30m batt=2.7V Details on http://radiosondy.info
KG7GDB-12U22308672022-12-07 12:02:0644.9294-122.77913118033Clb=3.6m/s t=-59.3C h=1.6% p=72.7hPa 401.401 MHz Type=RS41-SGP ser=U2230867 Radiosonde
WA9ONY-14U22308672022-12-07 12:02:0444.9294-122.77953118028Clb=6.0m/s p=72.7hPa t=-59.2C h=5.0% 401.40MHz Type=RS41-SGP Join https://groups.io/g/Balloons
WA9ONY-10U22308672022-12-07 12:02:0044.9294-122.771893017992Clb=4.6m/s p=73.2hPa t=-59.2C h=5.0% 401.40MHz Type=RS41-SGP Join https://groups.io/g/Balloons
KJ7NUX-14U22308672022-12-07 12:01:5944.9294-122.771943117965Clb=4.4m/s p=73.4hPa t=-59.0C h=5.0% 401.40MHz Type=RS41-SGP Details on http://radiosondy.info
W7BDB-13U22308672022-12-07 11:59:1644.9294-122.772953117960Clb=4.9m/s p=73.5hPa t=-59.1C h=4.9% 401.40MHz Type=RS41-SGP Details on http://radiosondy.info
WA9ONY-10U22308672022-12-07 11:59:1444.9327-122.801984816848Clb=6.1m/s p=87.8hPa t=-59.7C h=5.3% 401.40MHz Type=RS41-SGP Join https://groups.io/g/Balloons
KJ7NUX-14U22308672022-12-07 11:59:1244.9327-122.801974816842Clb=4.7m/s p=87.9hPa t=-59.7C h=5.3% 401.40MHz Type=RS41-SGP batt=2.6V Details on http://radiosondy.info
WA9ONY-14U22308672022-12-07 11:59:0444.9328-122.8011004816832Clb=3.5m/s p=88.0hPa t=-59.8C h=5.4% 401.40MHz Type=RS41-SGP Join https://groups.io/g/Balloons
KE7WWCU22308672022-12-07 11:59:0044.9328-122.802914816801Clb=5.4m/s t=-59.7C h=1.9% p=88.5hPa 401.375 MHz Type=RS41-SGP ser=U2230867 Radiosonde
W7BDB-13U22308672022-12-07 11:58:5144.9328-122.802924816801Clb=5.4m/s p=88.5hPa t=-59.7C h=5.4% 401.40MHz Type=RS41-SGP Details on http://radiosondy.info
KG7GDB-12U22308672022-12-07 11:58:4944.9328-122.803884816791Clb=4.5m/s t=-59.7C h=1.9% p=88.6hPa 401.401 MHz Type=RS41-SGP ser=U2230867 Radiosonde
WA9ONY-14U22308672022-12-07 11:58:4344.9328-122.803904816781Clb=3.9m/s p=88.7hPa t=-59.6C h=5.3% 401.40MHz Type=RS41-SGP batt=2.6V Join https://groups.io/g/Balloons
KJ7NUX-14U22308672022-12-07 11:58:3444.9328-122.804894816759Clb=5.4m/s p=89.0hPa t=-59.5C h=5.4% 401.40MHz Type=RS41-SGP Details on http://radiosondy.info
k6gdp-12U22308672022-12-07 11:58:2944.9328-122.804855016744Clb=4.6m/s t=-59.5C h=1.9% p=89.3hPa 401.378 MHz Type=RS41-SGP ser=U2230867 Radiosonde
WA9ONY-10U22308672022-12-07 11:58:2844.9328-122.804864816744Clb=4.5m/s p=89.3hPa t=-59.5C h=5.3% 401.40MHz Type=RS41-SGP batt=2.6V Join https://groups.io/g/Balloons
K6GDP-11U22308672022-12-07 11:58:2744.9328-122.804884816739Clb=5.3m/s t=-59.5C h=1.9% p=89.4hPa 401.400 MHz Type=RS41-SGP ser=U2230867 Radiosonde
WA9ONY-14U22308672022-12-07 11:58:2244.9328-122.805864616729Clb=4.3m/s p=89.5hPa t=-59.4C h=5.4% 401.40MHz Type=RS41-SGP Join https://groups.io/g/Balloons
W7BDB-12U22308672022-12-07 11:58:2044.9327-122.805804616709Clb=5.0m/s t=-59.4C h=1.8% p=89.8hPa 401.399 MHz Type=RS41-SGP ser=U2230867 Radiosonde
WA9ONY-10U22308672022-12-07 11:58:0844.9326-122.806744816694Clb=5.5m/s p=90.0hPa t=-59.4C h=5.3% 401.40MHz Type=RS41-SGP Join https://groups.io/g/Balloons
KJ7NUX-14U22308672022-12-07 11:58:0044.9325-122.806794416678Clb=4.6m/s p=90.2hPa t=-59.4C h=5.3% 401.40MHz Type=RS41-SGP Details on http://radiosondy.info
WA9ONY-14U22308672022-12-07 11:57:5944.9325-122.806794616678Clb=4.6m/s p=90.2hPa t=-59.4C h=5.3% 401.40MHz Type=RS41-SGP Join https://groups.io/g/Balloons
KE7WWCU22308672022-12-07 11:57:5244.9324-122.807794616659Clb=4.8m/s t=-59.5C h=1.9% p=90.5hPa 401.375 MHz Type=RS41-SGP ser=U2230867 Radiosonde
WA9ONY-10U22308672022-12-07 11:57:4344.9324-122.808814116645Clb=4.2m/s p=90.7hPa t=-59.4C h=5.3% 401.40MHz Type=RS41-SGP Join https://groups.io/g/Balloons
W7BDB-13U22308672022-12-07 11:57:4244.9323-122.808794116640Clb=5.6m/s p=90.7hPa t=-59.4C h=5.4% 401.40MHz Type=RS41-SGP TxPastBurst=8h30m batt=2.6V Details on http://radiosondy.info
KG7GDB-12U22308672022-12-07 11:57:4144.9323-122.808774416634Clb=4.1m/s t=-59.5C h=1.9% p=90.9hPa 401.401 MHz Type=RS41-SGP ser=U2230867 Radiosonde
WA9ONY-14U22308672022-12-07 11:57:3644.9323-122.808753916630Clb=4.6m/s p=90.9hPa t=-59.4C h=5.4% 401.40MHz Type=RS41-SGP TxPastBurst=8h30m batt=2.7V Join https://groups.io/g/Balloons
KJ7NUX-14U22308672022-12-07 11:57:2244.9321-122.809784316600Clb=4.6m/s p=91.3hPa t=-59.3C h=5.2% 401.40MHz Type=RS41-SGP TxPastBurst=8h30m batt=2.6V Details on http://radiosondy.info
WA9ONY-10U22308672022-12-07 11:57:1944.9321-122.809794416595Clb=5.9m/s p=91.4hPa t=-59.4C h=5.3% 401.40MHz Type=RS41-SGP TxPastBurst=8h30m batt=2.6V Join https://groups.io/g/Balloons
k6gdp-12U22308672022-12-07 11:57:1844.9321-122.809793716589Clb=4.9m/s t=-59.4C h=1.9% p=91.5hPa 401.378 MHz Type=RS41-SGP ser=U2230867 Radiosonde
K6GDP-11U22308672022-12-07 11:57:1544.9321-122.809774316578Clb=4.4m/s t=-59.5C h=1.9% p=91.8hPa 401.400 MHz Type=RS41-SGP ser=U2230867 Radiosonde
WA9ONY-14U22308672022-12-07 11:57:1344.9321-122.809784616578Clb=4.4m/s p=91.7hPa t=-59.5C h=5.3% 401.40MHz Type=RS41-SGP Join https://groups.io/g/Balloons
W7BDB-13U22308672022-12-07 11:57:0244.932-122.81804316552Clb=4.3m/s p=92.1hPa t=-59.4C h=5.3% 401.40MHz Type=RS41-SGP Details on http://radiosondy.info
WA9ONY-10U22308672022-12-07 11:56:5644.9319-122.81824316541Clb=5.8m/s p=92.2hPa t=-59.5C h=5.4% 401.40MHz Type=RS41-SGP Join https://groups.io/g/Balloons
WA9ONY-14U22308672022-12-07 11:56:4944.9319-122.811744316525Clb=5.6m/s p=92.4hPa t=-59.5C h=5.4% 401.40MHz Type=RS41-SGP Join https://groups.io/g/Balloons
KJ7NUX-14U22308672022-12-07 11:56:4644.9318-122.811744316517Clb=4.1m/s p=92.5hPa t=-59.6C h=5.4% 401.40MHz Type=RS41-SGP Details on http://radiosondy.info
WA9ONY-10U22308672022-12-07 11:56:3444.9317-122.812834116489Clb=5.1m/s p=92.9hPa t=-59.6C h=5.5% 401.40MHz Type=RS41-SGP Join https://groups.io/g/Balloons
KG7GDB-12U22308672022-12-07 11:56:3044.9317-122.812794116475Clb=4.8m/s t=-59.7C h=1.9% p=93.2hPa 401.401 MHz Type=RS41-SGP ser=U2230867 Radiosonde
W7BDB-13U22308672022-12-07 11:56:2944.9317-122.812804116474Clb=4.8m/s p=93.2hPa t=-59.6C h=5.4% 401.40MHz Type=RS41-SGP Details on http://radiosondy.info
WA9ONY-14U22308672022-12-07 11:56:2844.9317-122.812804116474Clb=4.8m/s p=93.2hPa t=-59.6C h=5.4% 401.40MHz Type=RS41-SGP batt=2.6V Join https://groups.io/g/Balloons
WA9ONY-10U22308672022-12-07 11:56:1444.9315-122.813744116438Clb=4.7m/s p=93.7hPa t=-59.4C h=5.3% 401.40MHz Type=RS41-SGP batt=2.7V Join https://groups.io/g/Balloons
KJ7NUX-14U22308672022-12-07 11:56:1244.9315-122.813783916432Clb=5.3m/s p=93.8hPa t=-59.4C h=5.3% 401.40MHz Type=RS41-SGP Details on http://radiosondy.info
k6gdp-12U22308672022-12-07 11:56:1044.9314-122.814793916427Clb=4.7m/s t=-59.4C h=1.8% p=93.9hPa 401.378 MHz Type=RS41-SGP ser=U2230867 Radiosonde
WA9ONY-14U22308672022-12-07 11:56:0844.9314-122.814824116422Clb=5.9m/s p=94.0hPa t=-59.3C h=5.2% 401.40MHz Type=RS41-SGP Join https://groups.io/g/Balloons
W7BDB-13U22308672022-12-07 11:55:5944.9314-122.815773716397Clb=4.5m/s p=94.4hPa t=-59.2C h=5.3% 401.40MHz Type=RS41-SGP batt=2.6V Details on http://radiosondy.info
WA9ONY-10U22308672022-12-07 11:55:5544.9313-122.815683716387Clb=4.7m/s p=94.5hPa t=-59.1C h=5.2% 401.40MHz Type=RS41-SGP Join https://groups.io/g/Balloons
WA9ONY-14U22308672022-12-07 11:55:4844.9312-122.815673716372Clb=3.9m/s p=94.7hPa t=-59.0C h=5.2% 401.40MHz Type=RS41-SGP Join https://groups.io/g/Balloons
KJ7NUX-14U22308672022-12-07 11:55:4344.9311-122.816753716351Clb=5.0m/s p=95.0hPa t=-58.9C h=5.1% 401.40MHz Type=RS41-SGP batt=2.7V Details on http://radiosondy.info
KE7WWCU22308672022-12-07 11:55:3944.931-122.816743916341Clb=5.2m/s t=-59.0C h=1.8% p=95.2hPa 401.375 MHz Type=RS41-SGP ser=U2230867 Radiosonde
WA9ONY-10U22308672022-12-07 11:55:3644.931-122.816723716336Clb=4.4m/s p=95.3hPa t=-58.9C h=5.1% 401.40MHz Type=RS41-SGP Join https://groups.io/g/Balloons
WA9ONY-14U22308672022-12-07 11:55:3044.9309-122.816773716319Clb=6.0m/s p=95.5hPa t=-59.1C h=5.2% 401.40MHz Type=RS41-SGP batt=2.6V Join https://groups.io/g/Balloons
KG7GDB-12U22308672022-12-07 11:55:2944.9309-122.817783716314Clb=4.7m/s t=-59.1C h=1.8% p=95.6hPa 401.401 MHz Type=RS41-SGP ser=U2230867 Radiosonde
WA9ONY-10U22308672022-12-07 11:55:1644.9308-122.817843516283Clb=4.8m/s p=96.1hPa t=-58.9C h=5.2% 401.40MHz Type=RS41-SGP batt=2.7V Join https://groups.io/g/Balloons
KJ7NUX-14U22308672022-12-07 11:55:1144.9308-122.818743716266Clb=6.0m/s p=96.3hPa t=-58.8C h=5.2% 401.40MHz Type=RS41-SGP Details on http://radiosondy.info
K6GDP-11U22308672022-12-07 11:55:0944.9307-122.818743516256Clb=5.2m/s t=-58.8C h=1.8% p=96.5hPa 401.400 MHz Type=RS41-SGP ser=U2230867 Radiosonde
W7BDB-13U22308672022-12-07 11:54:5944.9307-122.819893916231Clb=3.7m/s p=96.9hPa t=-58.6C h=5.1% 401.40MHz Type=RS41-SGP Details on http://radiosondy.info
WA9ONY-14U22308672022-12-07 11:54:5244.9306-122.819734116216Clb=4.4m/s p=97.1hPa t=-58.7C h=5.1% 401.40MHz Type=RS41-SGP Join https://groups.io/g/Balloons
KJ7NUX-14U22308672022-12-07 11:54:4444.9304-122.82663916184Clb=6.0m/s p=97.6hPa t=-58.5C h=5.2% 401.40MHz Type=RS41-SGP Details on http://radiosondy.info
WA9ONY-10U22308672022-12-07 11:54:4144.9303-122.82663716178Clb=4.1m/s p=97.7hPa t=-58.5C h=5.2% 401.40MHz Type=RS41-SGP Join https://groups.io/g/Balloons
WA9ONY-14U22308672022-12-07 11:54:3744.9302-122.82753916164Clb=3.9m/s p=97.9hPa t=-58.4C h=5.2% 401.40MHz Type=RS41-SGP TxPastBurst=8h30m batt=2.7V Join https://groups.io/g/Balloons
KG7GDB-12U22308672022-12-07 11:54:3444.9302-122.82803716153Clb=5.7m/s t=-58.3C h=1.8% p=98.1hPa 401.401 MHz Type=RS41-SGP ser=U2230867 Radiosonde
W7BDB-13U22308672022-12-07 11:54:3244.9302-122.821793516149Clb=3.8m/s p=98.1hPa t=-58.2C h=5.1% 401.40MHz Type=RS41-SGP batt=2.6V Details on http://radiosondy.info
WA9ONY-10U22308672022-12-07 11:54:2244.9301-122.821663516129Clb=6.0m/s p=98.4hPa t=-58.0C h=5.0% 401.40MHz Type=RS41-SGP TxPastBurst=8h30m batt=2.6V Join https://groups.io/g/Balloons
WA9ONY-14U22308672022-12-07 11:54:1644.9299-122.822713116112Clb=6.0m/s p=98.7hPa t=-57.9C h=5.0% 401.40MHz Type=RS41-SGP Join https://groups.io/g/Balloons
k6gdp-12U22308672022-12-07 11:54:1444.9299-122.822733516106Clb=4.8m/s t=-57.9C h=1.7% p=98.8hPa 401.378 MHz Type=RS41-SGP ser=U2230867 Radiosonde
KJ7NUX-14U22308672022-12-07 11:54:1344.9299-122.822793316101Clb=5.2m/s p=98.9hPa t=-57.8C h=5.0% 401.40MHz Type=RS41-SGP batt=2.6V Details on http://radiosondy.info
K6GDP-11U22308672022-12-07 11:54:1244.9299-122.822853016095Clb=6.3m/s t=-57.8C h=1.7% p=99.0hPa 401.400 MHz Type=RS41-SGP ser=U2230867 Radiosonde
WA9ONY-10U22308672022-12-07 11:54:0344.9298-122.822663516073Clb=4.9m/s p=99.3hPa t=-57.5C h=4.9% 401.40MHz Type=RS41-SGP Join https://groups.io/g/Balloons
W7BDB-13U22308672022-12-07 11:54:0044.9298-122.822633716068Clb=5.1m/s p=99.4hPa t=-57.5C h=4.8% 401.40MHz Type=RS41-SGP Details on http://radiosondy.info
WA9ONY-14U22308672022-12-07 11:53:5544.9298-122.823733716057Clb=5.3m/s p=99.6hPa t=-57.4C h=4.9% 401.40MHz Type=RS41-SGP Join https://groups.io/g/Balloons
WA9ONY-10U22308672022-12-07 11:53:4244.9296-122.823883516017Clb=8.3m/s p=100.3hPa t=-57.1C h=4.7% 401.40MHz Type=RS41-SGP Join https://groups.io/g/Balloons
KJ7NUX-14U22308672022-12-07 11:53:4144.9296-122.824923116010Clb=6.3m/s p=100.3hPa t=-57.1C h=4.8% 401.40MHz Type=RS41-SGP Details on http://radiosondy.info
WA9ONY-14U22308672022-12-07 11:53:3644.9296-122.824883315996Clb=6.3m/s p=100.6hPa t=-57.0C h=4.8% 401.40MHz Type=RS41-SGP batt=2.6V Join https://groups.io/g/Balloons
KG7GDB-12U22308672022-12-07 11:53:3244.9296-122.824903715978Clb=7.3m/s t=-56.9C h=1.7% p=100.9hPa 401.401 MHz Type=RS41-SGP ser=U2230867 Radiosonde
W7BDB-13U22308672022-12-07 11:53:3044.9296-122.824913115977Clb=7.3m/s p=100.8hPa t=-56.9C h=4.8% 401.40MHz Type=RS41-SGP Details on http://radiosondy.info
WA9ONY-10U22308672022-12-07 11:53:2244.9296-122.825813015948Clb=6.5m/s p=101.3hPa t=-56.8C h=4.6% 401.40MHz Type=RS41-SGP batt=2.6V Join https://groups.io/g/Balloons
WA9ONY-14U22308672022-12-07 11:53:1644.9296-122.825723315931Clb=5.1m/s p=101.6hPa t=-56.9C h=4.5% 401.40MHz Type=RS41-SGP Join https://groups.io/g/Balloons
k6gdp-12U22308672022-12-07 11:53:1344.9295-122.825912815908Clb=10.0m/s t=-57.3C h=1.6% p=101.9hPa 401.378 MHz Type=RS41-SGP ser=U2230867 Radiosonde
KJ7NUX-14U22308672022-12-07 11:53:1044.9295-122.8251073915901Clb=5.9m/s p=102.1hPa t=-57.2C h=4.6% 401.40MHz Type=RS41-SGP Details on http://radiosondy.info
WA9ONY-10U22308672022-12-07 11:53:0444.9296-122.8261163915877Clb=10.0m/s p=102.4hPa t=-57.2C h=4.6% 401.40MHz Type=RS41-SGP Join https://groups.io/g/Balloons
W7BDB-13U22308672022-12-07 11:53:0344.9297-122.8261194315870Clb=4.6m/s p=102.6hPa t=-57.2C h=4.7% 401.40MHz Type=RS41-SGP TxPastBurst=8h30m batt=2.7V Details on http://radiosondy.info
WA9ONY-14U22308672022-12-07 11:52:5744.9298-122.8261144315858Clb=5.7m/s p=102.7hPa t=-57.2C h=4.8% 401.40MHz Type=RS41-SGP Join https://groups.io/g/Balloons
WA9ONY-10U22308672022-12-07 11:52:4344.93-122.8271134615821Clb=4.3m/s p=103.4hPa t=-57.2C h=4.7% 401.40MHz Type=RS41-SGP Join https://groups.io/g/Balloons
KE7WWCU22308672022-12-07 11:52:4044.9301-122.8271084815809Clb=5.4m/s t=-57.2C h=1.6% p=103.7hPa 401.375 MHz Type=RS41-SGP ser=U2230867 Radiosonde
KJ7NUX-14U22308672022-12-07 11:52:3844.9302-122.8271074315804Clb=5.9m/s p=103.6hPa t=-57.1C h=4.7% 401.40MHz Type=RS41-SGP TxPastBurst=8h30m batt=2.6V Details on http://radiosondy.info
W7BDB-13U22308672022-12-07 11:52:3244.9303-122.8281034315786Clb=8.5m/s p=104.0hPa t=-57.2C h=4.8% 401.40MHz Type=RS41-SGP Details on http://radiosondy.info
KG7GDB-12U22308672022-12-07 11:52:3044.9303-122.828984315779Clb=3.7m/s t=-57.2C h=1.7% p=104.1hPa 401.401 MHz Type=RS41-SGP ser=U2230867 Radiosonde
WA9ONY-10U22308672022-12-07 11:52:2244.9303-122.8291024315763Clb=4.9m/s p=104.3hPa t=-57.1C h=4.7% 401.40MHz Type=RS41-SGP batt=2.7V Join https://groups.io/g/Balloons
WA9ONY-14U22308672022-12-07 11:52:1644.9304-122.8291054315746Clb=8.0m/s p=104.6hPa t=-57.0C h=4.7% 401.40MHz Type=RS41-SGP Join https://groups.io/g/Balloons
k6gdp-12U22308672022-12-07 11:52:0944.9305-122.831024115717Clb=9.0m/s t=-57.0C h=1.6% p=105.1hPa 401.378 MHz Type=RS41-SGP ser=U2230867 Radiosonde
K6GDP-11U22308672022-12-07 11:52:0744.9305-122.831024115717Clb=9.0m/s t=-57.0C h=1.6% p=105.1hPa 401.400 MHz Type=RS41-SGP ser=U2230867 Radiosonde
KJ7NUX-14U22308672022-12-07 11:52:0544.9305-122.831074315711Clb=4.4m/s p=105.1hPa t=-57.0C h=4.7% 401.40MHz Type=RS41-SGP Details on http://radiosondy.info
WA9ONY-10U22308672022-12-07 11:52:0344.9306-122.831074315705Clb=7.1m/s p=105.2hPa t=-57.0C h=4.7% 401.40MHz Type=RS41-SGP Join https://groups.io/g/Balloons
W7BDB-13U22308672022-12-07 11:52:0144.9306-122.831064315700Clb=4.1m/s p=105.4hPa t=-57.0C h=4.7% 401.40MHz Type=RS41-SGP Details on http://radiosondy.info
WA9ONY-14U22308672022-12-07 11:52:0044.9307-122.831104315688Clb=6.1m/s p=105.6hPa t=-57.0C h=4.8% 401.40MHz Type=RS41-SGP Join https://groups.io/g/Balloons
WA9ONY-10U22308672022-12-07 11:51:5244.931-122.8311124115649Clb=3.3m/s p=106.2hPa t=-57.0C h=4.7% 401.40MHz Type=RS41-SGP Join https://groups.io/g/Balloons
KE7WWCU22308672022-12-07 11:51:4944.9311-122.8321123915633Clb=5.5m/s t=-57.1C h=1.7% p=106.5hPa 401.375 MHz Type=RS41-SGP ser=U2230867 Radiosonde
KJ7NUX-14U22308672022-12-07 11:51:4744.9312-122.8321084315622Clb=5.0m/s p=106.7hPa t=-57.0C h=4.7% 401.40MHz Type=RS41-SGP Details on http://radiosondy.info
W7BDB-13U22308672022-12-07 11:51:4544.9312-122.8321114315610Clb=4.8m/s p=106.9hPa t=-57.0C h=4.7% 401.40MHz Type=RS41-SGP batt=2.7V Details on http://radiosondy.info
KG7GDB-12U22308672022-12-07 11:51:4444.9312-122.8321094115603Clb=7.9m/s t=-57.0C h=1.7% p=107.0hPa 401.401 MHz Type=RS41-SGP ser=U2230867 Radiosonde
WA9ONY-10U22308672022-12-07 11:51:4244.9313-122.8331114315593Clb=6.2m/s p=107.1hPa t=-56.9C h=4.7% 401.40MHz Type=RS41-SGP TxPastBurst=8h30m batt=2.6V Join https://groups.io/g/Balloons
WA9ONY-14U22308672022-12-07 11:51:3944.9314-122.8331094415577Clb=4.5m/s p=107.4hPa t=-56.8C h=4.7% 401.40MHz Type=RS41-SGP Join https://groups.io/g/Balloons
k6gdp-12U22308672022-12-07 11:51:3544.9317-122.8341074315541Clb=6.2m/s t=-56.8C h=1.7% p=108.1hPa 401.378 MHz Type=RS41-SGP ser=U2230867 Radiosonde
K6GDP-11U22308672022-12-07 11:51:3444.9317-122.8341074315541Clb=6.2m/s t=-56.8C h=1.7% p=108.1hPa 401.400 MHz Type=RS41-SGP ser=U2230867 Radiosonde
WA9ONY-10U22308672022-12-07 11:51:3244.9317-122.8341064115536Clb=4.1m/s p=108.1hPa t=-56.7C h=4.6% 401.40MHz Type=RS41-SGP Join https://groups.io/g/Balloons
KJ7NUX-14U22308672022-12-07 11:51:3144.9317-122.8341073915530Clb=6.7m/s p=108.2hPa t=-56.7C h=4.5% 401.40MHz Type=RS41-SGP batt=2.6V Details on http://radiosondy.info
WA9ONY-14U22308672022-12-07 11:51:2944.9318-122.8351033915520Clb=5.3m/s p=108.4hPa t=-56.7C h=4.5% 401.40MHz Type=RS41-SGP Join https://groups.io/g/Balloons
WA9ONY-10U22308672022-12-07 11:51:2244.9319-122.8361003915479Clb=6.1m/s p=109.0hPa t=-56.6C h=4.4% 401.40MHz Type=RS41-SGP Join https://groups.io/g/Balloons
KJ7NUX-14U22308672022-12-07 11:51:1844.9385-122.8671143714221Clb=5.5m/s p=133.1hPa t=-57.1C h=4.8% 401.40MHz Type=RS41-SGP Details on http://radiosondy.info
KJ7NUX-14U22308672022-12-07 11:51:1744.9394-122.8681364114127Clb=7.1m/s p=135.1hPa t=-56.7C h=4.5% 401.40MHz Type=RS41-SGP TxPastBurst=8h30m batt=2.6V Details on http://radiosondy.info
KJ7NUX-14U22308672022-12-07 11:51:1644.9403-122.871334614035Clb=4.3m/s p=137.0hPa t=-57.4C h=4.7% 401.40MHz Type=RS41-SGP Details on http://radiosondy.info
KG7GDB-12U22308672022-12-07 11:51:1544.941-122.8711324813985Clb=4.2m/s t=-57.6C h=1.8% p=138.2hPa 401.401 MHz Type=RS41-SGP ser=U2230867 Radiosonde
k6gdp-12U22308672022-12-07 11:51:1444.9417-122.8731205213935Clb=6.0m/s t=-57.7C h=1.8% p=139.3hPa 401.378 MHz Type=RS41-SGP ser=U2230867 Radiosonde
W7BDB-13U22308672022-12-07 11:51:1344.9429-122.8751284413821Clb=7.1m/s p=141.8hPa t=-57.0C h=4.7% 401.40MHz Type=RS41-SGP Details on http://radiosondy.info
KJ7NUX-14U22308672022-12-07 11:51:1244.9436-122.8771294413765Clb=5.9m/s p=143.1hPa t=-56.8C h=4.7% 401.40MHz Type=RS41-SGP Details on http://radiosondy.info
KJ7NUX-14U22308672022-12-07 11:51:1144.9448-122.8781304413669Clb=4.6m/s p=145.2hPa t=-56.4C h=4.6% 401.40MHz Type=RS41-SGP Details on http://radiosondy.info
W7BDB-13U22308672022-12-07 11:51:0844.9451-122.8791324413638Clb=6.7m/s p=145.8hPa t=-56.5C h=4.7% 401.40MHz Type=RS41-SGP Details on http://radiosondy.info
KG7GDB-12U22308672022-12-07 11:51:0644.9453-122.8791324113621Clb=4.3m/s t=-56.6C h=1.9% p=146.3hPa 401.401 MHz Type=RS41-SGP ser=U2230867 Radiosonde
WA9ONY-14U22308672022-12-07 11:51:0344.9455-122.881264613610Clb=3.8m/s p=146.5hPa t=-56.5C h=4.8% 401.40MHz Type=RS41-SGP Join https://groups.io/g/Balloons
KJ7NUX-14U22308672022-12-07 11:50:5544.9459-122.881314613577Clb=7.4m/s p=147.2hPa t=-56.2C h=4.6% 401.40MHz Type=RS41-SGP batt=2.6V Details on http://radiosondy.info
WA9ONY-10U22308672022-12-07 11:50:5244.9459-122.8811304813570Clb=6.3m/s p=147.4hPa t=-56.2C h=4.6% 401.40MHz Type=RS41-SGP Join https://groups.io/g/Balloons
W7BDB-13U22308672022-12-07 11:50:4844.9462-122.8811244613551Clb=4.3m/s p=147.8hPa t=-56.0C h=4.8% 401.40MHz Type=RS41-SGP Details on http://radiosondy.info
WA9ONY-10U22308672022-12-07 11:50:3644.9466-122.8821254413509Clb=5.8m/s p=148.8hPa t=-56.0C h=4.7% 401.40MHz Type=RS41-SGP TxPastBurst=8h30m batt=2.6V Join https://groups.io/g/Balloons
WA9ONY-14U22308672022-12-07 11:50:3044.9468-122.8821204313493Clb=3.3m/s p=149.2hPa t=-56.0C h=4.7% 401.40MHz Type=RS41-SGP Join https://groups.io/g/Balloons
KJ7NUX-14U22308672022-12-07 11:50:2644.9469-122.8831174313480Clb=5.0m/s p=149.5hPa t=-55.9C h=4.7% 401.40MHz Type=RS41-SGP Details on http://radiosondy.info
W7BDB-13U22308672022-12-07 11:50:2044.947-122.8831184313464Clb=5.8m/s p=149.9hPa t=-55.9C h=4.6% 401.40MHz Type=RS41-SGP TxPastBurst=8h30m batt=2.7V Details on http://radiosondy.info
WA9ONY-10U22308672022-12-07 11:50:1744.9471-122.8831134113451Clb=5.7m/s p=150.2hPa t=-55.8C h=4.6% 401.40MHz Type=RS41-SGP Join https://groups.io/g/Balloons
KG7GDB-12U22308672022-12-07 11:50:1644.9472-122.8831113713446Clb=4.6m/s t=-55.8C h=1.9% p=150.4hPa 401.401 MHz Type=RS41-SGP ser=U2230867 Radiosonde
WA9ONY-14U22308672022-12-07 11:50:1144.9472-122.8841074313433Clb=4.2m/s p=150.6hPa t=-55.7C h=4.7% 401.40MHz Type=RS41-SGP Join https://groups.io/g/Balloons
KE7WWCU22308672022-12-07 11:50:0744.9473-122.8841074413411Clb=4.9m/s t=-55.6C h=1.9% p=151.2hPa 401.375 MHz Type=RS41-SGP ser=U2230867 Radiosonde
k6gdp-12U22308672022-12-07 11:49:5944.9474-122.8851034313395Clb=4.8m/s t=-55.5C h=1.9% p=151.6hPa 401.378 MHz Type=RS41-SGP ser=U2230867 Radiosonde
WA9ONY-10U22308672022-12-07 11:49:5844.9474-122.8851044113395Clb=4.7m/s p=151.6hPa t=-55.4C h=4.7% 401.40MHz Type=RS41-SGP Join https://groups.io/g/Balloons
KJ7NUX-14U22308672022-12-07 11:49:5744.9475-122.8851023913390Clb=4.0m/s p=151.7hPa t=-55.4C h=4.7% 401.40MHz Type=RS41-SGP Details on http://radiosondy.info
WA9ONY-14U22308672022-12-07 11:49:5344.9475-122.8851073913379Clb=4.0m/s p=152.0hPa t=-55.4C h=4.7% 401.40MHz Type=RS41-SGP batt=2.7V Join https://groups.io/g/Balloons
W7BDB-12U22308672022-12-07 11:49:5044.9476-122.8861063713354Clb=4.8m/s t=-55.5C h=1.9% p=152.5hPa 401.399 MHz Type=RS41-SGP ser=U2230867 Radiosonde
WA9ONY-10U22308672022-12-07 11:49:4244.9477-122.8861043513336Clb=6.1m/s p=152.9hPa t=-55.4C h=4.7% 401.40MHz Type=RS41-SGP batt=2.7V Join https://groups.io/g/Balloons
WA9ONY-14U22308672022-12-07 11:49:3744.9477-122.886943313320Clb=5.2m/s p=153.4hPa t=-55.3C h=4.7% 401.40MHz Type=RS41-SGP Join https://groups.io/g/Balloons
KJ7NUX-14U22308672022-12-07 11:49:3244.9477-122.887893513297Clb=4.4m/s p=153.9hPa t=-55.2C h=4.7% 401.40MHz Type=RS41-SGP TxPastBurst=8h30m batt=2.7V Details on http://radiosondy.info
WA9ONY-10U22308672022-12-07 11:49:2544.9477-122.887953713280Clb=5.8m/s p=154.4hPa t=-55.2C h=4.7% 401.40MHz Type=RS41-SGP Join https://groups.io/g/Balloons
KG7GDB-12U22308672022-12-07 11:49:2144.9478-122.888963513263Clb=3.8m/s t=-55.1C h=2.0% p=154.9hPa 401.401 MHz Type=RS41-SGP ser=U2230867 Radiosonde
WA9ONY-14U22308672022-12-07 11:49:1844.9478-122.888973513263Clb=3.8m/s p=154.8hPa t=-55.1C h=4.7% 401.40MHz Type=RS41-SGP Join https://groups.io/g/Balloons
KE7WWCU22308672022-12-07 11:49:1144.9478-122.888963913238Clb=7.4m/s t=-55.0C h=2.1% p=155.4hPa 401.375 MHz Type=RS41-SGP ser=U2230867 Radiosonde
WA9ONY-10U22308672022-12-07 11:49:0444.9478-122.888973313221Clb=4.1m/s p=155.8hPa t=-54.9C h=4.7% 401.40MHz Type=RS41-SGP Join https://groups.io/g/Balloons
k6gdp-12U22308672022-12-07 11:49:0344.9478-122.889922813202Clb=7.3m/s t=-54.8C h=2.1% p=156.3hPa 401.378 MHz Type=RS41-SGP ser=U2230867 Radiosonde
K6GDP-11U22308672022-12-07 11:49:0144.9478-122.889922813202Clb=7.3m/s t=-54.8C h=2.1% p=156.3hPa 401.400 MHz Type=RS41-SGP ser=U2230867 Radiosonde
WA9ONY-14U22308672022-12-07 11:49:0044.9478-122.889933713202Clb=7.2m/s p=156.2hPa t=-54.8C h=4.7% 401.40MHz Type=RS41-SGP batt=2.7V Join https://groups.io/g/Balloons
W7BDB-13U22308672022-12-07 11:48:5444.9479-122.8891014113186Clb=5.3m/s p=156.7hPa t=-54.8C h=4.7% 401.40MHz Type=RS41-SGP batt=2.7V Details on http://radiosondy.info
WA9ONY-10U22308672022-12-07 11:48:4844.948-122.891104413160Clb=4.0m/s p=157.2hPa t=-55.0C h=4.8% 401.40MHz Type=RS41-SGP batt=2.7V Join https://groups.io/g/Balloons
WA9ONY-14U22308672022-12-07 11:48:4344.9481-122.891063913144Clb=3.8m/s p=157.6hPa t=-55.1C h=4.8% 401.40MHz Type=RS41-SGP Join https://groups.io/g/Balloons
KJ7NUX-14U22308672022-12-07 11:48:3244.9482-122.891993313106Clb=4.5m/s p=158.6hPa t=-55.7C h=5.2% 401.40MHz Type=RS41-SGP Details on http://radiosondy.info
WA9ONY-10U22308672022-12-07 11:48:2944.9482-122.891993113100Clb=7.4m/s p=158.7hPa t=-55.6C h=5.2% 401.40MHz Type=RS41-SGP Join https://groups.io/g/Balloons
W7BDB-13U22308672022-12-07 11:48:2644.9482-122.891993313088Clb=6.6m/s p=158.9hPa t=-55.6C h=5.2% 401.40MHz Type=RS41-SGP Details on http://radiosondy.info
KG7GDB-12U22308672022-12-07 11:48:2444.9483-122.8911022813083Clb=4.1m/s t=-55.7C h=2.5% p=159.2hPa 401.401 MHz Type=RS41-SGP ser=U2230867 Radiosonde
WA9ONY-14U22308672022-12-07 11:48:2344.9483-122.8911033313083Clb=4.0m/s p=159.2hPa t=-55.6C h=5.2% 401.40MHz Type=RS41-SGP Join https://groups.io/g/Balloons
KE7WWCU22308672022-12-07 11:48:1544.9483-122.892943513052Clb=8.4m/s t=-55.9C h=2.5% p=159.9hPa 401.375 MHz Type=RS41-SGP ser=U2230867 Radiosonde
WA9ONY-10U22308672022-12-07 11:48:1044.9483-122.892923113040Clb=6.8m/s p=160.2hPa t=-55.9C h=5.3% 401.40MHz Type=RS41-SGP Join https://groups.io/g/Balloons
k6gdp-12U22308672022-12-07 11:48:0744.9483-122.892913113027Clb=7.4m/s t=-56.1C h=2.6% p=160.6hPa 401.378 MHz Type=RS41-SGP ser=U2230867 Radiosonde
WA9ONY-14U22308672022-12-07 11:48:0544.9483-122.893862813021Clb=4.5m/s p=160.7hPa t=-56.2C h=5.4% 401.40MHz Type=RS41-SGP TxPastBurst=8h30m batt=2.7V Join https://groups.io/g/Balloons
KJ7NUX-14U22308672022-12-07 11:48:0244.9483-122.893812413009Clb=4.3m/s p=161.0hPa t=-56.6C h=5.6% 401.40MHz Type=RS41-SGP batt=2.7V Details on http://radiosondy.info
W7BDB-12U22308672022-12-07 11:47:5844.9482-122.893702412980Clb=6.4m/s t=-57.0C h=2.9% p=161.8hPa 401.399 MHz Type=RS41-SGP ser=U2230867 Radiosonde
WA9ONY-10U22308672022-12-07 11:47:5344.9482-122.893712212980Clb=6.3m/s p=161.8hPa t=-56.9C h=5.9% 401.40MHz Type=RS41-SGP TxPastBurst=8h30m batt=2.7V Join https://groups.io/g/Balloons
WA9ONY-14U22308672022-12-07 11:47:4744.9481-122.894851912962Clb=9.4m/s p=162.3hPa t=-57.0C h=6.0% 401.40MHz Type=RS41-SGP Join https://groups.io/g/Balloons
WA9ONY-10U22308672022-12-07 11:47:3344.9481-122.894791512917Clb=4.8m/s p=163.3hPa t=-57.2C h=6.3% 401.40MHz Type=RS41-SGP Join https://groups.io/g/Balloons
KJ7NUX-14U22308672022-12-07 11:47:3244.9481-122.894831712911Clb=7.8m/s p=163.5hPa t=-57.2C h=6.3% 401.40MHz Type=RS41-SGP Details on http://radiosondy.info
W7BDB-13U22308672022-12-07 11:47:2944.9481-122.894951712904Clb=4.3m/s p=163.7hPa t=-57.3C h=6.4% 401.40MHz Type=RS41-SGP batt=2.7V Details on http://radiosondy.info
WA9ONY-14U22308672022-12-07 11:47:2644.9481-122.894951712899Clb=6.4m/s p=163.8hPa t=-57.4C h=6.5% 401.40MHz Type=RS41-SGP Join https://groups.io/g/Balloons
KG7GDB-12U22308672022-12-07 11:47:2444.9481-122.894961312894Clb=3.5m/s t=-57.5C h=3.4% p=164.0hPa 401.401 MHz Type=RS41-SGP ser=U2230867 Radiosonde
KE7WWCU22308672022-12-07 11:47:1544.9482-122.8941171912864Clb=6.9m/s t=-57.4C h=3.5% p=164.8hPa 401.375 MHz Type=RS41-SGP ser=U2230867 Radiosonde
WA9ONY-10U22308672022-12-07 11:47:1244.9482-122.8951161912858Clb=4.3m/s p=164.9hPa t=-57.3C h=6.7% 401.40MHz Type=RS41-SGP Join https://groups.io/g/Balloons
WA9ONY-14U22308672022-12-07 11:47:0644.9483-122.8951072012843Clb=6.2m/s p=165.3hPa t=-57.2C h=6.7% 401.40MHz Type=RS41-SGP batt=2.7V Join https://groups.io/g/Balloons
K6GDP-11U22308672022-12-07 11:47:0444.9483-122.8951111512833Clb=5.3m/s t=-57.2C h=3.7% p=165.7hPa 401.400 MHz Type=RS41-SGP ser=U2230867 Radiosonde
KJ7NUX-14U22308672022-12-07 11:46:5944.9483-122.8951292612821Clb=5.6m/s p=165.9hPa t=-57.1C h=6.8% 401.40MHz Type=RS41-SGP Details on http://radiosondy.info
WA9ONY-10U22308672022-12-07 11:46:5444.9485-122.8951392812807Clb=5.1m/s p=166.3hPa t=-57.1C h=6.8% 401.40MHz Type=RS41-SGP batt=2.7V Join https://groups.io/g/Balloons
WA9ONY-14U22308672022-12-07 11:46:4744.9486-122.8951172812789Clb=6.7m/s p=166.7hPa t=-57.1C h=6.9% 401.40MHz Type=RS41-SGP Join https://groups.io/g/Balloons
WA9ONY-10U22308672022-12-07 11:46:3544.9489-122.8961453312747Clb=9.5m/s p=167.9hPa t=-57.4C h=7.3% 401.40MHz Type=RS41-SGP Join https://groups.io/g/Balloons
KJ7NUX-14U22308672022-12-07 11:46:2944.9491-122.8961274112728Clb=6.2m/s p=168.4hPa t=-57.7C h=7.7% 401.40MHz Type=RS41-SGP batt=2.7V Details on http://radiosondy.info
W7BDB-13U22308672022-12-07 11:46:2844.9491-122.8961274312727Clb=6.2m/s p=168.4hPa t=-57.7C h=7.7% 401.40MHz Type=RS41-SGP Details on http://radiosondy.info
KG7GDB-12U22308672022-12-07 11:46:2544.9492-122.8961303712714Clb=5.5m/s t=-57.8C h=4.6% p=168.8hPa 401.401 MHz Type=RS41-SGP ser=U2230867 Radiosonde
KE7WWCU22308672022-12-07 11:46:1644.9495-122.8971363312681Clb=7.8m/s t=-58.1C h=4.8% p=169.7hPa 401.375 MHz Type=RS41-SGP ser=U2230867 Radiosonde
WA9ONY-10U22308672022-12-07 11:46:1544.9495-122.8971374612681Clb=7.8m/s p=169.7hPa t=-58.0C h=8.0% 401.40MHz Type=RS41-SGP Join https://groups.io/g/Balloons
WA9ONY-14U22308672022-12-07 11:46:1044.9497-122.8971465012660Clb=6.0m/s p=170.1hPa t=-58.6C h=8.6% 401.40MHz Type=RS41-SGP batt=2.7V Join https://groups.io/g/Balloons
k6gdp-12U22308672022-12-07 11:46:0844.95-122.8971404812641Clb=7.6m/s t=-58.7C h=5.3% p=170.7hPa 401.378 MHz Type=RS41-SGP ser=U2230867 Radiosonde
K6GDP-11U22308672022-12-07 11:46:0544.95-122.8971404812641Clb=7.6m/s t=-58.7C h=5.3% p=170.7hPa 401.400 MHz Type=RS41-SGP ser=U2230867 Radiosonde
KJ7NUX-14U22308672022-12-07 11:45:5944.9502-122.8981334612622Clb=5.8m/s p=171.2hPa t=-58.6C h=8.8% 401.40MHz Type=RS41-SGP Details on http://radiosondy.info
WA9ONY-10U22308672022-12-07 11:45:5644.9504-122.8981354812610Clb=6.6m/s p=171.5hPa t=-58.6C h=8.9% 401.40MHz Type=RS41-SGP batt=2.7V Join https://groups.io/g/Balloons
WA9ONY-14U22308672022-12-07 11:45:5244.9506-122.8981354612600Clb=5.7m/s p=171.8hPa t=-58.5C h=8.9% 401.40MHz Type=RS41-SGP Join https://groups.io/g/Balloons
WA9ONY-10U22308672022-12-07 11:45:3744.9513-122.8991304312553Clb=6.6m/s p=173.1hPa t=-58.9C h=9.4% 401.40MHz Type=RS41-SGP Join https://groups.io/g/Balloons
WA9ONY-14U22308672022-12-07 11:45:3344.9514-122.8991304412542Clb=5.7m/s p=173.5hPa t=-59.1C h=9.7% 401.40MHz Type=RS41-SGP Join https://groups.io/g/Balloons
W7BDB-13U22308672022-12-07 11:45:3144.9514-122.8991284412537Clb=4.1m/s p=173.6hPa t=-59.1C h=9.8% 401.40MHz Type=RS41-SGP Details on http://radiosondy.info
KJ7NUX-14U22308672022-12-07 11:45:2944.9515-122.8991294612532Clb=6.1m/s p=173.8hPa t=-59.2C h=9.8% 401.40MHz Type=RS41-SGP Details on http://radiosondy.info
KG7GDB-12U22308672022-12-07 11:45:2744.9516-122.91304112525Clb=9.1m/s t=-59.3C h=6.4% p=174.0hPa 401.401 MHz Type=RS41-SGP ser=U2230867 Radiosonde
WA9ONY-10U22308672022-12-07 11:45:1844.9519-122.91264612494Clb=4.7m/s p=174.8hPa t=-59.4C h=10.6% 401.40MHz Type=RS41-SGP Join https://groups.io/g/Balloons
WA9ONY-14U22308672022-12-07 11:45:1444.952-122.9011254612481Clb=5.1m/s p=175.1hPa t=-59.6C h=10.8% 401.40MHz Type=RS41-SGP TxPastBurst=8h30m batt=2.7V Join https://groups.io/g/Balloons
k6gdp-12U22308672022-12-07 11:45:1144.9522-122.9011274312463Clb=8.6m/s t=-59.8C h=7.1% p=175.7hPa 401.378 MHz Type=RS41-SGP ser=U2230867 Radiosonde
K6GDP-11U22308672022-12-07 11:45:0644.9523-122.9011244412456Clb=4.9m/s t=-59.8C h=7.2% p=175.8hPa 401.400 MHz Type=RS41-SGP ser=U2230867 Radiosonde
W7BDB-13U22308672022-12-07 11:45:0244.9524-122.9011244412443Clb=3.6m/s p=176.2hPa t=-59.8C h=11.3% 401.40MHz Type=RS41-SGP Details on http://radiosondy.info
WA9ONY-10U22308672022-12-07 11:44:5844.9526-122.9021204412432Clb=3.4m/s p=176.5hPa t=-59.8C h=11.4% 401.40MHz Type=RS41-SGP TxPastBurst=8h30m batt=2.7V Join https://groups.io/g/Balloons
WA9ONY-14U22308672022-12-07 11:44:5544.9527-122.9021204312420Clb=5.4m/s p=176.8hPa t=-59.9C h=11.6% 401.40MHz Type=RS41-SGP Join https://groups.io/g/Balloons
WA9ONY-10U22308672022-12-07 11:44:4244.9531-122.9031154312371Clb=8.4m/s p=178.2hPa t=-59.6C h=12.1% 401.40MHz Type=RS41-SGP Join https://groups.io/g/Balloons
WA9ONY-14U22308672022-12-07 11:44:3744.9532-122.9031184312358Clb=7.6m/s p=178.5hPa t=-59.6C h=12.5% 401.40MHz Type=RS41-SGP Join https://groups.io/g/Balloons
W7BDB-13U22308672022-12-07 11:44:3544.9532-122.9031194312351Clb=5.5m/s p=178.7hPa t=-59.6C h=12.6% 401.40MHz Type=RS41-SGP batt=2.7V Details on http://radiosondy.info
KJ7NUX-14U22308672022-12-07 11:44:3044.9534-122.9041204112334Clb=4.8m/s p=179.3hPa t=-59.7C h=12.8% 401.40MHz Type=RS41-SGP Details on http://radiosondy.info
KG7GDB-12U22308672022-12-07 11:44:2944.9534-122.9041194312334Clb=4.8m/s t=-59.8C h=8.7% p=179.3hPa 401.401 MHz Type=RS41-SGP ser=U2230867 Radiosonde
WA9ONY-10U22308672022-12-07 11:44:2044.9536-122.9041204112311Clb=3.3m/s p=179.9hPa t=-59.8C h=13.5% 401.40MHz Type=RS41-SGP Join https://groups.io/g/Balloons
WA9ONY-14U22308672022-12-07 11:44:1744.9537-122.9051193912301Clb=3.6m/s p=180.2hPa t=-59.8C h=13.5% 401.40MHz Type=RS41-SGP batt=2.7V Join https://groups.io/g/Balloons
k6gdp-12U22308672022-12-07 11:44:1144.9538-122.9051064412277Clb=3.7m/s t=-60.4C h=10.0% p=181.0hPa 401.378 MHz Type=RS41-SGP ser=U2230867 Radiosonde
KE7WWCU22308672022-12-07 11:44:0944.9538-122.9051064412277Clb=3.7m/s t=-60.4C h=10.0% p=181.0hPa 401.375 MHz Type=RS41-SGP ser=U2230867 Radiosonde
W7BDB-13U22308672022-12-07 11:44:0744.9539-122.905993312267Clb=4.1m/s p=181.2hPa t=-60.3C h=14.7% 401.40MHz Type=RS41-SGP Details on http://radiosondy.info
WA9ONY-10U22308672022-12-07 11:44:0344.9539-122.9061003312253Clb=4.6m/s p=181.6hPa t=-60.3C h=15.0% 401.40MHz Type=RS41-SGP batt=2.7V Join https://groups.io/g/Balloons
KJ7NUX-14U22308672022-12-07 11:44:0144.9539-122.906903012239Clb=4.6m/s p=182.0hPa t=-60.3C h=15.2% 401.40MHz Type=RS41-SGP Details on http://radiosondy.info
WA9ONY-14U22308672022-12-07 11:44:0044.954-122.9071032812178Clb=4.7m/s p=183.8hPa t=-60.4C h=16.2% 401.40MHz Type=RS41-SGP Join https://groups.io/g/Balloons
KJ7NUX-14U22308672022-12-07 11:43:5944.9541-122.907972812143Clb=6.5m/s p=184.9hPa t=-60.6C h=16.7% 401.40MHz Type=RS41-SGP batt=2.7V Details on http://radiosondy.info
WA9ONY-14U22308672022-12-07 11:43:5844.9541-122.908962612115Clb=3.0m/s p=185.7hPa t=-60.8C h=17.3% 401.40MHz Type=RS41-SGP batt=2.7V Join https://groups.io/g/Balloons
k6gdp-12U22308672022-12-07 11:43:5644.9542-122.908852812087Clb=6.8m/s t=-61.4C h=13.3% p=186.6hPa 401.378 MHz Type=RS41-SGP ser=U2230867 Radiosonde
KE7WWCU22308672022-12-07 11:43:5544.9541-122.909852612053Clb=6.5m/s t=-61.6C h=14.4% p=187.5hPa 401.374 MHz Type=RS41-SGP ser=U2230867 Radiosonde
WA9ONY-10U22308672022-12-07 11:43:5344.9542-122.91783012008Clb=4.2m/s p=188.9hPa t=-62.0C h=21.9% 401.40MHz Type=RS41-SGP Join https://groups.io/g/Balloons
WA9ONY-14U22308672022-12-07 11:43:5244.9541-122.91773011994Clb=7.9m/s p=189.3hPa t=-61.9C h=21.6% 401.40MHz Type=RS41-SGP Join https://groups.io/g/Balloons
W7BDB-13U22308672022-12-07 11:43:5144.9541-122.911023311969Clb=6.3m/s p=190.1hPa t=-61.9C h=21.7% 401.40MHz Type=RS41-SGP Details on http://radiosondy.info
KG7GDB-12U22308672022-12-07 11:43:5044.9542-122.911992411938Clb=7.6m/s t=-62.0C h=16.9% p=191.1hPa 401.401 MHz Type=RS41-SGP ser=U2230867 Radiosonde
WA9ONY-14U22308672022-12-07 11:43:4944.9542-122.911873711920Clb=4.9m/s p=191.7hPa t=-61.9C h=22.6% 401.40MHz Type=RS41-SGP TxPastBurst=8h30m batt=2.7V Join https://groups.io/g/Balloons
K6GDP-11U22308672022-12-07 11:43:4744.9542-122.9121083911876Clb=5.1m/s t=-61.9C h=18.3% p=193.0hPa 401.400 MHz Type=RS41-SGP ser=U2230867 Radiosonde
KJ7NUX-14U22308672022-12-07 11:43:4644.9543-122.913883011834Clb=4.8m/s p=194.3hPa t=-62.1C h=27.5% 401.40MHz Type=RS41-SGP batt=2.7V Details on http://radiosondy.info
WA9ONY-10U22308672022-12-07 11:43:4544.9543-122.913723011810Clb=5.3m/s p=195.1hPa t=-62.1C h=28.9% 401.40MHz Type=RS41-SGP Join https://groups.io/g/Balloons
WA9ONY-14U22308672022-12-07 11:43:4444.9542-122.913913111800Clb=6.3m/s p=195.4hPa t=-62.1C h=28.7% 401.40MHz Type=RS41-SGP Join https://groups.io/g/Balloons
W7BDB-13U22308672022-12-07 11:43:4344.9543-122.9141003311769Clb=7.2m/s p=196.3hPa t=-62.0C h=28.3% 401.40MHz Type=RS41-SGP TxPastBurst=8h30m batt=2.7V Details on http://radiosondy.info
WA9ONY-10U22308672022-12-07 11:43:3744.9543-122.914813511736Clb=7.5m/s p=197.4hPa t=-62.0C h=29.4% 401.40MHz Type=RS41-SGP Join https://groups.io/g/Balloons
KJ7NUX-14U22308672022-12-07 11:43:3544.9543-122.914753011722Clb=4.9m/s p=197.8hPa t=-62.0C h=29.7% 401.40MHz Type=RS41-SGP Details on http://radiosondy.info
K6GDP-11U22308672022-12-07 11:43:2944.9541-122.915883111667Clb=6.6m/s t=-62.4C h=25.6% p=199.7hPa 401.400 MHz Type=RS41-SGP ser=U2230867 Radiosonde
WA9ONY-10U22308672022-12-07 11:43:2844.9541-122.915892611667Clb=6.5m/s p=199.6hPa t=-62.4C h=31.9% 401.40MHz Type=RS41-SGP batt=2.7V Join https://groups.io/g/Balloons
W7BDB-13U22308672022-12-07 11:40:4044.9541-122.915832611661Clb=3.9m/s p=199.8hPa t=-62.4C h=32.3% 401.40MHz Type=RS41-SGP Details on http://radiosondy.info
WA9ONY-14U22308672022-12-07 11:40:3444.949-122.924142610808Clb=5.2m/s p=229.3hPa t=-60.6C h=49.6% 401.40MHz Type=RS41-SGP Join https://groups.io/g/Balloons
W7BDB-13U22308672022-12-07 11:40:3044.9488-122.924172410794Clb=6.5m/s p=229.8hPa t=-60.5C h=50.4% 401.40MHz Type=RS41-SGP TxPastBurst=8h30m batt=2.7V Details on http://radiosondy.info
WA9ONY-10U22308672022-12-07 11:40:2944.9488-122.924172610794Clb=6.5m/s p=229.8hPa t=-60.5C h=50.4% 401.40MHz Type=RS41-SGP Join https://groups.io/g/Balloons
KJ7NUX-14U22308672022-12-07 11:40:2644.9487-122.924122210780Clb=8.3m/s p=230.3hPa t=-60.5C h=51.3% 401.40MHz Type=RS41-SGP batt=2.7V Details on http://radiosondy.info
WA9ONY-14U22308672022-12-07 11:40:1544.9484-122.9243512010735Clb=5.8m/s p=232.0hPa t=-60.5C h=51.7% 401.40MHz Type=RS41-SGP Join https://groups.io/g/Balloons
WA9ONY-10U22308672022-12-07 11:40:1244.9482-122.9243561910722Clb=7.2m/s p=232.4hPa t=-60.4C h=51.7% 401.40MHz Type=RS41-SGP Join https://groups.io/g/Balloons
KG7GDB-12U22308672022-12-07 11:40:0444.948-122.92411310690Clb=7.4m/s t=-60.2C h=45.5% p=233.8hPa 401.401 MHz Type=RS41-SGP ser=U2230867 Radiosonde
W7BDB-13U22308672022-12-07 11:40:0144.9479-122.924101910682Clb=7.2m/s p=233.9hPa t=-60.1C h=53.0% 401.40MHz Type=RS41-SGP Details on http://radiosondy.info
KJ7NUX-14U22308672022-12-07 11:40:0044.9479-122.924251910671Clb=7.4m/s p=234.4hPa t=-60.1C h=52.2% 401.40MHz Type=RS41-SGP Details on http://radiosondy.info
WA9ONY-10U22308672022-12-07 11:39:5944.9478-122.924241910657Clb=7.6m/s p=234.9hPa t=-60.0C h=52.6% 401.40MHz Type=RS41-SGP TxPastBurst=8h30m batt=2.7V Join https://groups.io/g/Balloons
k6gdp-12U22308672022-12-07 11:39:5744.9475-122.924122010629Clb=5.9m/s t=-60.0C h=44.6% p=236.1hPa 401.378 MHz Type=RS41-SGP ser=U2230867 Radiosonde
K6GDP-11U22308672022-12-07 11:39:5644.9475-122.924122010629Clb=5.9m/s t=-60.0C h=44.6% p=236.1hPa 401.400 MHz Type=RS41-SGP ser=U2230867 Radiosonde
WA9ONY-14U22308672022-12-07 11:39:5344.9474-122.924121910615Clb=5.6m/s p=236.5hPa t=-59.9C h=51.7% 401.40MHz Type=RS41-SGP Join https://groups.io/g/Balloons
WA9ONY-10U22308672022-12-07 11:39:5144.9473-122.924322010605Clb=5.9m/s p=236.9hPa t=-59.8C h=51.1% 401.40MHz Type=RS41-SGP Join https://groups.io/g/Balloons
W7BDB-13U22308672022-12-07 11:39:4944.9472-122.924281910593Clb=4.5m/s p=237.3hPa t=-59.7C h=51.2% 401.40MHz Type=RS41-SGP Details on http://radiosondy.info
KJ7NUX-14U22308672022-12-07 11:39:4644.9471-122.924241910583Clb=2.8m/s p=237.7hPa t=-59.7C h=52.4% 401.40MHz Type=RS41-SGP Details on http://radiosondy.info
WA9ONY-14U22308672022-12-07 11:39:3544.947-122.925471910560Clb=4.5m/s p=238.6hPa t=-59.6C h=54.2% 401.40MHz Type=RS41-SGP Join https://groups.io/g/Balloons
WA9ONY-10U22308672022-12-07 11:39:3444.9469-122.925491910556Clb=3.6m/s p=238.7hPa t=-59.6C h=53.7% 401.40MHz Type=RS41-SGP Join https://groups.io/g/Balloons
KG7GDB-12U22308672022-12-07 11:39:2344.9467-122.925311310528Clb=5.5m/s t=-59.6C h=44.8% p=239.7hPa 401.401 MHz Type=RS41-SGP ser=U2230867 Radiosonde
W7BDB-13U22308672022-12-07 11:39:1844.9466-122.925521910516Clb=6.9m/s p=240.3hPa t=-59.5C h=51.8% 401.40MHz Type=RS41-SGP batt=2.7V Details on http://radiosondy.info
WA9ONY-14U22308672022-12-07 11:39:1644.9466-122.925562010509Clb=6.1m/s p=240.6hPa t=-59.5C h=52.0% 401.40MHz Type=RS41-SGP batt=2.7V Join https://groups.io/g/Balloons
KJ7NUX-14U22308672022-12-07 11:39:1544.9466-122.925611910504Clb=4.5m/s p=240.7hPa t=-59.5C h=52.1% 401.40MHz Type=RS41-SGP TxPastBurst=8h30m batt=2.7V Details on http://radiosondy.info
WA9ONY-10U22308672022-12-07 11:39:1444.9466-122.925612010504Clb=4.5m/s p=240.7hPa t=-59.5C h=52.1% 401.40MHz Type=RS41-SGP batt=2.7V Join https://groups.io/g/Balloons
k6gdp-12U22308672022-12-07 11:39:0544.9465-122.925672210470Clb=6.6m/s t=-59.4C h=46.4% p=242.1hPa 401.378 MHz Type=RS41-SGP ser=U2230867 Radiosonde
K6GDP-11U22308672022-12-07 11:39:0444.9465-122.925732610463Clb=5.8m/s t=-59.4C h=46.4% p=242.4hPa 401.400 MHz Type=RS41-SGP ser=U2230867 Radiosonde
WA9ONY-14U22308672022-12-07 11:38:5844.9464-122.9261002010447Clb=6.0m/s p=242.9hPa t=-59.2C h=53.4% 401.40MHz Type=RS41-SGP Join https://groups.io/g/Balloons
WA9ONY-10U22308672022-12-07 11:38:5644.9465-122.9261062010441Clb=4.6m/s p=243.1hPa t=-59.2C h=53.2% 401.40MHz Type=RS41-SGP Join https://groups.io/g/Balloons
W7BDB-13U22308672022-12-07 11:38:5044.9465-122.926992410426Clb=5.6m/s p=243.8hPa t=-59.1C h=53.0% 401.40MHz Type=RS41-SGP Details on http://radiosondy.info
KJ7NUX-14U22308672022-12-07 11:38:4544.9465-122.926932610409Clb=6.5m/s p=244.5hPa t=-59.2C h=51.7% 401.40MHz Type=RS41-SGP Details on http://radiosondy.info
WA9ONY-14U22308672022-12-07 11:38:3944.9465-122.926832810387Clb=7.0m/s p=245.2hPa t=-59.2C h=52.8% 401.40MHz Type=RS41-SGP Join https://groups.io/g/Balloons
WA9ONY-10U22308672022-12-07 11:38:3844.9465-122.926662810381Clb=6.4m/s p=245.5hPa t=-59.2C h=53.0% 401.40MHz Type=RS41-SGP Join https://groups.io/g/Balloons
KG7GDB-12U22308672022-12-07 11:38:2544.9461-122.927812210329Clb=4.9m/s t=-59.0C h=44.9% p=247.6hPa 401.401 MHz Type=RS41-SGP ser=U2230867 Radiosonde
W7BDB-13U22308672022-12-07 11:38:2044.9461-122.927822410329Clb=4.8m/s p=247.6hPa t=-58.9C h=51.7% 401.40MHz Type=RS41-SGP Details on http://radiosondy.info
WA9ONY-10U22308672022-12-07 11:38:1844.9461-122.927892410323Clb=7.7m/s p=247.8hPa t=-58.9C h=51.1% 401.40MHz Type=RS41-SGP batt=2.7V Join https://groups.io/g/Balloons
KJ7NUX-14U22308672022-12-07 11:38:1544.9461-122.927832210308Clb=6.4m/s p=248.3hPa t=-58.8C h=51.4% 401.40MHz Type=RS41-SGP Details on http://radiosondy.info
K6GDP-11U22308672022-12-07 11:38:0744.9459-122.928502210280Clb=6.1m/s t=-58.6C h=43.7% p=249.6hPa 401.400 MHz Type=RS41-SGP ser=U2230867 Radiosonde
WA9ONY-14U22308672022-12-07 11:38:0344.9459-122.928582210267Clb=6.5m/s p=250.0hPa t=-58.5C h=50.3% 401.40MHz Type=RS41-SGP Join https://groups.io/g/Balloons
WA9ONY-10U22308672022-12-07 11:38:0144.9458-122.928582210261Clb=4.6m/s p=250.3hPa t=-58.5C h=50.3% 401.40MHz Type=RS41-SGP Join https://groups.io/g/Balloons
W7BDB-13U22308672022-12-07 11:37:5144.9457-122.928662610239Clb=5.6m/s p=251.2hPa t=-58.3C h=50.0% 401.40MHz Type=RS41-SGP batt=2.7V Details on http://radiosondy.info
KJ7NUX-14U22308672022-12-07 11:37:4344.9456-122.928522610218Clb=6.2m/s p=251.9hPa t=-58.2C h=49.9% 401.40MHz Type=RS41-SGP batt=2.7V Details on http://radiosondy.info
WA9ONY-14U22308672022-12-07 11:37:4144.9456-122.928473010213Clb=4.0m/s p=252.1hPa t=-58.1C h=49.6% 401.40MHz Type=RS41-SGP Join https://groups.io/g/Balloons
WA9ONY-10U22308672022-12-07 11:37:3944.9455-122.928523010207Clb=6.3m/s p=252.4hPa t=-58.1C h=48.7% 401.40MHz Type=RS41-SGP Join https://groups.io/g/Balloons
WA9ONY-14U22308672022-12-07 11:37:1944.9451-122.929512810152Clb=4.7m/s p=254.6hPa t=-57.6C h=46.9% 401.40MHz Type=RS41-SGP TxPastBurst=8h30m batt=2.7V Join https://groups.io/g/Balloons
W7BDB-13U22308672022-12-07 11:37:1744.9451-122.929572610147Clb=4.7m/s p=254.8hPa t=-57.6C h=46.1% 401.40MHz Type=RS41-SGP Details on http://radiosondy.info
WA9ONY-10U22308672022-12-07 11:37:1644.9451-122.929573010147Clb=4.7m/s p=254.8hPa t=-57.6C h=46.1% 401.40MHz Type=RS41-SGP TxPastBurst=8h30m batt=2.7V Join https://groups.io/g/Balloons
KJ7NUX-14U22308672022-12-07 11:37:0944.945-122.93583110121Clb=6.7m/s p=255.8hPa t=-57.4C h=45.0% 401.40MHz Type=RS41-SGP Details on http://radiosondy.info
K6GDP-11U22308672022-12-07 11:37:0244.9447-122.93423910097Clb=6.5m/s t=-57.2C h=38.6% p=256.9hPa 401.400 MHz Type=RS41-SGP ser=U2230867 Radiosonde
WA9ONY-14U22308672022-12-07 11:37:0044.9447-122.93443010092Clb=5.2m/s p=257.0hPa t=-57.1C h=45.0% 401.40MHz Type=RS41-SGP Join https://groups.io/g/Balloons
WA9ONY-10U22308672022-12-07 11:36:5944.9446-122.93443010086Clb=5.2m/s p=257.3hPa t=-57.1C h=45.3% 401.40MHz Type=RS41-SGP Join https://groups.io/g/Balloons
W7BDB-13U22308672022-12-07 11:36:4944.9444-122.93602810058Clb=6.7m/s p=258.4hPa t=-56.9C h=44.2% 401.40MHz Type=RS41-SGP Details on http://radiosondy.info
KE7WWCU22308672022-12-07 11:36:4744.9443-122.931563010049Clb=3.6m/s t=-56.8C h=38.4% p=258.9hPa 401.375 MHz Type=RS41-SGP ser=U2230867 Radiosonde
WA9ONY-14U22308672022-12-07 11:36:4244.9442-122.931442810039Clb=5.0m/s p=259.2hPa t=-56.7C h=43.6% 401.40MHz Type=RS41-SGP Join https://groups.io/g/Balloons
WA9ONY-10U22308672022-12-07 11:36:4044.9441-122.931382610035Clb=3.6m/s p=259.4hPa t=-56.6C h=43.5% 401.40MHz Type=RS41-SGP Join https://groups.io/g/Balloons
KJ7NUX-14U22308672022-12-07 11:36:3544.9439-122.931342610018Clb=3.4m/s p=260.1hPa t=-56.5C h=43.2% 401.40MHz Type=RS41-SGP Details on http://radiosondy.info
KG7GDB-12U22308672022-12-07 11:36:2344.9437-122.93131229986Clb=4.8m/s t=-56.2C h=36.7% p=261.4hPa 401.401 MHz Type=RS41-SGP ser=U2230867 Radiosonde
WA9ONY-14U22308672022-12-07 11:36:2244.9437-122.93132309986Clb=4.8m/s p=261.4hPa t=-56.2C h=42.4% 401.40MHz Type=RS41-SGP batt=2.7V Join https://groups.io/g/Balloons
WA9ONY-10U22308672022-12-07 11:36:2044.9436-122.93128309980Clb=5.6m/s p=261.6hPa t=-56.1C h=42.2% 401.40MHz Type=RS41-SGP batt=2.7V Join https://groups.io/g/Balloons
W7BDB-13U22308672022-12-07 11:36:1944.9436-122.93131289975Clb=4.1m/s p=261.8hPa t=-56.1C h=41.6% 401.40MHz Type=RS41-SGP TxPastBurst=8h30m batt=2.7V Details on http://radiosondy.info
k6gdp-12U22308672022-12-07 11:36:0444.9431-122.93238269936Clb=4.8m/s t=-55.8C h=33.7% p=263.5hPa 401.378 MHz Type=RS41-SGP ser=U2230867 Radiosonde
KJ7NUX-14U22308672022-12-07 11:36:0344.9431-122.93241269930Clb=6.7m/s p=263.7hPa t=-55.7C h=38.4% 401.40MHz Type=RS41-SGP batt=2.7V Details on http://radiosondy.info
WA9ONY-14U22308672022-12-07 11:36:0244.9431-122.93241289930Clb=6.7m/s p=263.7hPa t=-55.7C h=38.4% 401.40MHz Type=RS41-SGP Join https://groups.io/g/Balloons
WA9ONY-10U22308672022-12-07 11:36:0144.943-122.93246289922Clb=8.1m/s p=264.0hPa t=-55.7C h=38.0% 401.40MHz Type=RS41-SGP Join https://groups.io/g/Balloons
W7BDB-13U22308672022-12-07 11:35:5544.9428-122.93239269889Clb=4.8m/s p=265.4hPa t=-55.4C h=37.4% 401.40MHz Type=RS41-SGP Details on http://radiosondy.info
KE7WWCU22308672022-12-07 11:35:5444.9427-122.93335289878Clb=5.2m/s t=-55.4C h=31.8% p=265.9hPa 401.375 MHz Type=RS41-SGP ser=U2230867 Radiosonde
WA9ONY-14U22308672022-12-07 11:35:5244.9426-122.93339269873Clb=5.7m/s p=266.1hPa t=-55.3C h=37.0% 401.40MHz Type=RS41-SGP Join https://groups.io/g/Balloons
WA9ONY-10U22308672022-12-07 11:35:5144.9425-122.93337269867Clb=5.2m/s p=266.3hPa t=-55.2C h=37.0% 401.40MHz Type=RS41-SGP Join https://groups.io/g/Balloons
KJ7NUX-14U22308672022-12-07 11:35:4644.9423-122.93330289842Clb=5.5m/s p=267.4hPa t=-55.0C h=36.5% 401.40MHz Type=RS41-SGP Details on http://radiosondy.info
WA9ONY-14U22308672022-12-07 11:35:4244.9421-122.93346309822Clb=5.0m/s p=268.2hPa t=-54.8C h=36.3% 401.40MHz Type=RS41-SGP batt=2.7V Join https://groups.io/g/Balloons
KG7GDB-12U22308672022-12-07 11:35:4144.942-122.93345289817Clb=4.8m/s t=-54.9C h=31.3% p=268.4hPa 401.401 MHz Type=RS41-SGP ser=U2230867 Radiosonde
W7BDB-13U22308672022-12-07 11:35:4044.942-122.93345309812Clb=5.0m/s p=268.6hPa t=-54.8C h=36.1% 401.40MHz Type=RS41-SGP Details on http://radiosondy.info
WA9ONY-14U22308672022-12-07 11:35:3244.9415-122.93447289767Clb=6.4m/s p=270.4hPa t=-54.4C h=33.8% 401.40MHz Type=RS41-SGP Join https://groups.io/g/Balloons
KJ7NUX-14U22308672022-12-07 11:35:3144.9414-122.93450289755Clb=4.9m/s p=271.1hPa t=-54.3C h=33.6% 401.40MHz Type=RS41-SGP Details on http://radiosondy.info
W7BDB-12U22308672022-12-07 11:35:2744.9411-122.93430269721Clb=6.7m/s t=-54.1C h=28.6% p=272.5hPa 401.399 MHz Type=RS41-SGP ser=U2230867 Radiosonde
W7BDB-13U22308672022-12-07 11:35:2444.9411-122.93431269721Clb=6.6m/s p=272.4hPa t=-54.0C h=33.4% 401.40MHz Type=RS41-SGP batt=2.7V Details on http://radiosondy.info
KE7WWCU22308672022-12-07 11:35:2344.941-122.93416209707Clb=6.3m/s t=-54.0C h=28.5% p=272.9hPa 401.375 MHz Type=RS41-SGP ser=U2230867 Radiosonde
WA9ONY-14U22308672022-12-07 11:35:2244.941-122.93417289707Clb=6.3m/s p=272.9hPa t=-53.9C h=33.3% 401.40MHz Type=RS41-SGP Join https://groups.io/g/Balloons
WA9ONY-10U22308672022-12-07 11:35:2144.941-122.93412289701Clb=6.1m/s p=273.2hPa t=-53.9C h=33.4% 401.40MHz Type=RS41-SGP Join https://groups.io/g/Balloons
KJ7NUX-14U22308672022-12-07 11:35:1444.9405-122.93529229659Clb=6.9m/s p=275.1hPa t=-53.5C h=32.3% 401.40MHz Type=RS41-SGP TxPastBurst=8h30m batt=2.7V Details on http://radiosondy.info
WA9ONY-14U22308672022-12-07 11:35:1244.9404-122.93524229644Clb=7.6m/s p=275.6hPa t=-53.4C h=31.7% 401.40MHz Type=RS41-SGP TxPastBurst=8h30m batt=2.7V Join https://groups.io/g/Balloons
WA9ONY-10U22308672022-12-07 11:35:1144.9403-122.93518229637Clb=6.8m/s p=275.9hPa t=-53.3C h=31.9% 401.40MHz Type=RS41-SGP TxPastBurst=8h30m batt=2.7V Join https://groups.io/g/Balloons
KG7GDB-12U22308672022-12-07 11:35:1044.9403-122.93515249630Clb=7.2m/s t=-53.3C h=27.3% p=276.3hPa 401.401 MHz Type=RS41-SGP ser=U2230867 Radiosonde
W7BDB-13U22308672022-12-07 11:35:0844.9402-122.93523229617Clb=5.6m/s p=276.9hPa t=-53.2C h=32.0% 401.40MHz Type=RS41-SGP Details on http://radiosondy.info
WA9ONY-14U22308672022-12-07 11:35:0244.9399-122.93522249580Clb=5.1m/s p=278.3hPa t=-52.9C h=31.1% 401.40MHz Type=RS41-SGP Join https://groups.io/g/Balloons
k6gdp-12U22308672022-12-07 11:35:0144.9399-122.93513199575Clb=6.9m/s t=-52.9C h=26.3% p=278.7hPa 401.378 MHz Type=RS41-SGP ser=U2230867 Radiosonde
K6GDP-11U22308672022-12-07 11:35:0044.9398-122.93514209562Clb=7.7m/s t=-52.8C h=26.0% p=279.2hPa 401.400 MHz Type=RS41-SGP ser=U2230867 Radiosonde
KJ7NUX-14U22308672022-12-07 11:34:5844.9397-122.93525269555Clb=7.3m/s p=279.5hPa t=-52.7C h=30.3% 401.40MHz Type=RS41-SGP Details on http://radiosondy.info
W7BDB-13U22308672022-12-07 11:34:5344.9394-122.93513269526Clb=4.1m/s p=280.8hPa t=-52.5C h=30.7% 401.40MHz Type=RS41-SGP Details on http://radiosondy.info
WA9ONY-14U22308672022-12-07 11:34:5244.9393-122.9359269521Clb=5.1m/s p=280.9hPa t=-52.5C h=30.6% 401.40MHz Type=RS41-SGP Join https://groups.io/g/Balloons
WA9ONY-10U22308672022-12-07 11:34:5144.9393-122.9357269516Clb=5.5m/s p=281.2hPa t=-52.4C h=30.5% 401.40MHz Type=RS41-SGP Join https://groups.io/g/Balloons
KJ7NUX-14U22308672022-12-07 11:34:4344.9387-122.93619289471Clb=4.7m/s p=283.1hPa t=-52.1C h=30.3% 401.40MHz Type=RS41-SGP Details on http://radiosondy.info
k6gdp-12U22308672022-12-07 11:34:4244.9379-122.93627289404Clb=6.4m/s t=-51.6C h=26.3% p=286.1hPa 401.378 MHz Type=RS41-SGP ser=U2230867 Radiosonde
KJ7NUX-14U22308672022-12-07 11:34:4144.9367-122.93727269297Clb=5.2m/s p=290.9hPa t=-50.7C h=28.2% 401.40MHz Type=RS41-SGP Details on http://radiosondy.info
KJ7NUX-14U22308672022-12-07 11:34:4044.9356-122.93822319190Clb=4.2m/s p=295.7hPa t=-49.7C h=24.6% 401.40MHz Type=RS41-SGP Details on http://radiosondy.info
WA9ONY-14U22308672022-12-07 11:34:3644.9349-122.93820359133Clb=6.0m/s p=298.4hPa t=-49.2C h=23.2% 401.40MHz Type=RS41-SGP TxPastBurst=8h30m batt=2.7V Join https://groups.io/g/Balloons
WA9ONY-10U22308672022-12-07 11:34:3544.9349-122.93822359128Clb=3.2m/s p=298.5hPa t=-49.2C h=23.4% 401.40MHz Type=RS41-SGP TxPastBurst=8h30m batt=2.7V Join https://groups.io/g/Balloons
KJ7NUX-14U22308672022-12-07 11:34:3044.9345-122.93941319105Clb=5.2m/s p=299.7hPa t=-49.0C h=23.1% 401.40MHz Type=RS41-SGP batt=2.7V Details on http://radiosondy.info
WA9ONY-14U22308672022-12-07 11:34:2744.9342-122.93926269088Clb=7.5m/s p=300.5hPa t=-48.9C h=22.9% 401.40MHz Type=RS41-SGP Join https://groups.io/g/Balloons
WA9ONY-10U22308672022-12-07 11:34:2644.9341-122.93921289079Clb=8.9m/s p=300.8hPa t=-48.8C h=22.6% 401.40MHz Type=RS41-SGP Join https://groups.io/g/Balloons
k6gdp-12U22308672022-12-07 11:34:2144.9339-122.939355209056Clb=7.4m/s t=-48.7C h=18.7% p=301.9hPa 401.378 MHz Type=RS41-SGP ser=U2230867 Radiosonde
K6GDP-11U22308672022-12-07 11:34:1944.9338-122.93921199043Clb=6.9m/s t=-48.5C h=18.7% p=302.5hPa 401.400 MHz Type=RS41-SGP ser=U2230867 Radiosonde
WA9ONY-14U22308672022-12-07 11:34:1244.9336-122.93947359014Clb=8.0m/s p=303.8hPa t=-48.3C h=20.9% 401.40MHz Type=RS41-SGP Join https://groups.io/g/Balloons
W7BDB-13U22308672022-12-07 11:34:1144.9335-122.93942339007Clb=7.5m/s p=304.0hPa t=-48.2C h=20.8% 401.40MHz Type=RS41-SGP Details on http://radiosondy.info
KJ7NUX-14U22308672022-12-07 11:34:0544.9333-122.9415318988Clb=4.6m/s p=305.0hPa t=-48.0C h=20.0% 401.40MHz Type=RS41-SGP Details on http://radiosondy.info
WA9ONY-14U22308672022-12-07 11:33:5544.9328-122.9430288950Clb=6.0m/s p=306.6hPa t=-47.7C h=20.0% 401.40MHz Type=RS41-SGP batt=2.7V Join https://groups.io/g/Balloons
WA9ONY-10U22308672022-12-07 11:33:5344.9327-122.9431268945Clb=4.1m/s p=307.0hPa t=-47.7C h=20.4% 401.40MHz Type=RS41-SGP batt=2.7V Join https://groups.io/g/Balloons
KG7GDB-12U22308672022-12-07 11:33:4444.9324-122.9429178918Clb=4.0m/s t=-47.5C h=17.1% p=308.3hPa 401.401 MHz Type=RS41-SGP ser=U2230867 Radiosonde
W7BDB-13U22308672022-12-07 11:33:4344.9323-122.9430318918Clb=3.9m/s p=308.2hPa t=-47.5C h=20.1% 401.40MHz Type=RS41-SGP batt=2.7V Details on http://radiosondy.info
KJ7NUX-14U22308672022-12-07 11:33:3944.9322-122.9425358907Clb=3.8m/s p=308.8hPa t=-47.4C h=20.1% 401.40MHz Type=RS41-SGP Details on http://radiosondy.info
WA9ONY-14U22308672022-12-07 11:33:3844.9322-122.9425338907Clb=3.8m/s p=308.8hPa t=-47.4C h=20.1% 401.40MHz Type=RS41-SGP Join https://groups.io/g/Balloons
WA9ONY-10U22308672022-12-07 11:33:3744.9322-122.9427338902Clb=6.0m/s p=308.9hPa t=-47.3C h=19.5% 401.40MHz Type=RS41-SGP Join https://groups.io/g/Balloons
k6gdp-12U22308672022-12-07 11:33:2944.9318-122.94127318858Clb=7.4m/s t=-47.1C h=16.6% p=311.0hPa 401.378 MHz Type=RS41-SGP ser=U2230867 Radiosonde
K6GDP-11U22308672022-12-07 11:33:2744.9317-122.94124318851Clb=5.8m/s t=-47.0C h=16.7% p=311.3hPa 401.400 MHz Type=RS41-SGP ser=U2230867 Radiosonde
WA9ONY-14U22308672022-12-07 11:33:2244.9315-122.94132398834Clb=5.0m/s p=312.2hPa t=-46.8C h=19.8% 401.40MHz Type=RS41-SGP Join https://groups.io/g/Balloons
WA9ONY-10U22308672022-12-07 11:33:2044.9314-122.94132398828Clb=5.8m/s p=312.4hPa t=-46.8C h=19.7% 401.40MHz Type=RS41-SGP Join https://groups.io/g/Balloons
W7BDB-13U22308672022-12-07 11:33:1744.9312-122.94127378813Clb=6.2m/s p=313.1hPa t=-46.7C h=19.3% 401.40MHz Type=RS41-SGP Details on http://radiosondy.info
KE7WWCU22308672022-12-07 11:33:1644.9311-122.94127418806Clb=6.6m/s t=-46.7C h=16.6% p=313.5hPa 401.375 MHz Type=RS41-SGP ser=U2230867 Radiosonde
KJ7NUX-14U22308672022-12-07 11:33:1444.931-122.94126398800Clb=6.6m/s p=313.7hPa t=-46.6C h=19.6% 401.40MHz Type=RS41-SGP TxPastBurst=8h30m batt=2.7V Details on http://radiosondy.info
WA9ONY-14U22308672022-12-07 11:33:0744.9306-122.94131378781Clb=3.8m/s p=314.6hPa t=-46.4C h=19.2% 401.40MHz Type=RS41-SGP batt=2.7V Join https://groups.io/g/Balloons
WA9ONY-10U22308672022-12-07 11:33:0644.9306-122.94231398778Clb=4.0m/s p=314.8hPa t=-46.4C h=19.0% 401.40MHz Type=RS41-SGP batt=2.7V Join https://groups.io/g/Balloons
KG7GDB-12U22308672022-12-07 11:32:5544.9299-122.94215448739Clb=3.9m/s t=-46.1C h=16.9% p=316.7hPa 401.401 MHz Type=RS41-SGP ser=U2230867 Radiosonde
W7BDB-13U22308672022-12-07 11:32:5144.9298-122.94214358735Clb=4.3m/s p=316.8hPa t=-46.1C h=19.6% 401.40MHz Type=RS41-SGP Details on http://radiosondy.info
WA9ONY-10U22308672022-12-07 11:32:5044.9297-122.94218338730Clb=5.8m/s p=317.1hPa t=-46.0C h=19.6% 401.40MHz Type=RS41-SGP Join https://groups.io/g/Balloons
KJ7NUX-14U22308672022-12-07 11:32:4844.9296-122.94226358725Clb=4.3m/s p=317.3hPa t=-46.0C h=19.6% 401.40MHz Type=RS41-SGP Details on http://radiosondy.info
k6gdp-12U22308672022-12-07 11:32:4044.9293-122.94235288703Clb=3.4m/s t=-45.8C h=15.9% p=318.4hPa 401.378 MHz Type=RS41-SGP ser=U2230867 Radiosonde
K6GDP-11U22308672022-12-07 11:32:3844.9292-122.94232308700Clb=4.1m/s t=-45.8C h=15.6% p=318.6hPa 401.400 MHz Type=RS41-SGP ser=U2230867 Radiosonde
WA9ONY-14U22308672022-12-07 11:32:3444.929-122.94327398689Clb=6.8m/s p=319.1hPa t=-45.6C h=17.5% 401.40MHz Type=RS41-SGP Join https://groups.io/g/Balloons
WA9ONY-10U22308672022-12-07 11:32:3344.929-122.94326398681Clb=9.1m/s p=319.4hPa t=-45.6C h=17.2% 401.40MHz Type=RS41-SGP Join https://groups.io/g/Balloons
W7BDB-12U22308672022-12-07 11:32:3244.9286-122.94325378652Clb=5.6m/s t=-45.4C h=14.5% p=320.9hPa 401.399 MHz Type=RS41-SGP ser=U2230867 Radiosonde
W7BDB-13U22308672022-12-07 11:32:2344.9285-122.94325438647Clb=6.2m/s p=321.0hPa t=-45.3C h=17.1% 401.40MHz Type=RS41-SGP batt=2.7V Details on http://radiosondy.info
KJ7NUX-14U22308672022-12-07 11:32:2144.9283-122.94323438635Clb=4.8m/s p=321.6hPa t=-45.2C h=17.3% 401.40MHz Type=RS41-SGP Details on http://radiosondy.info
WA9ONY-14U22308672022-12-07 11:32:1744.9282-122.94325448625Clb=3.6m/s p=322.0hPa t=-45.1C h=16.9% 401.40MHz Type=RS41-SGP TxPastBurst=8h30m batt=2.7V Join https://groups.io/g/Balloons
WA9ONY-10U22308672022-12-07 11:32:1544.9281-122.94321448620Clb=6.0m/s p=322.3hPa t=-45.1C h=16.5% 401.40MHz Type=RS41-SGP TxPastBurst=8h30m batt=2.7V Join https://groups.io/g/Balloons
KG7GDB-12U22308672022-12-07 11:32:0444.9272-122.94429308578Clb=6.9m/s t=-44.8C h=13.8% p=324.4hPa 401.401 MHz Type=RS41-SGP ser=U2230867 Radiosonde
WA9ONY-14U22308672022-12-07 11:32:0244.9272-122.94424378572Clb=6.5m/s p=324.7hPa t=-44.8C h=16.2% 401.40MHz Type=RS41-SGP Join https://groups.io/g/Balloons
WA9ONY-10U22308672022-12-07 11:32:0144.9271-122.94417378565Clb=6.3m/s p=325.0hPa t=-44.7C h=16.2% 401.40MHz Type=RS41-SGP Join https://groups.io/g/Balloons
W7BDB-13U22308672022-12-07 11:32:0044.927-122.94417338559Clb=5.8m/s p=325.4hPa t=-44.7C h=16.1% 401.40MHz Type=RS41-SGP Details on http://radiosondy.info
KJ7NUX-14U22308672022-12-07 11:31:5844.9268-122.94415358545Clb=7.2m/s p=326.0hPa t=-44.5C h=16.4% 401.40MHz Type=RS41-SGP batt=2.7V Details on http://radiosondy.info
k6gdp-12U22308672022-12-07 11:31:5544.9264-122.94415418523Clb=5.7m/s t=-44.4C h=14.7% p=327.1hPa 401.378 MHz Type=RS41-SGP ser=U2230867 Radiosonde
K6GDP-11U22308672022-12-07 11:31:5444.9263-122.94416418519Clb=4.3m/s t=-44.4C h=15.0% p=327.3hPa 401.400 MHz Type=RS41-SGP ser=U2230867 Radiosonde
WA9ONY-14U22308672022-12-07 11:31:5244.9263-122.94417338515Clb=3.5m/s p=327.5hPa t=-44.3C h=17.6% 401.40MHz Type=RS41-SGP Join https://groups.io/g/Balloons
WA9ONY-10U22308672022-12-07 11:31:5144.9262-122.94418338510Clb=5.7m/s p=327.7hPa t=-44.3C h=17.5% 401.40MHz Type=RS41-SGP Join https://groups.io/g/Balloons
W7BDB-13U22308672022-12-07 11:31:4544.9258-122.94440378481Clb=3.5m/s p=329.1hPa t=-44.0C h=17.5% 401.40MHz Type=RS41-SGP Details on http://radiosondy.info
KJ7NUX-14U22308672022-12-07 11:31:4344.9256-122.94534398464Clb=7.1m/s p=329.9hPa t=-43.9C h=17.2% 401.40MHz Type=RS41-SGP Details on http://radiosondy.info
WA9ONY-14U22308672022-12-07 11:31:4244.9256-122.94534338464Clb=7.1m/s p=329.9hPa t=-43.9C h=17.2% 401.40MHz Type=RS41-SGP batt=2.7V Join https://groups.io/g/Balloons
WA9ONY-10U22308672022-12-07 11:31:4144.9255-122.94533358456Clb=7.7m/s p=330.3hPa t=-43.8C h=17.2% 401.40MHz Type=RS41-SGP batt=2.7V Join https://groups.io/g/Balloons
KG7GDB-12U22308672022-12-07 11:31:3244.9248-122.94522488405Clb=5.1m/s t=-43.4C h=15.0% p=332.8hPa 401.401 MHz Type=RS41-SGP ser=U2230867 Radiosonde
WA9ONY-10U22308672022-12-07 11:31:3144.9247-122.94525338401Clb=3.9m/s p=333.1hPa t=-43.3C h=17.3% 401.40MHz Type=RS41-SGP Join https://groups.io/g/Balloons
W7BDB-13U22308672022-12-07 11:31:3044.9246-122.94526358396Clb=5.1m/s p=333.2hPa t=-43.2C h=17.3% 401.40MHz Type=RS41-SGP TxPastBurst=8h30m batt=2.7V Details on http://radiosondy.info
KJ7NUX-14U22308672022-12-07 11:31:2644.9242-122.94642318373Clb=8.6m/s p=334.4hPa t=-43.0C h=16.8% 401.40MHz Type=RS41-SGP Details on http://radiosondy.info
k6gdp-12U22308672022-12-07 11:31:2444.9241-122.94621208351Clb=4.8m/s t=-42.9C h=14.8% p=335.5hPa 401.378 MHz Type=RS41-SGP ser=U2230867 Radiosonde
K6GDP-11U22308672022-12-07 11:31:2344.924-122.94617228345Clb=6.6m/s t=-42.8C h=14.7% p=335.7hPa 401.400 MHz Type=RS41-SGP ser=U2230867 Radiosonde
WA9ONY-10U22308672022-12-07 11:31:2144.924-122.94620358339Clb=6.6m/s p=336.1hPa t=-42.7C h=17.0% 401.40MHz Type=RS41-SGP Join https://groups.io/g/Balloons
W7BDB-12U22308672022-12-07 11:31:1844.9235-122.94626398302Clb=6.1m/s t=-42.5C h=14.8% p=337.9hPa 401.399 MHz Type=RS41-SGP ser=U2230867 Radiosonde
W7BDB-13U22308672022-12-07 11:31:1544.9235-122.94627358302Clb=6.0m/s p=337.9hPa t=-42.4C h=17.0% 401.40MHz Type=RS41-SGP Details on http://radiosondy.info
KE7WWCU22308672022-12-07 11:31:1444.9233-122.94639378293Clb=5.1m/s t=-42.4C h=15.0% p=338.5hPa 401.375 MHz Type=RS41-SGP ser=U2230867 Radiosonde
WA9ONY-14U22308672022-12-07 11:31:1244.9233-122.94647318289Clb=4.3m/s p=338.7hPa t=-42.3C h=17.4% 401.40MHz Type=RS41-SGP batt=2.7V Join https://groups.io/g/Balloons
WA9ONY-10U22308672022-12-07 11:31:1144.9232-122.94647338284Clb=3.9m/s p=338.8hPa t=-42.3C h=17.2% 401.40MHz Type=RS41-SGP batt=2.7V Join https://groups.io/g/Balloons
KJ7NUX-14U22308672022-12-07 11:31:1044.9232-122.94641318280Clb=5.0m/s p=339.0hPa t=-42.2C h=17.1% 401.40MHz Type=RS41-SGP batt=2.7V Details on http://radiosondy.info
WA9ONY-14U22308672022-12-07 11:31:0244.9225-122.94734308228Clb=4.4m/s p=341.8hPa t=-41.8C h=17.6% 401.40MHz Type=RS41-SGP Join https://groups.io/g/Balloons
WA9ONY-10U22308672022-12-07 11:31:0144.9225-122.94733308222Clb=7.4m/s p=342.0hPa t=-41.8C h=17.6% 401.40MHz Type=RS41-SGP Join https://groups.io/g/Balloons
W7BDB-13U22308672022-12-07 11:30:5944.9223-122.94716268208Clb=6.7m/s p=342.8hPa t=-41.7C h=17.8% 401.40MHz Type=RS41-SGP Details on http://radiosondy.info
KJ7NUX-14U22308672022-12-07 11:30:5444.922-122.94743248175Clb=6.8m/s p=344.3hPa t=-41.5C h=19.1% 401.40MHz Type=RS41-SGP Details on http://radiosondy.info
WA9ONY-14U22308672022-12-07 11:30:5244.9219-122.94738248161Clb=7.6m/s p=345.1hPa t=-41.4C h=19.8% 401.40MHz Type=RS41-SGP Join https://groups.io/g/Balloons
K6GDP-11U22308672022-12-07 11:30:5144.9218-122.94732318155Clb=5.7m/s t=-41.5C h=17.6% p=345.4hPa 401.400 MHz Type=RS41-SGP ser=U2230867 Radiosonde
W7BDB-13U22308672022-12-07 11:30:4344.9214-122.947353208113Clb=2.7m/s p=347.6hPa t=-41.1C h=21.7% 401.40MHz Type=RS41-SGP batt=2.7V Details on http://radiosondy.info
WA9ONY-14U22308672022-12-07 11:30:4244.9213-122.947349228111Clb=4.8m/s p=347.7hPa t=-41.1C h=21.5% 401.40MHz Type=RS41-SGP TxPastBurst=8h30m batt=2.7V Join https://groups.io/g/Balloons
WA9ONY-10U22308672022-12-07 11:30:4144.9213-122.947355228105Clb=5.6m/s p=347.9hPa t=-41.1C h=21.4% 401.40MHz Type=RS41-SGP TxPastBurst=8h30m batt=2.7V Join https://groups.io/g/Balloons
KJ7NUX-14U22308672022-12-07 11:30:3944.9212-122.94742228084Clb=5.0m/s p=349.0hPa t=-41.0C h=21.9% 401.40MHz Type=RS41-SGP Details on http://radiosondy.info
WA9ONY-14U22308672022-12-07 11:30:3244.9209-122.94842228039Clb=7.9m/s p=351.3hPa t=-40.7C h=22.5% 401.40MHz Type=RS41-SGP Join https://groups.io/g/Balloons
WA9ONY-10U22308672022-12-07 11:30:3144.9208-122.94845228032Clb=6.9m/s p=351.6hPa t=-40.7C h=23.1% 401.40MHz Type=RS41-SGP Join https://groups.io/g/Balloons
KG7GDB-12U22308672022-12-07 11:30:3044.9208-122.94842158026Clb=4.8m/s t=-40.7C h=21.3% p=352.0hPa 401.401 MHz Type=RS41-SGP ser=U2230867 Radiosonde
W7BDB-13U22308672022-12-07 11:30:2844.9207-122.94826268017Clb=4.4m/s p=352.4hPa t=-40.7C h=24.7% 401.40MHz Type=RS41-SGP Details on http://radiosondy.info
KJ7NUX-14U22308672022-12-07 11:30:2244.9205-122.94863287986Clb=3.7m/s p=354.1hPa t=-40.5C h=26.5% 401.40MHz Type=RS41-SGP TxPastBurst=8h30m batt=2.7V Details on http://radiosondy.info
WA9ONY-10U22308672022-12-07 11:30:2144.9205-122.94865307982Clb=3.6m/s p=354.4hPa t=-40.5C h=26.5% 401.40MHz Type=RS41-SGP Join https://groups.io/g/Balloons
K6GDP-11U22308672022-12-07 11:30:2044.9204-122.94968267978Clb=5.2m/s t=-40.5C h=24.0% p=354.6hPa 401.400 MHz Type=RS41-SGP ser=U2230867 Radiosonde
W7BDB-13U22308672022-12-07 11:30:1344.9201-122.94930287933Clb=6.4m/s p=356.8hPa t=-40.2C h=26.2% 401.40MHz Type=RS41-SGP Details on http://radiosondy.info
WA9ONY-14U22308672022-12-07 11:30:1244.92-122.94930287927Clb=6.2m/s p=357.1hPa t=-40.2C h=26.4% 401.40MHz Type=RS41-SGP batt=2.9V Join https://groups.io/g/Balloons
WA9ONY-10U22308672022-12-07 11:30:1144.9199-122.94937267921Clb=4.9m/s p=357.5hPa t=-40.1C h=26.5% 401.40MHz Type=RS41-SGP batt=2.7V Join https://groups.io/g/Balloons
KJ7NUX-14U22308672022-12-07 11:30:0644.9197-122.94941287893Clb=5.5m/s p=358.8hPa t=-40.0C h=27.1% 401.40MHz Type=RS41-SGP Details on http://radiosondy.info
WA9ONY-14U22308672022-12-07 11:30:0244.9195-122.9540287874Clb=5.9m/s p=360.0hPa t=-39.8C h=28.0% 401.40MHz Type=RS41-SGP Join https://groups.io/g/Balloons
WA9ONY-10U22308672022-12-07 11:30:0144.9195-122.9529267869Clb=4.0m/s p=360.2hPa t=-39.8C h=28.3% 401.40MHz Type=RS41-SGP Join https://groups.io/g/Balloons
KG7GDB-12U22308672022-12-07 11:29:5944.9193-122.9510307861Clb=4.3m/s t=-39.8C h=24.9% p=360.7hPa 401.401 MHz Type=RS41-SGP ser=U2230867 Radiosonde
W7BDB-13U22308672022-12-07 11:29:5844.9193-122.9514287858Clb=2.7m/s p=360.9hPa t=-39.7C h=27.3% 401.40MHz Type=RS41-SGP batt=2.9V Details on http://radiosondy.info
WA9ONY-10U22308672022-12-07 11:29:5444.9189-122.9578287821Clb=6.5m/s p=362.8hPa t=-39.4C h=26.7% 401.40MHz Type=RS41-SGP Join https://groups.io/g/Balloons
KE7WWCU22308672022-12-07 11:29:5344.9184-122.95149247757Clb=6.0m/s t=-38.9C h=25.6% p=366.2hPa 401.375 MHz Type=RS41-SGP ser=U2230867 Radiosonde
KG7GDB-12U22308672022-12-07 11:29:5244.918-122.95240357683Clb=5.2m/s t=-38.4C h=28.4% p=370.1hPa 401.401 MHz Type=RS41-SGP ser=U2230867 Radiosonde
W7BDB-13U22308672022-12-07 11:29:5144.9179-122.95248227672Clb=4.2m/s p=370.6hPa t=-38.4C h=32.2% 401.40MHz Type=RS41-SGP Details on http://radiosondy.info
WA9ONY-14U22308672022-12-07 11:29:4844.9177-122.95248197649Clb=6.2m/s p=371.9hPa t=-38.3C h=31.4% 401.40MHz Type=RS41-SGP Join https://groups.io/g/Balloons
WA9ONY-10U22308672022-12-07 11:29:4744.9176-122.95238197642Clb=7.8m/s p=372.1hPa t=-38.2C h=31.1% 401.40MHz Type=RS41-SGP Join https://groups.io/g/Balloons
k6gdp-12U22308672022-12-07 11:29:4644.9176-122.95345177627Clb=6.7m/s t=-38.2C h=29.7% p=373.0hPa 401.378 MHz Type=RS41-SGP ser=U2230867 Radiosonde
KJ7NUX-14U22308672022-12-07 11:29:4544.9175-122.95358197622Clb=4.6m/s p=373.3hPa t=-38.1C h=33.0% 401.40MHz Type=RS41-SGP Details on http://radiosondy.info
W7BDB-12U22308672022-12-07 11:29:4344.9176-122.953105207596Clb=4.0m/s t=-38.0C h=32.0% p=374.8hPa 401.399 MHz Type=RS41-SGP ser=U2230867 Radiosonde
WA9ONY-14U22308672022-12-07 11:29:4044.9176-122.953106207596Clb=4.0m/s p=374.8hPa t=-38.0C h=34.7% 401.40MHz Type=RS41-SGP TxPastBurst=8h30m batt=2.9V Join https://groups.io/g/Balloons
W7BDB-13U22308672022-12-07 11:29:3944.9176-122.95387247592Clb=3.9m/s p=375.1hPa t=-37.9C h=34.4% 401.40MHz Type=RS41-SGP TxPastBurst=8h30m batt=2.9V Details on http://radiosondy.info
KE7WWCU22308672022-12-07 11:29:3844.9176-122.95362307582Clb=6.7m/s t=-37.9C h=31.9% p=375.5hPa 401.375 MHz Type=RS41-SGP ser=U2230867 Radiosonde
WA9ONY-14U22308672022-12-07 11:29:2844.9175-122.953139267543Clb=8.6m/s p=377.8hPa t=-37.6C h=35.6% 401.40MHz Type=RS41-SGP Join https://groups.io/g/Balloons
WA9ONY-10U22308672022-12-07 11:29:2644.9175-122.954129247536Clb=7.2m/s p=378.2hPa t=-37.5C h=35.9% 401.40MHz Type=RS41-SGP Join https://groups.io/g/Balloons
KG7GDB-12U22308672022-12-07 11:29:2044.9176-122.95482307513Clb=4.6m/s t=-37.4C h=33.8% p=379.6hPa 401.401 MHz Type=RS41-SGP ser=U2230867 Radiosonde
W7BDB-13U22308672022-12-07 11:29:1844.9176-122.95473177510Clb=5.2m/s p=379.6hPa t=-37.3C h=36.3% 401.40MHz Type=RS41-SGP Details on http://radiosondy.info
WA9ONY-14U22308672022-12-07 11:29:1244.9175-122.954360197487Clb=6.0m/s p=380.7hPa t=-37.2C h=36.6% 401.40MHz Type=RS41-SGP Join https://groups.io/g/Balloons
WA9ONY-10U22308672022-12-07 11:29:1144.9175-122.954295197482Clb=6.2m/s p=381.1hPa t=-37.1C h=36.8% 401.40MHz Type=RS41-SGP Join https://groups.io/g/Balloons
k6gdp-12U22308672022-12-07 11:29:0744.9175-122.95497177465Clb=5.5m/s t=-37.0C h=34.8% p=382.0hPa 401.378 MHz Type=RS41-SGP ser=U2230867 Radiosonde
K6GDP-11U22308672022-12-07 11:29:0644.9175-122.95493227460Clb=5.6m/s t=-37.0C h=34.4% p=382.3hPa 401.400 MHz Type=RS41-SGP ser=U2230867 Radiosonde
KJ7NUX-14U22308672022-12-07 11:29:0544.9175-122.95494267455Clb=5.9m/s p=382.5hPa t=-36.9C h=36.7% 401.40MHz Type=RS41-SGP batt=2.7V Details on http://radiosondy.info
WA9ONY-14U22308672022-12-07 11:28:5844.9175-122.95585247433Clb=4.8m/s p=383.7hPa t=-36.7C h=37.2% 401.40MHz Type=RS41-SGP batt=2.9V Join https://groups.io/g/Balloons
W7BDB-13U22308672022-12-07 11:28:5744.9175-122.95582227430Clb=3.7m/s p=383.8hPa t=-36.7C h=37.1% 401.40MHz Type=RS41-SGP Details on http://radiosondy.info
KE7WWCU22308672022-12-07 11:28:4744.9179-122.955151207382Clb=6.6m/s t=-36.2C h=34.5% p=386.7hPa 401.375 MHz Type=RS41-SGP ser=U2230867 Radiosonde
WA9ONY-14U22308672022-12-07 11:28:4444.9179-122.955158267376Clb=5.1m/s p=386.9hPa t=-36.1C h=37.2% 401.40MHz Type=RS41-SGP Join https://groups.io/g/Balloons
WA9ONY-10U22308672022-12-07 11:28:4344.918-122.955136287370Clb=6.0m/s p=387.2hPa t=-36.1C h=37.1% 401.40MHz Type=RS41-SGP Join https://groups.io/g/Balloons
KJ7NUX-14U22308672022-12-07 11:28:4144.918-122.95578337364Clb=8.4m/s p=387.5hPa t=-36.0C h=37.6% 401.40MHz Type=RS41-SGP Details on http://radiosondy.info
KG7GDB-12U22308672022-12-07 11:28:3544.9179-122.956100317335Clb=7.7m/s t=-36.0C h=39.9% p=389.2hPa 401.401 MHz Type=RS41-SGP ser=U2230867 Radiosonde
W7BDB-13U22308672022-12-07 11:28:3344.918-122.956115377329Clb=6.3m/s p=389.5hPa t=-36.0C h=44.4% 401.40MHz Type=RS41-SGP batt=2.9V Details on http://radiosondy.info
WA9ONY-14U22308672022-12-07 11:28:2844.9181-122.956125337308Clb=5.1m/s p=390.6hPa t=-36.2C h=49.4% 401.40MHz Type=RS41-SGP Join https://groups.io/g/Balloons
WA9ONY-10U22308672022-12-07 11:28:2744.9182-122.956123317305Clb=2.9m/s p=390.9hPa t=-36.2C h=49.9% 401.40MHz Type=RS41-SGP Join https://groups.io/g/Balloons
k6gdp-12U22308672022-12-07 11:28:2244.9184-122.95796287279Clb=4.8m/s t=-36.1C h=48.7% p=392.4hPa 401.378 MHz Type=RS41-SGP ser=U2230867 Radiosonde
K6GDP-11U22308672022-12-07 11:28:2144.9184-122.95796287279Clb=4.8m/s t=-36.1C h=48.7% p=392.4hPa 401.400 MHz Type=RS41-SGP ser=U2230867 Radiosonde
KJ7NUX-14U22308672022-12-07 11:28:1744.9184-122.957119267266Clb=6.7m/s p=393.0hPa t=-36.0C h=52.3% 401.40MHz Type=RS41-SGP Details on http://radiosondy.info
WA9ONY-14U22308672022-12-07 11:28:1444.9184-122.957162307253Clb=8.2m/s p=393.7hPa t=-35.9C h=51.9% 401.40MHz Type=RS41-SGP batt=2.7V Join https://groups.io/g/Balloons
WA9ONY-10U22308672022-12-07 11:28:1344.9185-122.957164317245Clb=7.8m/s p=394.2hPa t=-35.8C h=52.1% 401.40MHz Type=RS41-SGP batt=2.9V Join https://groups.io/g/Balloons
W7BDB-13U22308672022-12-07 11:28:1144.9185-122.957154287238Clb=6.1m/s p=394.6hPa t=-35.8C h=52.6% 401.40MHz Type=RS41-SGP Details on http://radiosondy.info
WA9ONY-14U22308672022-12-07 11:28:0244.9189-122.958141267198Clb=4.6m/s p=397.1hPa t=-35.6C h=48.1% 401.40MHz Type=RS41-SGP Join https://groups.io/g/Balloons
WA9ONY-10U22308672022-12-07 11:28:0144.919-122.958146267194Clb=5.1m/s p=397.2hPa t=-35.6C h=47.2% 401.40MHz Type=RS41-SGP Join https://groups.io/g/Balloons
KJ7NUX-14U22308672022-12-07 11:27:5844.9191-122.958122247173Clb=6.9m/s p=398.4hPa t=-35.4C h=47.4% 401.40MHz Type=RS41-SGP TxPastBurst=8h30m batt=2.9V Details on http://radiosondy.info
KG7GDB-12U22308672022-12-07 11:27:5544.9192-122.958115287153Clb=5.8m/s t=-35.3C h=44.4% p=399.6hPa 401.401 MHz Type=RS41-SGP ser=U2230867 Radiosonde
W7BDB-13U22308672022-12-07 11:27:5444.9192-122.958110247148Clb=3.0m/s p=399.7hPa t=-35.2C h=47.1% 401.40MHz Type=RS41-SGP Details on http://radiosondy.info
WA9ONY-14U22308672022-12-07 11:27:5244.9193-122.959106267142Clb=3.7m/s p=400.2hPa t=-35.1C h=46.7% 401.40MHz Type=RS41-SGP Join https://groups.io/g/Balloons
WA9ONY-10U22308672022-12-07 11:27:5144.9193-122.959106247138Clb=4.0m/s p=400.4hPa t=-35.1C h=46.7% 401.40MHz Type=RS41-SGP Join https://groups.io/g/Balloons
k6gdp-12U22308672022-12-07 11:27:4644.9194-122.959138197106Clb=7.1m/s t=-34.8C h=43.2% p=402.2hPa 401.378 MHz Type=RS41-SGP ser=U2230867 Radiosonde
K6GDP-11U22308672022-12-07 11:27:4544.9195-122.959148207100Clb=5.0m/s t=-34.8C h=43.1% p=402.6hPa 401.400 MHz Type=RS41-SGP ser=U2230867 Radiosonde
WA9ONY-14U22308672022-12-07 11:27:4244.9196-122.959144227085Clb=6.2m/s p=403.5hPa t=-34.6C h=46.2% 401.40MHz Type=RS41-SGP TxPastBurst=8h30m batt=2.9V Join https://groups.io/g/Balloons
W7BDB-13U22308672022-12-07 11:27:3844.9197-122.96106177061Clb=7.0m/s p=404.7hPa t=-34.4C h=45.3% 401.40MHz Type=RS41-SGP batt=2.9V Details on http://radiosondy.info
WA9ONY-14U22308672022-12-07 11:27:3244.9199-122.96141137031Clb=4.7m/s p=406.6hPa t=-34.1C h=45.8% 401.40MHz Type=RS41-SGP Join https://groups.io/g/Balloons
WA9ONY-10U22308672022-12-07 11:27:3144.9199-122.96134137026Clb=4.8m/s p=406.8hPa t=-34.1C h=45.2% 401.40MHz Type=RS41-SGP Join https://groups.io/g/Balloons
KJ7NUX-14U22308672022-12-07 11:27:2644.92-122.96121136994Clb=7.7m/s p=408.6hPa t=-33.8C h=28.8% 401.40MHz Type=RS41-SGP Details on http://radiosondy.info
KG7GDB-12U22308672022-12-07 11:27:2444.92-122.96120206979Clb=5.5m/s t=-33.7C h=22.1% p=409.6hPa 401.401 MHz Type=RS41-SGP ser=U2230867 Radiosonde
W7BDB-13U22308672022-12-07 11:27:2244.9201-122.96147116969Clb=5.6m/s p=410.2hPa t=-33.6C h=23.0% 401.40MHz Type=RS41-SGP Details on http://radiosondy.info
WA9ONY-10U22308672022-12-07 11:27:2144.9201-122.96156116963Clb=4.8m/s p=410.5hPa t=-33.5C h=22.4% 401.40MHz Type=RS41-SGP Join https://groups.io/g/Balloons
k6gdp-12U22308672022-12-07 11:27:1544.9201-122.96176176935Clb=5.9m/s t=-33.3C h=17.8% p=412.1hPa 401.378 MHz Type=RS41-SGP ser=U2230867 Radiosonde
K6GDP-11U22308672022-12-07 11:27:1444.9201-122.96186176929Clb=7.3m/s t=-33.3C h=17.2% p=412.5hPa 401.400 MHz Type=RS41-SGP ser=U2230867 Radiosonde
WA9ONY-14U22308672022-12-07 11:27:1244.9201-122.96111396915Clb=5.9m/s p=413.4hPa t=-33.1C h=17.2% 401.40MHz Type=RS41-SGP batt=2.9V Join https://groups.io/g/Balloons
WA9ONY-10U22308672022-12-07 11:27:1144.9201-122.961122116909Clb=6.5m/s p=413.7hPa t=-33.0C h=16.6% 401.40MHz Type=RS41-SGP batt=2.9V Join https://groups.io/g/Balloons
KJ7NUX-14U22308672022-12-07 11:27:1044.9201-122.961118156902Clb=6.7m/s p=414.1hPa t=-32.9C h=16.0% 401.40MHz Type=RS41-SGP batt=2.9V Details on http://radiosondy.info
W7BDB-13U22308672022-12-07 11:27:0744.9202-122.961102176887Clb=6.1m/s p=415.0hPa t=-32.8C h=15.7% 401.40MHz Type=RS41-SGP Details on http://radiosondy.info
WA9ONY-14U22308672022-12-07 11:27:0244.9203-122.961125206863Clb=7.2m/s p=416.5hPa t=-32.5C h=14.6% 401.40MHz Type=RS41-SGP Join https://groups.io/g/Balloons
WA9ONY-10U22308672022-12-07 11:27:0144.9203-122.961110206858Clb=5.6m/s p=416.7hPa t=-32.5C h=14.3% 401.40MHz Type=RS41-SGP Join https://groups.io/g/Balloons
KJ7NUX-14U22308672022-12-07 11:26:5444.9205-122.961175116817Clb=4.5m/s p=419.2hPa t=-32.2C h=13.7% 401.40MHz Type=RS41-SGP Details on http://radiosondy.info
KG7GDB-12U22308672022-12-07 11:26:5344.9206-122.961171226812Clb=4.1m/s t=-32.2C h=12.5% p=419.6hPa 401.401 MHz Type=RS41-SGP ser=U2230867 Radiosonde
W7BDB-13U22308672022-12-07 11:26:5244.9206-122.961167116809Clb=3.8m/s p=419.7hPa t=-32.1C h=13.9% 401.40MHz Type=RS41-SGP TxPastBurst=8h30m batt=2.9V Details on http://radiosondy.info
WA9ONY-10U22308672022-12-07 11:26:5144.9207-122.961150116805Clb=4.6m/s p=420.0hPa t=-32.1C h=14.2% 401.40MHz Type=RS41-SGP Join https://groups.io/g/Balloons
K6GDP-11U22308672022-12-07 11:26:4344.9207-122.96221546754Clb=4.6m/s t=-31.7C h=13.6% p=423.0hPa 401.400 MHz Type=RS41-SGP ser=U2230867 Radiosonde
WA9ONY-14U22308672022-12-07 11:26:4244.9207-122.962206136749Clb=5.7m/s p=423.2hPa t=-31.7C h=15.0% 401.40MHz Type=RS41-SGP batt=2.9V Join https://groups.io/g/Balloons
WA9ONY-10U22308672022-12-07 11:26:4144.9207-122.962199136744Clb=5.0m/s p=423.5hPa t=-31.6C h=15.1% 401.40MHz Type=RS41-SGP batt=2.9V Join https://groups.io/g/Balloons
KJ7NUX-14U22308672022-12-07 11:26:3844.9208-122.962139156727Clb=6.0m/s p=424.5hPa t=-31.5C h=16.0% 401.40MHz Type=RS41-SGP Details on http://radiosondy.info
W7BDB-13U22308672022-12-07 11:26:3744.9208-122.962106156721Clb=6.7m/s p=424.9hPa t=-31.5C h=16.6% 401.40MHz Type=RS41-SGP Details on http://radiosondy.info
WA9ONY-10U22308672022-12-07 11:26:3144.9209-122.962143156691Clb=5.0m/s p=426.6hPa t=-31.3C h=17.4% 401.40MHz Type=RS41-SGP Join https://groups.io/g/Balloons
W7BDB-13U22308672022-12-07 11:26:2244.9209-122.96252176643Clb=7.3m/s p=429.5hPa t=-30.8C h=17.1% 401.40MHz Type=RS41-SGP Details on http://radiosondy.info
WA9ONY-14U22308672022-12-07 11:26:2144.9209-122.96262156635Clb=7.4m/s p=429.9hPa t=-30.8C h=17.2% 401.40MHz Type=RS41-SGP Join https://groups.io/g/Balloons
k6gdp-12U22308672022-12-07 11:26:1344.9211-122.963175196583Clb=5.3m/s t=-30.3C h=15.2% p=433.2hPa 401.378 MHz Type=RS41-SGP ser=U2230867 Radiosonde
K6GDP-11U22308672022-12-07 11:26:1244.9211-122.963175196583Clb=5.3m/s t=-30.3C h=15.2% p=433.2hPa 401.400 MHz Type=RS41-SGP ser=U2230867 Radiosonde
WA9ONY-10U22308672022-12-07 11:26:1044.9212-122.963147196575Clb=4.7m/s p=433.6hPa t=-30.2C h=16.3% 401.40MHz Type=RS41-SGP TxPastBurst=8h30m batt=2.9V Join https://groups.io/g/Balloons
W7BDB-13U22308672022-12-07 11:26:0644.9213-122.963105176553Clb=5.3m/s p=435.0hPa t=-30.0C h=15.9% 401.40MHz Type=RS41-SGP batt=2.7V Details on http://radiosondy.info
WA9ONY-10U22308672022-12-07 11:26:0044.9213-122.96378176522Clb=6.2m/s p=436.9hPa t=-29.7C h=15.3% 401.40MHz Type=RS41-SGP Join https://groups.io/g/Balloons
W7BDB-13U22308672022-12-07 11:25:5144.9213-122.96417196478Clb=6.0m/s p=439.7hPa t=-29.3C h=15.0% 401.40MHz Type=RS41-SGP Details on http://radiosondy.info
WA9ONY-14U22308672022-12-07 11:25:5044.9214-122.96415896472Clb=6.4m/s p=440.2hPa t=-29.2C h=15.1% 401.40MHz Type=RS41-SGP Join https://groups.io/g/Balloons
k6gdp-12U22308672022-12-07 11:25:4244.9214-122.964226116423Clb=5.6m/s t=-28.8C h=13.3% p=443.1hPa 401.378 MHz Type=RS41-SGP ser=U2230867 Radiosonde
K6GDP-11U22308672022-12-07 11:25:4144.9215-122.96420996418Clb=5.1m/s t=-28.8C h=13.6% p=443.5hPa 401.400 MHz Type=RS41-SGP ser=U2230867 Radiosonde
WA9ONY-10U22308672022-12-07 11:25:4044.9215-122.964163116413Clb=6.0m/s p=443.7hPa t=-28.7C h=15.0% 401.40MHz Type=RS41-SGP batt=2.9V Join https://groups.io/g/Balloons
W7BDB-13U22308672022-12-07 11:25:3544.9215-122.96411496373Clb=8.4m/s p=446.1hPa t=-28.3C h=13.6% 401.40MHz Type=RS41-SGP Details on http://radiosondy.info
KJ7NUX-14U22308672022-12-07 11:25:3444.9215-122.96411796366Clb=7.5m/s p=446.5hPa t=-28.3C h=13.3% 401.40MHz Type=RS41-SGP TxPastBurst=8h30m batt=2.9V Details on http://radiosondy.info
WA9ONY-14U22308672022-12-07 11:25:3044.9215-122.96426996341Clb=5.0m/s p=448.1hPa t=-28.0C h=13.0% 401.40MHz Type=RS41-SGP Join https://groups.io/g/Balloons
KE7WWCU22308672022-12-07 11:25:2444.9216-122.96412896298Clb=5.7m/s t=-27.8C h=13.3% p=450.8hPa 401.375 MHz Type=RS41-SGP ser=U2230867 Radiosonde
k6gdp-12U22308672022-12-07 11:25:2244.9217-122.965102176240Clb=5.9m/s t=-27.3C h=15.9% p=454.6hPa 401.378 MHz Type=RS41-SGP ser=U2230867 Radiosonde
K6GDP-11U22308672022-12-07 11:25:2144.9217-122.96515766230Clb=7.1m/s t=-27.2C h=16.5% p=455.2hPa 401.400 MHz Type=RS41-SGP ser=U2230867 Radiosonde
W7BDB-12U22308672022-12-07 11:25:1944.9217-122.96561266190Clb=7.2m/s t=-27.0C h=15.3% p=457.6hPa 401.399 MHz Type=RS41-SGP ser=U2230867 Radiosonde
W7BDB-13U22308672022-12-07 11:25:1644.9217-122.96562206190Clb=7.2m/s p=457.5hPa t=-26.9C h=16.4% 401.40MHz Type=RS41-SGP Details on http://radiosondy.info
WA9ONY-14U22308672022-12-07 11:25:1444.9217-122.96580196174Clb=5.3m/s p=458.7hPa t=-26.8C h=16.9% 401.40MHz Type=RS41-SGP Join https://groups.io/g/Balloons
KE7WWCU22308672022-12-07 11:25:0444.9218-122.96698196123Clb=5.6m/s t=-26.4C h=15.8% p=461.9hPa 401.375 MHz Type=RS41-SGP ser=U2230867 Radiosonde
WA9ONY-14U22308672022-12-07 11:25:0144.9218-122.96696266117Clb=6.9m/s p=462.3hPa t=-26.3C h=16.8% 401.40MHz Type=RS41-SGP Join https://groups.io/g/Balloons
KG7GDB-12U22308672022-12-07 11:24:5944.9218-122.96687266105Clb=4.3m/s t=-26.2C h=15.9% p=463.0hPa 401.401 MHz Type=RS41-SGP ser=U2230867 Radiosonde
W7BDB-13U22308672022-12-07 11:24:5844.9218-122.96688206105Clb=4.3m/s p=463.0hPa t=-26.2C h=17.0% 401.40MHz Type=RS41-SGP Details on http://radiosondy.info
KJ7NUX-14U22308672022-12-07 11:24:5744.9218-122.96666196096Clb=4.3m/s p=463.5hPa t=-26.1C h=16.9% 401.40MHz Type=RS41-SGP batt=2.9V Details on http://radiosondy.info
k6gdp-12U22308672022-12-07 11:24:4944.9216-122.96656136065Clb=6.0m/s t=-25.9C h=14.9% p=465.6hPa 401.378 MHz Type=RS41-SGP ser=U2230867 Radiosonde
K6GDP-11U22308672022-12-07 11:24:4744.9216-122.96713976054Clb=5.7m/s t=-25.8C h=14.5% p=466.3hPa 401.400 MHz Type=RS41-SGP ser=U2230867 Radiosonde
W7BDB-13U22308672022-12-07 11:24:4044.9216-122.96743176015Clb=7.8m/s p=468.8hPa t=-25.4C h=13.9% 401.40MHz Type=RS41-SGP TxPastBurst=8h30m batt=2.9V Details on http://radiosondy.info
KJ7NUX-14U22308672022-12-07 11:24:3744.9216-122.96716196002Clb=5.8m/s p=469.7hPa t=-25.3C h=13.3% 401.40MHz Type=RS41-SGP Details on http://radiosondy.info
KE7WWCU22308672022-12-07 11:24:2444.9217-122.967107135954Clb=5.7m/s t=-25.0C h=10.3% p=472.8hPa 401.375 MHz Type=RS41-SGP ser=U2230867 Radiosonde
WA9ONY-10U22308672022-12-07 11:24:2344.9217-122.967108205954Clb=5.6m/s p=472.8hPa t=-24.9C h=11.1% 401.40MHz Type=RS41-SGP Join https://groups.io/g/Balloons
KG7GDB-12U22308672022-12-07 11:24:2044.9218-122.967105285935Clb=5.3m/s t=-24.9C h=9.7% p=474.0hPa 401.401 MHz Type=RS41-SGP ser=U2230867 Radiosonde
W7BDB-13U22308672022-12-07 11:24:1844.9218-122.968102195930Clb=4.1m/s p=474.2hPa t=-24.8C h=10.5% 401.40MHz Type=RS41-SGP Details on http://radiosondy.info
KJ7NUX-14U22308672022-12-07 11:24:1644.9218-122.96882195922Clb=4.2m/s p=474.8hPa t=-24.8C h=10.5% 401.40MHz Type=RS41-SGP Details on http://radiosondy.info
WA9ONY-10U22308672022-12-07 11:24:1144.9218-122.968101195900Clb=5.7m/s p=476.3hPa t=-24.6C h=10.3% 401.40MHz Type=RS41-SGP batt=2.9V Join https://groups.io/g/Balloons
WA9ONY-14U22308672022-12-07 11:24:1044.9218-122.968101195900Clb=5.7m/s p=476.3hPa t=-24.6C h=10.3% 401.40MHz Type=RS41-SGP batt=2.9V Join https://groups.io/g/Balloons
k6gdp-12U22308672022-12-07 11:24:0944.9218-122.968112175888Clb=6.1m/s t=-24.5C h=9.4% p=476.9hPa 401.378 MHz Type=RS41-SGP ser=U2230867 Radiosonde
K6GDP-11U22308672022-12-07 11:24:0844.9218-122.968102205882Clb=6.1m/s t=-24.5C h=9.3% p=477.4hPa 401.400 MHz Type=RS41-SGP ser=U2230867 Radiosonde
W7BDB-12U22308672022-12-07 11:24:0444.9218-122.96887205848Clb=7.8m/s t=-24.2C h=9.7% p=479.7hPa 401.399 MHz Type=RS41-SGP ser=U2230867 Radiosonde
W7BDB-13U22308672022-12-07 11:24:0144.9218-122.96888205848Clb=7.8m/s p=479.7hPa t=-24.2C h=10.4% 401.40MHz Type=RS41-SGP Details on http://radiosondy.info
WA9ONY-14U22308672022-12-07 11:24:0044.9218-122.969100225841Clb=6.9m/s p=480.1hPa t=-24.1C h=10.5% 401.40MHz Type=RS41-SGP Join https://groups.io/g/Balloons
KJ7NUX-14U22308672022-12-07 11:23:5844.9218-122.96991205830Clb=3.5m/s p=480.9hPa t=-24.0C h=10.4% 401.40MHz Type=RS41-SGP batt=2.9V Details on http://radiosondy.info
WA9ONY-14U22308672022-12-07 11:23:5044.9216-122.969126195788Clb=4.8m/s p=483.7hPa t=-23.7C h=10.5% 401.40MHz Type=RS41-SGP Join https://groups.io/g/Balloons
KE7WWCU22308672022-12-07 11:23:4944.9216-122.969124135783Clb=6.1m/s t=-23.7C h=9.6% p=484.1hPa 401.375 MHz Type=RS41-SGP ser=U2230867 Radiosonde
KG7GDB-12U22308672022-12-07 11:23:4744.9217-122.969107245767Clb=4.3m/s t=-23.6C h=9.6% p=485.1hPa 401.401 MHz Type=RS41-SGP ser=U2230867 Radiosonde
W7BDB-13U22308672022-12-07 11:23:4544.9217-122.97106195762Clb=4.9m/s p=485.3hPa t=-23.5C h=10.3% 401.40MHz Type=RS41-SGP batt=2.9V Details on http://radiosondy.info
KJ7NUX-14U22308672022-12-07 11:23:4344.9217-122.9766155749Clb=4.6m/s p=486.3hPa t=-23.4C h=10.5% 401.40MHz Type=RS41-SGP Details on http://radiosondy.info
WA9ONY-10U22308672022-12-07 11:23:4044.9217-122.9727155740Clb=5.5m/s p=486.8hPa t=-23.4C h=10.6% 401.40MHz Type=RS41-SGP batt=2.9V Join https://groups.io/g/Balloons
k6gdp-12U22308672022-12-07 11:23:3844.9216-122.9779195716Clb=7.1m/s t=-23.3C h=9.8% p=488.4hPa 401.378 MHz Type=RS41-SGP ser=U2230867 Radiosonde
K6GDP-11U22308672022-12-07 11:23:3744.9216-122.9779195716Clb=7.1m/s t=-23.3C h=9.8% p=488.4hPa 401.400 MHz Type=RS41-SGP ser=U2230867 Radiosonde
WA9ONY-10U22308672022-12-07 11:23:3044.9217-122.97126155686Clb=6.5m/s p=490.4hPa t=-23.1C h=10.8% 401.40MHz Type=RS41-SGP Join https://groups.io/g/Balloons
W7BDB-13U22308672022-12-07 11:23:2944.9217-122.97143135680Clb=5.7m/s p=490.8hPa t=-23.1C h=10.8% 401.40MHz Type=RS41-SGP Details on http://radiosondy.info
KJ7NUX-14U22308672022-12-07 11:23:2644.9217-122.9785155661Clb=6.7m/s p=492.1hPa t=-22.9C h=10.8% 401.40MHz Type=RS41-SGP Details on http://radiosondy.info
WA9ONY-14U22308672022-12-07 11:23:2044.9216-122.971230135620Clb=6.3m/s p=494.8hPa t=-22.6C h=10.5% 401.40MHz Type=RS41-SGP Join https://groups.io/g/Balloons
KE7WWCU22308672022-12-07 11:23:1844.9217-122.97116595605Clb=8.3m/s t=-22.5C h=9.7% p=495.8hPa 401.375 MHz Type=RS41-SGP ser=U2230867 Radiosonde
KG7GDB-12U22308672022-12-07 11:23:1644.9217-122.971116175584Clb=5.7m/s t=-22.4C h=9.8% p=497.4hPa 401.401 MHz Type=RS41-SGP ser=U2230867 Radiosonde
W7BDB-13U22308672022-12-07 11:23:1444.9218-122.971115155578Clb=5.4m/s p=497.7hPa t=-22.3C h=10.5% 401.40MHz Type=RS41-SGP Details on http://radiosondy.info
KJ7NUX-14U22308672022-12-07 11:23:1044.9219-122.971155135562Clb=4.0m/s p=498.7hPa t=-22.2C h=11.1% 401.40MHz Type=RS41-SGP TxPastBurst=8h30m batt=2.7V Details on http://radiosondy.info
k6gdp-12U22308672022-12-07 11:23:0744.9219-122.97187225525Clb=5.2m/s t=-22.2C h=13.3% p=501.3hPa 401.378 MHz Type=RS41-SGP ser=U2230867 Radiosonde
K6GDP-11U22308672022-12-07 11:23:0644.9219-122.97187225525Clb=5.2m/s t=-22.2C h=13.3% p=501.3hPa 401.400 MHz Type=RS41-SGP ser=U2230867 Radiosonde
WA9ONY-10U22308672022-12-07 11:23:0044.9219-122.97118135503Clb=4.7m/s p=502.7hPa t=-22.1C h=17.2% 401.40MHz Type=RS41-SGP Join https://groups.io/g/Balloons
W7BDB-13U22308672022-12-07 11:22:5944.9218-122.971350155498Clb=4.4m/s p=502.9hPa t=-22.1C h=18.0% 401.40MHz Type=RS41-SGP batt=2.9V Details on http://radiosondy.info
KJ7NUX-14U22308672022-12-07 11:22:5444.9218-122.971149195468Clb=7.3m/s p=505.3hPa t=-22.2C h=25.5% 401.40MHz Type=RS41-SGP Details on http://radiosondy.info
WA9ONY-10U22308672022-12-07 11:22:5044.922-122.972137205448Clb=3.2m/s p=506.7hPa t=-22.1C h=24.6% 401.40MHz Type=RS41-SGP Join https://groups.io/g/Balloons
KE7WWCU22308672022-12-07 11:22:4744.9221-122.972131135434Clb=5.2m/s t=-22.0C h=21.0% p=507.6hPa 401.375 MHz Type=RS41-SGP ser=U2230867 Radiosonde
KG7GDB-12U22308672022-12-07 11:22:4444.9221-122.97294285416Clb=5.0m/s t=-21.8C h=23.7% p=508.9hPa 401.401 MHz Type=RS41-SGP ser=U2230867 Radiosonde
WA9ONY-10U22308672022-12-07 11:22:4044.9221-122.97267245395Clb=4.4m/s p=510.2hPa t=-21.6C h=27.0% 401.40MHz Type=RS41-SGP batt=2.9V Join https://groups.io/g/Balloons
KJ7NUX-14U22308672022-12-07 11:22:3944.9221-122.97259195385Clb=5.7m/s p=510.9hPa t=-21.5C h=26.7% 401.40MHz Type=RS41-SGP Details on http://radiosondy.info
k6gdp-12U22308672022-12-07 11:22:3644.9221-122.97395305367Clb=7.1m/s t=-21.4C h=25.0% p=512.1hPa 401.378 MHz Type=RS41-SGP ser=U2230867 Radiosonde
K6GDP-11U22308672022-12-07 11:22:3544.9221-122.97397335359Clb=8.9m/s t=-21.3C h=24.6% p=512.8hPa 401.400 MHz Type=RS41-SGP ser=U2230867 Radiosonde
WA9ONY-14U22308672022-12-07 11:22:3044.9221-122.97384175330Clb=5.4m/s p=514.7hPa t=-21.0C h=25.1% 401.40MHz Type=RS41-SGP Join https://groups.io/g/Balloons
W7BDB-13U22308672022-12-07 11:22:2844.9221-122.97399175319Clb=8.2m/s p=515.5hPa t=-20.9C h=23.5% 401.40MHz Type=RS41-SGP Details on http://radiosondy.info
KJ7NUX-14U22308672022-12-07 11:22:2244.9223-122.97391205286Clb=6.7m/s p=517.8hPa t=-20.6C h=17.0% 401.40MHz Type=RS41-SGP batt=2.9V Details on http://radiosondy.info
WA9ONY-10U22308672022-12-07 11:22:2044.9223-122.97494195275Clb=4.3m/s p=518.6hPa t=-20.6C h=14.9% 401.40MHz Type=RS41-SGP Join https://groups.io/g/Balloons
KE7WWCU22308672022-12-07 11:22:1644.9223-122.97415795256Clb=5.6m/s t=-20.6C h=16.3% p=520.1hPa 401.375 MHz Type=RS41-SGP ser=U2230867 Radiosonde
KG7GDB-12U22308672022-12-07 11:22:1344.9224-122.97469135240Clb=4.7m/s t=-20.4C h=16.2% p=521.1hPa 401.401 MHz Type=RS41-SGP ser=U2230867 Radiosonde
WA9ONY-14U22308672022-12-07 11:22:1044.9223-122.97481155224Clb=5.9m/s p=522.1hPa t=-20.3C h=17.5% 401.40MHz Type=RS41-SGP batt=2.9V Join https://groups.io/g/Balloons
KJ7NUX-14U22308672022-12-07 11:22:0644.9223-122.97446155201Clb=5.5m/s p=523.9hPa t=-20.2C h=14.4% 401.40MHz Type=RS41-SGP Details on http://radiosondy.info
k6gdp-12U22308672022-12-07 11:22:0444.9222-122.97435475186Clb=8.9m/s t=-20.2C h=14.1% p=524.9hPa 401.378 MHz Type=RS41-SGP ser=U2230867 Radiosonde
K6GDP-11U22308672022-12-07 11:22:0344.9222-122.97433495178Clb=8.0m/s t=-20.2C h=14.6% p=525.5hPa 401.400 MHz Type=RS41-SGP ser=U2230867 Radiosonde
WA9ONY-14U22308672022-12-07 11:22:0044.9222-122.974171175160Clb=4.9m/s p=526.8hPa t=-20.1C h=15.9% 401.40MHz Type=RS41-SGP Join https://groups.io/g/Balloons
W7BDB-12U22308672022-12-07 11:21:5944.9223-122.97595225142Clb=5.4m/s t=-20.0C h=15.9% p=528.0hPa 401.399 MHz Type=RS41-SGP ser=U2230867 Radiosonde
W7BDB-13U22308672022-12-07 11:21:5644.9223-122.97591195137Clb=4.7m/s p=528.4hPa t=-19.9C h=16.9% 401.40MHz Type=RS41-SGP Details on http://radiosondy.info
KJ7NUX-14U22308672022-12-07 11:21:5044.9223-122.975163175106Clb=6.0m/s p=530.6hPa t=-19.7C h=17.5% 401.40MHz Type=RS41-SGP Details on http://radiosondy.info
KG7GDB-12U22308672022-12-07 11:21:4344.9225-122.975106305062Clb=4.3m/s t=-19.6C h=19.0% p=533.9hPa 401.401 MHz Type=RS41-SGP ser=U2230867 Radiosonde
W7BDB-13U22308672022-12-07 11:21:4044.9225-122.97680175054Clb=4.5m/s p=534.3hPa t=-19.5C h=19.1% 401.40MHz Type=RS41-SGP Details on http://radiosondy.info
KJ7NUX-14U22308672022-12-07 11:21:3444.9224-122.976157195023Clb=6.4m/s p=536.5hPa t=-19.2C h=18.7% 401.40MHz Type=RS41-SGP batt=2.9V Details on http://radiosondy.info
k6gdp-12U22308672022-12-07 11:21:3344.9225-122.97614895016Clb=6.4m/s t=-19.2C h=17.7% p=537.0hPa 401.378 MHz Type=RS41-SGP ser=U2230867 Radiosonde
K6GDP-11U22308672022-12-07 11:21:3244.9225-122.976102175004Clb=5.5m/s t=-19.1C h=16.9% p=538.0hPa 401.400 MHz Type=RS41-SGP ser=U2230867 Radiosonde
WA9ONY-10U22308672022-12-07 11:21:3044.9225-122.976100204999Clb=4.4m/s p=538.3hPa t=-19.1C h=17.5% 401.40MHz Type=RS41-SGP Join https://groups.io/g/Balloons
W7BDB-13U22308672022-12-07 11:21:2544.9226-122.976125244966Clb=8.4m/s p=540.6hPa t=-18.8C h=15.0% 401.40MHz Type=RS41-SGP batt=2.9V Details on http://radiosondy.info
WA9ONY-10U22308672022-12-07 11:21:2044.9226-122.97776244936Clb=4.2m/s p=542.9hPa t=-18.7C h=14.9% 401.40MHz Type=RS41-SGP Join https://groups.io/g/Balloons
KJ7NUX-14U22308672022-12-07 11:21:1844.9226-122.977100244929Clb=4.2m/s p=543.4hPa t=-18.6C h=14.1% 401.40MHz Type=RS41-SGP Details on http://radiosondy.info
KG7GDB-12U22308672022-12-07 11:21:1144.9229-122.977155204896Clb=4.1m/s t=-18.5C h=12.0% p=545.8hPa 401.401 MHz Type=RS41-SGP ser=U2230867 Radiosonde
WA9ONY-14U22308672022-12-07 11:21:1044.9229-122.977145264892Clb=5.0m/s p=546.2hPa t=-18.4C h=12.7% 401.40MHz Type=RS41-SGP batt=2.9V Join https://groups.io/g/Balloons
W7BDB-13U22308672022-12-07 11:21:0944.923-122.977131224885Clb=6.8m/s p=546.5hPa t=-18.3C h=12.9% 401.40MHz Type=RS41-SGP Details on http://radiosondy.info
k6gdp-12U22308672022-12-07 11:21:0244.923-122.97858224844Clb=7.2m/s t=-18.1C h=12.3% p=549.6hPa 401.378 MHz Type=RS41-SGP ser=U2230867 Radiosonde
WA9ONY-10U22308672022-12-07 11:21:0144.9229-122.97861154830Clb=7.9m/s p=550.7hPa t=-18.0C h=12.7% 401.40MHz Type=RS41-SGP Join https://groups.io/g/Balloons
W7BDB-12U22308672022-12-07 11:21:0044.923-122.978161174795Clb=5.4m/s t=-17.8C h=12.2% p=553.2hPa 401.399 MHz Type=RS41-SGP ser=U2230867 Radiosonde
W7BDB-13U22308672022-12-07 11:20:5744.923-122.978156194784Clb=6.2m/s p=553.9hPa t=-17.6C h=12.7% 401.40MHz Type=RS41-SGP Details on http://radiosondy.info
WA9ONY-10U22308672022-12-07 11:20:5444.9231-122.97879194765Clb=5.9m/s p=555.5hPa t=-17.5C h=12.6% 401.40MHz Type=RS41-SGP Join https://groups.io/g/Balloons
KJ7NUX-14U22308672022-12-07 11:20:5044.923-122.97977174744Clb=5.4m/s p=557.0hPa t=-17.3C h=12.5% 401.40MHz Type=RS41-SGP TxPastBurst=8h30m batt=2.9V Details on http://radiosondy.info
KG7GDB-12U22308672022-12-07 11:20:4444.9231-122.979142244709Clb=5.9m/s t=-17.1C h=12.2% p=559.6hPa 401.401 MHz Type=RS41-SGP ser=U2230867 Radiosonde
WA9ONY-10U22308672022-12-07 11:20:4344.9231-122.979143174709Clb=5.8m/s p=559.6hPa t=-17.0C h=12.7% 401.40MHz Type=RS41-SGP batt=2.9V Join https://groups.io/g/Balloons
W7BDB-13U22308672022-12-07 11:20:4144.9232-122.979153224697Clb=7.1m/s p=560.4hPa t=-16.9C h=12.8% 401.40MHz Type=RS41-SGP batt=2.9V Details on http://radiosondy.info
KE7WWCU22308672022-12-07 11:20:4044.9233-122.97915664680Clb=4.3m/s t=-16.9C h=12.7% p=561.9hPa 401.375 MHz Type=RS41-SGP ser=U2230867 Radiosonde
K6GDP-11U22308672022-12-07 11:20:3344.9233-122.97972264654Clb=6.9m/s t=-16.7C h=13.5% p=563.6hPa 401.400 MHz Type=RS41-SGP ser=U2230867 Radiosonde
WA9ONY-10U22308672022-12-07 11:20:3244.9233-122.97973284654Clb=6.8m/s p=563.6hPa t=-16.7C h=14.1% 401.40MHz Type=RS41-SGP Join https://groups.io/g/Balloons
W7BDB-13U22308672022-12-07 11:20:2444.9233-122.98120194614Clb=4.2m/s p=566.8hPa t=-16.4C h=14.2% 401.40MHz Type=RS41-SGP Details on http://radiosondy.info
WA9ONY-10U22308672022-12-07 11:20:2144.9234-122.98147194601Clb=4.5m/s p=567.8hPa t=-16.3C h=14.2% 401.40MHz Type=RS41-SGP Join https://groups.io/g/Balloons
KJ7NUX-14U22308672022-12-07 11:20:1544.9234-122.98176194569Clb=7.8m/s p=570.3hPa t=-16.0C h=14.0% 401.40MHz Type=RS41-SGP Details on http://radiosondy.info
WA9ONY-10U22308672022-12-07 11:20:1044.9234-122.981136204543Clb=6.3m/s p=572.2hPa t=-15.7C h=13.8% 401.40MHz Type=RS41-SGP TxPastBurst=8h30m batt=2.9V Join https://groups.io/g/Balloons
W7BDB-13U22308672022-12-07 11:20:0844.9235-122.981133174532Clb=6.7m/s p=572.9hPa t=-15.6C h=13.9% 401.40MHz Type=RS41-SGP Details on http://radiosondy.info
KE7WWCU22308672022-12-07 11:20:0744.9235-122.98167194502Clb=7.5m/s t=-15.5C h=13.8% p=575.3hPa 401.375 MHz Type=RS41-SGP ser=U2230867 Radiosonde
k6gdp-12U22308672022-12-07 11:20:0144.9235-122.9817994488Clb=4.2m/s t=-15.4C h=13.8% p=576.4hPa 401.378 MHz Type=RS41-SGP ser=U2230867 Radiosonde
K6GDP-11U22308672022-12-07 11:19:5944.9235-122.9817694484Clb=4.4m/s t=-15.4C h=13.8% p=576.7hPa 401.400 MHz Type=RS41-SGP ser=U2230867 Radiosonde
KJ7NUX-14U22308672022-12-07 11:19:5844.9235-122.98171204479Clb=4.3m/s p=577.0hPa t=-15.3C h=14.3% 401.40MHz Type=RS41-SGP batt=2.9V Details on http://radiosondy.info
W7BDB-12U22308672022-12-07 11:19:5544.9235-122.98211974455Clb=4.6m/s t=-15.1C h=13.6% p=578.8hPa 401.399 MHz Type=RS41-SGP ser=U2230867 Radiosonde
W7BDB-13U22308672022-12-07 11:19:5244.9235-122.982120244451Clb=3.6m/s p=579.1hPa t=-15.0C h=13.9% 401.40MHz Type=RS41-SGP TxPastBurst=8h30m batt=2.9V Details on http://radiosondy.info
WA9ONY-14U22308672022-12-07 11:19:5044.9235-122.982130304442Clb=5.5m/s p=579.8hPa t=-15.0C h=13.6% 401.40MHz Type=RS41-SGP Join https://groups.io/g/Balloons
KJ7NUX-14U22308672022-12-07 11:19:4244.9236-122.983110194395Clb=5.3m/s p=583.5hPa t=-14.7C h=13.3% 401.40MHz Type=RS41-SGP Details on http://radiosondy.info
WA9ONY-10U22308672022-12-07 11:19:4044.9236-122.983105154385Clb=4.9m/s p=584.1hPa t=-14.6C h=13.6% 401.40MHz Type=RS41-SGP batt=2.9V Join https://groups.io/g/Balloons
KG7GDB-12U22308672022-12-07 11:19:3844.9236-122.98375114372Clb=7.1m/s t=-14.6C h=13.2% p=585.1hPa 401.401 MHz Type=RS41-SGP ser=U2230867 Radiosonde
W7BDB-13U22308672022-12-07 11:19:3744.9236-122.98381194366Clb=4.9m/s p=585.6hPa t=-14.5C h=13.9% 401.40MHz Type=RS41-SGP Details on http://radiosondy.info
KE7WWCU22308672022-12-07 11:19:3644.9236-122.9838694358Clb=2.9m/s t=-14.5C h=13.7% p=586.1hPa 401.375 MHz Type=RS41-SGP ser=U2230867 Radiosonde
WA9ONY-14U22308672022-12-07 11:19:3044.9236-122.98390204334Clb=7.2m/s p=588.1hPa t=-14.4C h=14.5% 401.40MHz Type=RS41-SGP Join https://groups.io/g/Balloons
k6gdp-12U22308672022-12-07 11:19:2944.9236-122.983101174326Clb=8.4m/s t=-14.4C h=14.2% p=588.7hPa 401.378 MHz Type=RS41-SGP ser=U2230867 Radiosonde
K6GDP-11U22308672022-12-07 11:19:2844.9236-122.983129194319Clb=6.4m/s t=-14.3C h=14.5% p=589.3hPa 401.400 MHz Type=RS41-SGP ser=U2230867 Radiosonde
KJ7NUX-14U22308672022-12-07 11:19:2644.9237-122.984123224307Clb=5.5m/s p=590.2hPa t=-14.3C h=15.5% 401.40MHz Type=RS41-SGP Details on http://radiosondy.info
W7BDB-13U22308672022-12-07 11:19:2144.9237-122.98467204279Clb=7.1m/s p=592.4hPa t=-14.2C h=17.1% 401.40MHz Type=RS41-SGP Details on http://radiosondy.info
WA9ONY-14U22308672022-12-07 11:19:2044.9237-122.98466264273Clb=4.6m/s p=592.8hPa t=-14.2C h=17.2% 401.40MHz Type=RS41-SGP Join https://groups.io/g/Balloons
KJ7NUX-14U22308672022-12-07 11:19:1044.9239-122.985163154222Clb=4.6m/s p=596.9hPa t=-13.9C h=17.5% 401.40MHz Type=RS41-SGP batt=2.9V Details on http://radiosondy.info
WA9ONY-10U22308672022-12-07 11:19:0944.9239-122.985155154216Clb=6.1m/s p=597.2hPa t=-13.8C h=17.7% 401.40MHz Type=RS41-SGP batt=2.9V Join https://groups.io/g/Balloons
KG7GDB-12U22308672022-12-07 11:19:0744.9239-122.98590134204Clb=5.8m/s t=-13.8C h=17.4% p=598.3hPa 401.401 MHz Type=RS41-SGP ser=U2230867 Radiosonde
W7BDB-13U22308672022-12-07 11:19:0544.9239-122.98575134193Clb=5.2m/s p=599.1hPa t=-13.7C h=18.6% 401.40MHz Type=RS41-SGP batt=2.9V Details on http://radiosondy.info
WA9ONY-14U22308672022-12-07 11:19:0144.9238-122.98575114171Clb=4.4m/s p=600.8hPa t=-13.8C h=22.7% 401.40MHz Type=RS41-SGP Join https://groups.io/g/Balloons
WA9ONY-10U22308672022-12-07 11:18:5944.9238-122.985111114167Clb=5.2m/s p=601.3hPa t=-13.8C h=24.0% 401.40MHz Type=RS41-SGP Join https://groups.io/g/Balloons
k6gdp-12U22308672022-12-07 11:18:5844.9238-122.985137114162Clb=4.8m/s t=-13.8C h=24.2% p=601.8hPa 401.378 MHz Type=RS41-SGP ser=U2230867 Radiosonde
K6GDP-11U22308672022-12-07 11:18:5744.9239-122.985150174158Clb=3.9m/s t=-13.8C h=24.9% p=602.1hPa 401.400 MHz Type=RS41-SGP ser=U2230867 Radiosonde
KJ7NUX-14U22308672022-12-07 11:18:5444.924-122.985175174136Clb=7.5m/s p=603.7hPa t=-13.6C h=26.0% 401.40MHz Type=RS41-SGP Details on http://radiosondy.info
W7BDB-12U22308672022-12-07 11:18:5344.9239-122.98553174114Clb=5.0m/s t=-13.6C h=26.3% p=605.5hPa 401.399 MHz Type=RS41-SGP ser=U2230867 Radiosonde
WA9ONY-14U22308672022-12-07 11:18:5044.9239-122.98554194114Clb=5.0m/s p=605.5hPa t=-13.6C h=27.0% 401.40MHz Type=RS41-SGP Join https://groups.io/g/Balloons
W7BDB-13U22308672022-12-07 11:18:4944.9239-122.98565194109Clb=3.9m/s p=605.8hPa t=-13.6C h=27.0% 401.40MHz Type=RS41-SGP Details on http://radiosondy.info
WA9ONY-14U22308672022-12-07 11:18:4044.924-122.98689224059Clb=6.4m/s p=609.7hPa t=-13.2C h=26.8% 401.40MHz Type=RS41-SGP TxPastBurst=8h30m batt=2.9V Join https://groups.io/g/Balloons
WA9ONY-10U22308672022-12-07 11:18:3944.924-122.98677224053Clb=6.2m/s p=610.3hPa t=-13.1C h=26.8% 401.40MHz Type=RS41-SGP TxPastBurst=8h30m batt=2.9V Join https://groups.io/g/Balloons
KJ7NUX-14U22308672022-12-07 11:18:3844.924-122.98678224048Clb=4.3m/s p=610.7hPa t=-13.1C h=27.0% 401.40MHz Type=RS41-SGP Details on http://radiosondy.info
KG7GDB-12U22308672022-12-07 11:18:3644.924-122.986112134036Clb=8.0m/s t=-13.0C h=26.1% p=611.5hPa 401.401 MHz Type=RS41-SGP ser=U2230867 Radiosonde
KE7WWCU22308672022-12-07 11:18:3444.9241-122.986127284017Clb=8.0m/s t=-12.8C h=25.7% p=613.0hPa 401.375 MHz Type=RS41-SGP ser=U2230867 Radiosonde
W7BDB-13U22308672022-12-07 11:18:3344.9241-122.986128204017Clb=7.9m/s p=613.0hPa t=-12.8C h=26.3% 401.40MHz Type=RS41-SGP Details on http://radiosondy.info
WA9ONY-14U22308672022-12-07 11:18:3044.9242-122.98787194000Clb=5.4m/s p=614.5hPa t=-12.7C h=26.4% 401.40MHz Type=RS41-SGP Join https://groups.io/g/Balloons
WA9ONY-10U22308672022-12-07 11:18:2944.9241-122.98770193994Clb=4.6m/s p=614.9hPa t=-12.6C h=26.3% 401.40MHz Type=RS41-SGP Join https://groups.io/g/Balloons
k6gdp-12U22308672022-12-07 11:18:2744.9241-122.98744243984Clb=6.3m/s t=-12.6C h=25.4% p=615.7hPa 401.378 MHz Type=RS41-SGP ser=U2230867 Radiosonde
K6GDP-11U22308672022-12-07 11:18:2644.924-122.98736203979Clb=5.0m/s t=-12.6C h=25.4% p=616.4hPa 401.400 MHz Type=RS41-SGP ser=U2230867 Radiosonde
KJ7NUX-14U22308672022-12-07 11:18:2244.9239-122.987111193960Clb=5.4m/s p=618.0hPa t=-12.4C h=26.5% 401.40MHz Type=RS41-SGP TxPastBurst=8h30m batt=2.9V Details on http://radiosondy.info
WA9ONY-14U22308672022-12-07 11:18:2044.924-122.987117193951Clb=5.3m/s p=618.6hPa t=-12.3C h=26.8% 401.40MHz Type=RS41-SGP Join https://groups.io/g/Balloons
WA9ONY-10U22308672022-12-07 11:18:1944.924-122.987100193945Clb=4.8m/s p=619.0hPa t=-12.3C h=26.9% 401.40MHz Type=RS41-SGP Join https://groups.io/g/Balloons
W7BDB-13U22308672022-12-07 11:18:1744.924-122.98769203934Clb=7.2m/s p=619.9hPa t=-12.2C h=26.7% 401.40MHz Type=RS41-SGP batt=2.9V Details on http://radiosondy.info
WA9ONY-14U22308672022-12-07 11:18:1044.9238-122.988107203895Clb=4.6m/s p=623.1hPa t=-11.9C h=26.2% 401.40MHz Type=RS41-SGP batt=2.9V Join https://groups.io/g/Balloons
WA9ONY-10U22308672022-12-07 11:18:0944.9238-122.988103203890Clb=6.5m/s p=623.5hPa t=-11.9C h=25.9% 401.40MHz Type=RS41-SGP batt=2.9V Join https://groups.io/g/Balloons
KJ7NUX-14U22308672022-12-07 11:18:0644.9238-122.98862173872Clb=4.8m/s p=625.1hPa t=-11.7C h=25.8% 401.40MHz Type=RS41-SGP Details on http://radiosondy.info
KG7GDB-12U22308672022-12-07 11:18:0544.9238-122.98857193866Clb=5.8m/s t=-11.7C h=25.0% p=625.4hPa 401.401 MHz Type=RS41-SGP ser=U2230867 Radiosonde
W7BDB-13U22308672022-12-07 11:18:0244.9238-122.988101173846Clb=5.6m/s p=627.2hPa t=-11.5C h=25.2% 401.40MHz Type=RS41-SGP Details on http://radiosondy.info
WA9ONY-14U22308672022-12-07 11:18:0044.9238-122.988108173834Clb=8.0m/s p=628.1hPa t=-11.4C h=25.1% 401.40MHz Type=RS41-SGP Join https://groups.io/g/Balloons
WA9ONY-10U22308672022-12-07 11:17:5944.9238-122.98891173828Clb=6.5m/s p=628.6hPa t=-11.4C h=25.1% 401.40MHz Type=RS41-SGP Join https://groups.io/g/Balloons
k6gdp-12U22308672022-12-07 11:17:5644.9237-122.98947153811Clb=4.4m/s t=-11.4C h=24.5% p=629.9hPa 401.378 MHz Type=RS41-SGP ser=U2230867 Radiosonde
K6GDP-11U22308672022-12-07 11:17:5544.9237-122.9894293806Clb=5.5m/s t=-11.3C h=24.4% p=630.3hPa 401.400 MHz Type=RS41-SGP ser=U2230867 Radiosonde
KJ7NUX-14U22308672022-12-07 11:17:5044.9237-122.98982153779Clb=7.3m/s p=632.6hPa t=-11.2C h=25.5% 401.40MHz Type=RS41-SGP Details on http://radiosondy.info
WA9ONY-10U22308672022-12-07 11:17:4944.9237-122.98966133771Clb=7.2m/s p=633.1hPa t=-11.2C h=25.4% 401.40MHz Type=RS41-SGP Join https://groups.io/g/Balloons
W7BDB-13U22308672022-12-07 11:17:4744.9236-122.98935133759Clb=4.8m/s p=634.1hPa t=-11.1C h=25.7% 401.40MHz Type=RS41-SGP Details on http://radiosondy.info
WA9ONY-14U22308672022-12-07 11:17:4044.9236-122.98984133729Clb=5.2m/s p=636.6hPa t=-11.0C h=27.3% 401.40MHz Type=RS41-SGP batt=2.9V Join https://groups.io/g/Balloons
WA9ONY-10U22308672022-12-07 11:17:3944.9236-122.98965133724Clb=5.9m/s p=636.9hPa t=-11.0C h=28.7% 401.40MHz Type=RS41-SGP batt=2.9V Join https://groups.io/g/Balloons
KG7GDB-12U22308672022-12-07 11:17:3444.9235-122.9899863698Clb=4.7m/s t=-11.0C h=32.6% p=639.3hPa 401.401 MHz Type=RS41-SGP ser=U2230867 Radiosonde
W7BDB-13U22308672022-12-07 11:17:3144.9235-122.9991223681Clb=6.7m/s p=640.7hPa t=-10.9C h=35.2% 401.40MHz Type=RS41-SGP TxPastBurst=8h30m batt=2.9V Details on http://radiosondy.info
WA9ONY-14U22308672022-12-07 11:17:3044.9235-122.9973223673Clb=7.3m/s p=641.3hPa t=-10.9C h=36.2% 401.40MHz Type=RS41-SGP Join https://groups.io/g/Balloons
KE7WWCU22308672022-12-07 11:17:2944.9234-122.9947283647Clb=6.6m/s t=-10.9C h=-1.0% p=-1.0hPa 401.375 MHz Type=RS41 ser=U2230867 Radiosonde
k6gdp-12U22308672022-12-07 11:17:2544.9233-122.9952283642Clb=4.2m/s t=-10.9C h=40.5% p=644.0hPa 401.378 MHz Type=RS41-SGP ser=U2230867 Radiosonde
K6GDP-11U22308672022-12-07 11:17:2444.9232-122.9954193633Clb=4.8m/s t=-10.9C h=40.6% p=644.7hPa 401.400 MHz Type=RS41-SGP ser=U2230867 Radiosonde
WA9ONY-14U22308672022-12-07 11:17:2044.9232-122.9976203617Clb=6.6m/s p=646.1hPa t=-10.7C h=41.1% 401.40MHz Type=RS41-SGP Join https://groups.io/g/Balloons
WA9ONY-10U22308672022-12-07 11:17:1944.9232-122.9972203611Clb=6.0m/s p=646.6hPa t=-10.7C h=41.4% 401.40MHz Type=RS41-SGP Join https://groups.io/g/Balloons
KJ7NUX-14U22308672022-12-07 11:17:1844.9232-122.9966193605Clb=6.3m/s p=647.2hPa t=-10.7C h=41.9% 401.40MHz Type=RS41-SGP Details on http://radiosondy.info
W7BDB-13U22308672022-12-07 11:17:1644.9231-122.99153193591Clb=5.9m/s p=648.3hPa t=-10.6C h=41.6% 401.40MHz Type=RS41-SGP Details on http://radiosondy.info
WA9ONY-14U22308672022-12-07 11:17:1044.923-122.99153173558Clb=5.3m/s p=651.1hPa t=-10.3C h=40.0% 401.40MHz Type=RS41-SGP TxPastBurst=8h30m batt=2.9V Join https://groups.io/g/Balloons
WA9ONY-10U22308672022-12-07 11:17:0944.923-122.99155153552Clb=6.6m/s p=651.5hPa t=-10.2C h=39.3% 401.40MHz Type=RS41-SGP TxPastBurst=8h30m batt=2.9V Join https://groups.io/g/Balloons
KG7GDB-12U22308672022-12-07 11:17:0344.9229-122.99148193519Clb=5.9m/s t=-10.0C h=35.8% p=654.3hPa 401.401 MHz Type=RS41-SGP ser=U2230867 Radiosonde
KJ7NUX-14U22308672022-12-07 11:17:0244.9228-122.99146173513Clb=6.6m/s p=655.0hPa t=-9.8C h=33.1% 401.40MHz Type=RS41-SGP Details on http://radiosondy.info
W7BDB-13U22308672022-12-07 11:17:0144.9228-122.99141173507Clb=6.3m/s p=655.5hPa t=-9.8C h=31.9% 401.40MHz Type=RS41-SGP Details on http://radiosondy.info
WA9ONY-14U22308672022-12-07 11:17:0044.9228-122.99175193501Clb=5.0m/s p=656.0hPa t=-9.7C h=29.5% 401.40MHz Type=RS41-SGP Join https://groups.io/g/Balloons
WA9ONY-10U22308672022-12-07 11:16:5944.9228-122.991100193496Clb=5.5m/s p=656.4hPa t=-9.7C h=27.6% 401.40MHz Type=RS41-SGP Join https://groups.io/g/Balloons
k6gdp-12U22308672022-12-07 11:16:5444.9227-122.99250243471Clb=5.1m/s t=-9.6C h=26.0% p=658.6hPa 401.378 MHz Type=RS41-SGP ser=U2230867 Radiosonde
K6GDP-11U22308672022-12-07 11:16:5344.9227-122.99247133461Clb=6.1m/s t=-9.6C h=28.4% p=659.5hPa 401.400 MHz Type=RS41-SGP ser=U2230867 Radiosonde
WA9ONY-14U22308672022-12-07 11:16:5144.9227-122.992116193449Clb=5.9m/s p=660.3hPa t=-9.5C h=32.1% 401.40MHz Type=RS41-SGP Join https://groups.io/g/Balloons
WA9ONY-10U22308672022-12-07 11:16:5044.9227-122.992121193443Clb=6.6m/s p=660.7hPa t=-9.5C h=30.9% 401.40MHz Type=RS41-SGP Join https://groups.io/g/Balloons
KJ7NUX-14U22308672022-12-07 11:16:4844.9227-122.992110153428Clb=4.3m/s p=662.1hPa t=-9.5C h=32.2% 401.40MHz Type=RS41-SGP batt=2.9V Details on http://radiosondy.info
W7BDB-13U22308672022-12-07 11:16:4744.9227-122.99299133423Clb=4.8m/s p=662.5hPa t=-9.4C h=31.5% 401.40MHz Type=RS41-SGP batt=2.9V Details on http://radiosondy.info
WA9ONY-14U22308672022-12-07 11:16:4244.9227-122.99361113398Clb=4.6m/s p=664.8hPa t=-9.2C h=20.1% 401.40MHz Type=RS41-SGP batt=2.7V Join https://groups.io/g/Balloons
WA9ONY-10U22308672022-12-07 11:16:4144.9227-122.99382113391Clb=7.6m/s p=665.2hPa t=-9.2C h=19.1% 401.40MHz Type=RS41-SGP batt=2.9V Join https://groups.io/g/Balloons
KG7GDB-12U22308672022-12-07 11:16:3444.9227-122.99326133354Clb=3.9m/s t=-9.1C h=16.0% p=668.5hPa 401.401 MHz Type=RS41-SGP ser=U2230867 Radiosonde
KJ7NUX-14U22308672022-12-07 11:16:3244.9227-122.99310113344Clb=7.5m/s p=669.4hPa t=-9.0C h=15.3% 401.40MHz Type=RS41-SGP Details on http://radiosondy.info
WA9ONY-14U22308672022-12-07 11:16:3144.9227-122.99310113343Clb=7.5m/s p=669.4hPa t=-9.0C h=15.3% 401.40MHz Type=RS41-SGP Join https://groups.io/g/Balloons
W7BDB-13U22308672022-12-07 11:16:3044.9227-122.993254113337Clb=5.9m/s p=670.0hPa t=-8.9C h=15.3% 401.40MHz Type=RS41-SGP Details on http://radiosondy.info
k6gdp-12U22308672022-12-07 11:16:2344.9227-122.99353153302Clb=5.9m/s t=-8.9C h=15.9% p=673.1hPa 401.378 MHz Type=RS41-SGP ser=U2230867 Radiosonde
K6GDP-11U22308672022-12-07 11:16:2244.9226-122.9932693292Clb=4.3m/s t=-8.9C h=17.1% p=673.9hPa 401.400 MHz Type=RS41-SGP ser=U2230867 Radiosonde
WA9ONY-14U22308672022-12-07 11:16:2144.9226-122.9933393286Clb=7.1m/s p=674.4hPa t=-8.8C h=17.4% 401.40MHz Type=RS41-SGP Join https://groups.io/g/Balloons
WA9ONY-10U22308672022-12-07 11:16:2044.9226-122.99391113280Clb=6.5m/s p=674.9hPa t=-8.8C h=17.1% 401.40MHz Type=RS41-SGP Join https://groups.io/g/Balloons
KJ7NUX-14U22308672022-12-07 11:16:1544.9226-122.99340133252Clb=6.1m/s p=677.3hPa t=-8.7C h=15.5% 401.40MHz Type=RS41-SGP Details on http://radiosondy.info
W7BDB-13U22308672022-12-07 11:16:1444.9225-122.99355153246Clb=4.8m/s p=677.8hPa t=-8.7C h=15.7% 401.40MHz Type=RS41-SGP Details on http://radiosondy.info
WA9ONY-14U22308672022-12-07 11:16:1044.9226-122.99399133228Clb=4.8m/s p=679.5hPa t=-8.5C h=15.8% 401.40MHz Type=RS41-SGP batt=2.9V Join https://groups.io/g/Balloons
WA9ONY-10U22308672022-12-07 11:16:0944.9226-122.99384153223Clb=5.1m/s p=679.9hPa t=-8.5C h=15.9% 401.40MHz Type=RS41-SGP batt=2.9V Join https://groups.io/g/Balloons
KG7GDB-12U22308672022-12-07 11:16:0144.9223-122.9947153182Clb=8.3m/s t=-8.4C h=16.3% p=683.4hPa 401.401 MHz Type=RS41-SGP ser=U2230867 Radiosonde
WA9ONY-14U22308672022-12-07 11:16:0044.9223-122.99430193175Clb=7.8m/s p=684.1hPa t=-8.3C h=16.6% 401.40MHz Type=RS41-SGP Join https://groups.io/g/Balloons
WA9ONY-10U22308672022-12-07 11:15:5944.9222-122.99444193168Clb=5.4m/s p=684.7hPa t=-8.2C h=16.6% 401.40MHz Type=RS41-SGP Join https://groups.io/g/Balloons
KJ7NUX-14U22308672022-12-07 11:15:5844.9222-122.99461203163Clb=4.2m/s p=685.0hPa t=-8.2C h=16.6% 401.40MHz Type=RS41-SGP TxPastBurst=8h30m batt=2.9V Details on http://radiosondy.info
k6gdp-12U22308672022-12-07 11:15:5244.9222-122.99448133129Clb=5.3m/s t=-7.9C h=16.1% p=688.3hPa 401.378 MHz Type=RS41-SGP ser=U2230867 Radiosonde
K6GDP-11U22308672022-12-07 11:15:5144.9221-122.99450193124Clb=5.4m/s t=-7.9C h=16.1% p=688.8hPa 401.400 MHz Type=RS41-SGP ser=U2230867 Radiosonde
WA9ONY-14U22308672022-12-07 11:15:5044.9221-122.99451173124Clb=5.4m/s p=688.7hPa t=-7.8C h=16.4% 401.40MHz Type=RS41-SGP Join https://groups.io/g/Balloons
WA9ONY-10U22308672022-12-07 11:15:4944.9221-122.99458173118Clb=5.6m/s p=689.0hPa t=-7.8C h=16.3% 401.40MHz Type=RS41-SGP Join https://groups.io/g/Balloons
W7BDB-12U22308672022-12-07 11:15:4744.9221-122.995126153092Clb=4.7m/s t=-7.6C h=15.9% p=691.4hPa 401.399 MHz Type=RS41-SGP ser=U2230867 Radiosonde
W7BDB-13U22308672022-12-07 11:15:4344.9221-122.995130173088Clb=4.7m/s p=691.8hPa t=-7.5C h=16.3% 401.40MHz Type=RS41-SGP Details on http://radiosondy.info
KJ7NUX-14U22308672022-12-07 11:15:4244.9221-122.995108193083Clb=4.0m/s p=692.3hPa t=-7.5C h=16.4% 401.40MHz Type=RS41-SGP Details on http://radiosondy.info
WA9ONY-14U22308672022-12-07 11:15:4044.9221-122.99517193074Clb=4.7m/s p=693.3hPa t=-7.5C h=16.5% 401.40MHz Type=RS41-SGP TxPastBurst=8h30m batt=2.9V Join https://groups.io/g/Balloons
WA9ONY-10U22308672022-12-07 11:15:3944.9221-122.99526203070Clb=5.5m/s p=693.5hPa t=-7.5C h=16.3% 401.40MHz Type=RS41-SGP TxPastBurst=8h30m batt=2.9V Join https://groups.io/g/Balloons
WA9ONY-14U22308672022-12-07 11:15:3044.9219-122.99540173027Clb=5.9m/s p=697.5hPa t=-7.2C h=16.1% 401.40MHz Type=RS41-SGP Join https://groups.io/g/Balloons
WA9ONY-10U22308672022-12-07 11:15:2944.9219-122.99522173021Clb=5.7m/s p=697.8hPa t=-7.2C h=15.9% 401.40MHz Type=RS41-SGP Join https://groups.io/g/Balloons
W7BDB-13U22308672022-12-07 11:15:2744.9218-122.99537153009Clb=5.8m/s p=699.0hPa t=-7.1C h=15.7% 401.40MHz Type=RS41-SGP Details on http://radiosondy.info
KJ7NUX-14U22308672022-12-07 11:15:2644.9217-122.99551133004Clb=4.6m/s p=699.4hPa t=-7.1C h=15.8% 401.40MHz Type=RS41-SGP Details on http://radiosondy.info
k6gdp-12U22308672022-12-07 11:15:2144.9216-122.99630772969Clb=7.3m/s t=-7.0C h=18.1% p=702.4hPa 401.378 MHz Type=RS41-SGP ser=U2230867 Radiosonde
WA9ONY-14U22308672022-12-07 11:15:2044.9216-122.996308132969Clb=7.2m/s p=702.4hPa t=-6.9C h=18.4% 401.40MHz Type=RS41-SGP Join https://groups.io/g/Balloons
WA9ONY-10U22308672022-12-07 11:15:1944.9216-122.996334132962Clb=7.4m/s p=703.2hPa t=-6.9C h=18.5% 401.40MHz Type=RS41-SGP Join https://groups.io/g/Balloons
W7BDB-13U22308672022-12-07 11:15:1144.9214-122.996352172922Clb=6.0m/s p=706.7hPa t=-6.6C h=19.2% 401.40MHz Type=RS41-SGP TxPastBurst=8h30m batt=2.9V Details on http://radiosondy.info
KJ7NUX-14U22308672022-12-07 11:15:1044.9214-122.996355192915Clb=8.1m/s p=707.3hPa t=-6.6C h=20.9% 401.40MHz Type=RS41-SGP batt=2.9V Details on http://radiosondy.info
WA9ONY-10U22308672022-12-07 11:15:0944.9214-122.99630172907Clb=8.0m/s p=708.1hPa t=-6.6C h=23.0% 401.40MHz Type=RS41-SGP batt=2.9V Join https://groups.io/g/Balloons
WA9ONY-14U22308672022-12-07 11:15:0044.9212-122.99689202856Clb=6.1m/s p=712.8hPa t=-6.4C h=35.4% 401.40MHz Type=RS41-SGP Join https://groups.io/g/Balloons
WA9ONY-10U22308672022-12-07 11:14:5944.9212-122.99686202850Clb=8.0m/s p=713.4hPa t=-6.4C h=35.7% 401.40MHz Type=RS41-SGP Join https://groups.io/g/Balloons
W7BDB-13U22308672022-12-07 11:14:5544.9211-122.99758192825Clb=4.9m/s p=715.6hPa t=-6.2C h=36.3% 401.40MHz Type=RS41-SGP Details on http://radiosondy.info
KJ7NUX-14U22308672022-12-07 11:14:5444.9211-122.99767192820Clb=5.0m/s p=715.9hPa t=-6.2C h=36.4% 401.40MHz Type=RS41-SGP Details on http://radiosondy.info
WA9ONY-14U22308672022-12-07 11:14:5044.921-122.99764192796Clb=4.9m/s p=718.2hPa t=-6.0C h=37.0% 401.40MHz Type=RS41-SGP Join https://groups.io/g/Balloons
WA9ONY-10U22308672022-12-07 11:14:4944.921-122.99756192792Clb=5.5m/s p=718.6hPa t=-6.0C h=37.2% 401.40MHz Type=RS41-SGP Join https://groups.io/g/Balloons
W7BDB-12U22308672022-12-07 11:14:4644.9208-122.99743192752Clb=5.7m/s t=-5.8C h=37.1% p=722.3hPa 401.399 MHz Type=RS41-SGP ser=U2230867 Radiosonde
WA9ONY-14U22308672022-12-07 11:14:4044.9208-122.99858202741Clb=5.8m/s p=723.3hPa t=-5.7C h=37.9% 401.40MHz Type=RS41-SGP batt=2.9V Join https://groups.io/g/Balloons
W7BDB-13U22308672022-12-07 11:14:3944.9207-122.99864202735Clb=5.3m/s p=723.8hPa t=-5.6C h=38.1% 401.40MHz Type=RS41-SGP Details on http://radiosondy.info
KJ7NUX-14U22308672022-12-07 11:14:3844.9207-122.99858202729Clb=5.9m/s p=724.3hPa t=-5.6C h=38.2% 401.40MHz Type=RS41-SGP Details on http://radiosondy.info
WA9ONY-14U22308672022-12-07 11:14:3044.9205-122.99857222686Clb=6.1m/s p=728.3hPa t=-5.3C h=39.5% 401.40MHz Type=RS41-SGP Join https://groups.io/g/Balloons
WA9ONY-10U22308672022-12-07 11:14:2944.9204-122.99848202680Clb=6.2m/s p=728.8hPa t=-5.3C h=39.5% 401.40MHz Type=RS41-SGP Join https://groups.io/g/Balloons
KG7GDB-12U22308672022-12-07 11:14:2844.9203-122.99833192669Clb=5.5m/s t=-5.2C h=39.1% p=730.0hPa 401.401 MHz Type=RS41-SGP ser=U2230867 Radiosonde
W7BDB-13U22308672022-12-07 11:14:2344.9202-122.99860222646Clb=5.8m/s p=732.0hPa t=-5.0C h=40.2% 401.40MHz Type=RS41-SGP batt=2.9V Details on http://radiosondy.info
KJ7NUX-14U22308672022-12-07 11:14:2244.9202-122.99953222640Clb=5.3m/s p=732.6hPa t=-5.0C h=40.5% 401.40MHz Type=RS41-SGP batt=2.9V Details on http://radiosondy.info
WA9ONY-14U22308672022-12-07 11:14:2044.9201-122.99938202630Clb=4.3m/s p=733.6hPa t=-4.9C h=40.9% 401.40MHz Type=RS41-SGP Join https://groups.io/g/Balloons
WA9ONY-10U22308672022-12-07 11:14:1944.9201-122.99938202625Clb=4.8m/s p=734.1hPa t=-4.9C h=40.8% 401.40MHz Type=RS41-SGP Join https://groups.io/g/Balloons
K6GDP-11U22308672022-12-07 11:14:1844.92-122.99964222614Clb=4.5m/s t=-4.8C h=40.1% p=735.1hPa 401.400 MHz Type=RS41-SGP ser=U2230867 Radiosonde
WA9ONY-14U22308672022-12-07 11:14:1044.9198-122.99972222571Clb=4.9m/s p=739.2hPa t=-4.4C h=38.1% 401.40MHz Type=RS41-SGP TxPastBurst=8h30m batt=2.9V Join https://groups.io/g/Balloons
WA9ONY-10U22308672022-12-07 11:14:0944.9198-122.99964222566Clb=6.3m/s p=739.6hPa t=-4.3C h=37.8% 401.40MHz Type=RS41-SGP TxPastBurst=8h30m batt=2.9V Join https://groups.io/g/Balloons
W7BDB-13U22308672022-12-07 11:14:0844.9198-122.99952192559Clb=5.0m/s p=740.1hPa t=-4.3C h=37.8% 401.40MHz Type=RS41-SGP Details on http://radiosondy.info
KJ7NUX-14U22308672022-12-07 11:14:0644.9197-12346172549Clb=4.4m/s p=741.2hPa t=-4.2C h=37.7% 401.40MHz Type=RS41-SGP Details on http://radiosondy.info
WA9ONY-14U22308672022-12-07 11:14:0044.9195-12333132516Clb=6.9m/s p=744.3hPa t=-3.9C h=36.9% 401.40MHz Type=RS41-SGP Join https://groups.io/g/Balloons
WA9ONY-10U22308672022-12-07 11:13:5944.9194-12323112509Clb=6.2m/s p=744.9hPa t=-3.9C h=36.8% 401.40MHz Type=RS41-SGP Join https://groups.io/g/Balloons
KG7GDB-12U22308672022-12-07 11:13:5744.9193-1231272492Clb=4.7m/s t=-3.8C h=36.0% p=746.6hPa 401.401 MHz Type=RS41-SGP ser=U2230867 Radiosonde
W7BDB-13U22308672022-12-07 11:13:5344.9193-12367172477Clb=4.2m/s p=748.1hPa t=-3.6C h=36.1% 401.40MHz Type=RS41-SGP Details on http://radiosondy.info
KJ7NUX-14U22308672022-12-07 11:13:5044.9193-12358192462Clb=5.4m/s p=749.4hPa t=-3.5C h=35.7% 401.40MHz Type=RS41-SGP Details on http://radiosondy.info
WA9ONY-10U22308672022-12-07 11:13:4944.9192-12347202457Clb=4.4m/s p=749.8hPa t=-3.5C h=35.8% 401.40MHz Type=RS41-SGP Join https://groups.io/g/Balloons
K6GDP-11U22308672022-12-07 11:13:4644.9191-12344152441Clb=6.6m/s t=-3.4C h=35.2% p=751.5hPa 401.400 MHz Type=RS41-SGP ser=U2230867 Radiosonde
W7BDB-12U22308672022-12-07 11:13:4244.919-123.00137172408Clb=4.1m/s t=-3.2C h=35.4% p=754.7hPa 401.399 MHz Type=RS41-SGP ser=U2230867 Radiosonde
WA9ONY-14U22308672022-12-07 11:13:4044.919-123.00138222408Clb=4.1m/s p=754.7hPa t=-3.2C h=35.8% 401.40MHz Type=RS41-SGP batt=2.9V Join https://groups.io/g/Balloons
WA9ONY-10U22308672022-12-07 11:13:3944.9189-123.00140222403Clb=5.4m/s p=755.0hPa t=-3.1C h=35.7% 401.40MHz Type=RS41-SGP batt=2.9V Join https://groups.io/g/Balloons
W7BDB-13U22308672022-12-07 11:13:3744.9189-123.00180172390Clb=6.2m/s p=756.2hPa t=-3.0C h=35.3% 401.40MHz Type=RS41-SGP batt=2.9V Details on http://radiosondy.info
KJ7NUX-14U22308672022-12-07 11:13:3444.9189-123.00163152373Clb=3.7m/s p=757.8hPa t=-2.9C h=35.2% 401.40MHz Type=RS41-SGP TxPastBurst=8h30m batt=2.9V Details on http://radiosondy.info
WA9ONY-14U22308672022-12-07 11:13:3044.9187-123.00133132354Clb=5.0m/s p=759.7hPa t=-2.8C h=35.0% 401.40MHz Type=RS41-SGP Join https://groups.io/g/Balloons
WA9ONY-10U22308672022-12-07 11:13:2944.9187-123.00130132349Clb=4.2m/s p=760.0hPa t=-2.7C h=35.0% 401.40MHz Type=RS41-SGP Join https://groups.io/g/Balloons
KG7GDB-12U22308672022-12-07 11:13:2644.9186-123.00274132330Clb=6.8m/s t=-2.6C h=34.4% p=762.2hPa 401.401 MHz Type=RS41-SGP ser=U2230867 Radiosonde
W7BDB-13U22308672022-12-07 11:13:2144.9185-123.00218152308Clb=5.6m/s p=764.3hPa t=-2.3C h=34.4% 401.40MHz Type=RS41-SGP Details on http://radiosondy.info
WA9ONY-14U22308672022-12-07 11:13:2044.9185-123.00233172302Clb=6.9m/s p=764.7hPa t=-2.3C h=34.3% 401.40MHz Type=RS41-SGP Join https://groups.io/g/Balloons
WA9ONY-10U22308672022-12-07 11:13:1944.9185-123.00299172296Clb=4.6m/s p=765.4hPa t=-2.3C h=34.6% 401.40MHz Type=RS41-SGP Join https://groups.io/g/Balloons
KJ7NUX-14U22308672022-12-07 11:13:1844.9185-123.00292172291Clb=6.6m/s p=765.7hPa t=-2.2C h=34.5% 401.40MHz Type=RS41-SGP Details on http://radiosondy.info
K6GDP-11U22308672022-12-07 11:13:1544.9185-123.00264242273Clb=6.0m/s t=-2.1C h=34.2% p=767.7hPa 401.400 MHz Type=RS41-SGP ser=U2230867 Radiosonde
WA9ONY-14U22308672022-12-07 11:13:1044.9183-123.00256132244Clb=4.6m/s p=770.5hPa t=-1.9C h=34.9% 401.40MHz Type=RS41-SGP batt=2.9V Join https://groups.io/g/Balloons
WA9ONY-10U22308672022-12-07 11:13:0944.9183-123.00224152238Clb=6.8m/s p=770.9hPa t=-1.8C h=34.7% 401.40MHz Type=RS41-SGP batt=2.9V Join https://groups.io/g/Balloons
W7BDB-13U22308672022-12-07 11:13:0644.9182-123.00232172220Clb=4.6m/s p=772.6hPa t=-1.7C h=34.7% 401.40MHz Type=RS41-SGP Details on http://radiosondy.info
KJ7NUX-14U22308672022-12-07 11:13:0244.9181-123.00278152202Clb=4.1m/s p=774.4hPa t=-1.6C h=35.0% 401.40MHz Type=RS41-SGP Details on http://radiosondy.info
WA9ONY-14U22308672022-12-07 11:13:0044.9181-123.00267172193Clb=4.9m/s p=775.2hPa t=-1.5C h=35.1% 401.40MHz Type=RS41-SGP Join https://groups.io/g/Balloons
WA9ONY-10U22308672022-12-07 11:12:5944.9181-123.00223172188Clb=6.0m/s p=775.7hPa t=-1.5C h=35.0% 401.40MHz Type=RS41-SGP Join https://groups.io/g/Balloons
KG7GDB-12U22308672022-12-07 11:12:5544.9179-123.00315222162Clb=4.2m/s t=-1.4C h=34.6% p=778.2hPa 401.401 MHz Type=RS41-SGP ser=U2230867 Radiosonde
W7BDB-13U22308672022-12-07 11:12:5044.9177-123.00363192142Clb=3.8m/s p=780.0hPa t=-1.2C h=36.2% 401.40MHz Type=RS41-SGP TxPastBurst=8h30m batt=2.9V Details on http://radiosondy.info
WA9ONY-10U22308672022-12-07 11:12:4944.9177-123.00389192138Clb=4.6m/s p=780.6hPa t=-1.2C h=35.9% 401.40MHz Type=RS41-SGP Join https://groups.io/g/Balloons
KJ7NUX-14U22308672022-12-07 11:12:4644.9177-123.00381172122Clb=4.0m/s p=782.1hPa t=-1.0C h=35.3% 401.40MHz Type=RS41-SGP batt=2.9V Details on http://radiosondy.info
K6GDP-11U22308672022-12-07 11:12:4444.9177-123.00368172110Clb=7.5m/s t=-1.0C h=34.5% p=783.4hPa 401.400 MHz Type=RS41-SGP ser=U2230867 Radiosonde
WA9ONY-14U22308672022-12-07 11:12:4044.9176-123.00326172085Clb=7.7m/s p=785.6hPa t=-0.8C h=34.6% 401.40MHz Type=RS41-SGP TxPastBurst=8h30m batt=2.9V Join https://groups.io/g/Balloons
WA9ONY-10U22308672022-12-07 11:12:3944.9175-123.00338172078Clb=5.8m/s p=786.4hPa t=-0.7C h=34.7% 401.40MHz Type=RS41-SGP TxPastBurst=8h30m batt=2.9V Join https://groups.io/g/Balloons
W7BDB-13U22308672022-12-07 11:12:3444.9174-123.00388172056Clb=4.8m/s p=788.7hPa t=-0.6C h=34.7% 401.40MHz Type=RS41-SGP Details on http://radiosondy.info
KJ7NUX-14U22308672022-12-07 11:12:3144.9174-123.00471192034Clb=3.3m/s p=790.9hPa t=-0.5C h=35.2% 401.40MHz Type=RS41-SGP Details on http://radiosondy.info
WA9ONY-14U22308672022-12-07 11:12:3044.9174-123.00471192034Clb=3.3m/s p=790.9hPa t=-0.5C h=35.2% 401.40MHz Type=RS41-SGP Join https://groups.io/g/Balloons
WA9ONY-10U22308672022-12-07 11:12:2944.9174-123.00465192029Clb=5.3m/s p=791.3hPa t=-0.4C h=35.2% 401.40MHz Type=RS41-SGP Join https://groups.io/g/Balloons
KG7GDB-12U22308672022-12-07 11:12:2444.9172-123.00459171994Clb=5.6m/s t=-0.4C h=35.4% p=794.9hPa 401.401 MHz Type=RS41-SGP ser=U2230867 Radiosonde
WA9ONY-14U22308672022-12-07 11:12:2044.9171-123.00435171978Clb=5.2m/s p=796.6hPa t=-0.3C h=35.3% 401.40MHz Type=RS41-SGP Join https://groups.io/g/Balloons
WA9ONY-10U22308672022-12-07 11:12:1944.9171-123.00432151972Clb=5.9m/s p=797.1hPa t=-0.3C h=35.0% 401.40MHz Type=RS41-SGP Join https://groups.io/g/Balloons
W7BDB-13U22308672022-12-07 11:12:1844.9171-123.00441191967Clb=5.3m/s p=797.6hPa t=-0.3C h=34.1% 401.40MHz Type=RS41-SGP Details on http://radiosondy.info
KJ7NUX-14U22308672022-12-07 11:12:1444.9169-123.00422191944Clb=4.5m/s p=799.9hPa t=-0.3C h=36.3% 401.40MHz Type=RS41-SGP Details on http://radiosondy.info
K6GDP-11U22308672022-12-07 11:12:1344.9169-123.00419171939Clb=5.6m/s t=-0.4C h=36.9% p=800.4hPa 401.400 MHz Type=RS41-SGP ser=U2230867 Radiosonde
WA9ONY-14U22308672022-12-07 11:12:1044.9168-123.00449191922Clb=7.3m/s p=802.2hPa t=-0.4C h=38.5% 401.40MHz Type=RS41-SGP batt=2.9V Join https://groups.io/g/Balloons
WA9ONY-10U22308672022-12-07 11:12:0944.9168-123.00454191915Clb=6.0m/s p=802.9hPa t=-0.3C h=38.6% 401.40MHz Type=RS41-SGP batt=2.9V Join https://groups.io/g/Balloons
W7BDB-13U22308672022-12-07 11:12:0344.9165-123.00525221882Clb=4.3m/s p=806.1hPa t=-0.5C h=40.8% 401.40MHz Type=RS41-SGP batt=2.9V Details on http://radiosondy.info
WA9ONY-14U22308672022-12-07 11:12:0044.9164-123.00535241866Clb=4.7m/s p=807.8hPa t=-0.6C h=43.2% 401.40MHz Type=RS41-SGP Join https://groups.io/g/Balloons
WA9ONY-10U22308672022-12-07 11:11:5944.9164-123.00529241861Clb=5.7m/s p=808.2hPa t=-0.6C h=42.5% 401.40MHz Type=RS41-SGP Join https://groups.io/g/Balloons
KJ7NUX-14U22308672022-12-07 11:11:5844.9163-123.00521201856Clb=4.2m/s p=808.7hPa t=-0.5C h=42.0% 401.40MHz Type=RS41-SGP batt=2.9V Details on http://radiosondy.info
KG7GDB-12U22308672022-12-07 11:11:5344.916-123.00539281821Clb=3.6m/s t=-0.5C h=41.6% p=812.3hPa 401.401 MHz Type=RS41-SGP ser=U2230867 Radiosonde
WA9ONY-14U22308672022-12-07 11:11:5044.9159-123.00537191810Clb=7.5m/s p=813.3hPa t=-0.3C h=40.9% 401.40MHz Type=RS41-SGP Join https://groups.io/g/Balloons
WA9ONY-10U22308672022-12-07 11:11:4944.9159-123.00527191804Clb=5.9m/s p=814.1hPa t=-0.3C h=41.6% 401.40MHz Type=RS41-SGP Join https://groups.io/g/Balloons
W7BDB-13U22308672022-12-07 11:11:4744.9158-123.00534201792Clb=5.9m/s p=815.2hPa t=-0.3C h=42.2% 401.40MHz Type=RS41-SGP Details on http://radiosondy.info
K6GDP-11U22308672022-12-07 11:11:4244.9157-123.00640191766Clb=5.7m/s t=-0.4C h=44.2% p=817.9hPa 401.400 MHz Type=RS41-SGP ser=U2230867 Radiosonde
WA9ONY-14U22308672022-12-07 11:11:4044.9156-123.00620241752Clb=7.2m/s p=819.3hPa t=-0.4C h=43.8% 401.40MHz Type=RS41-SGP batt=2.9V Join https://groups.io/g/Balloons
WA9ONY-10U22308672022-12-07 11:11:3944.9156-123.00615241746Clb=4.7m/s p=819.9hPa t=-0.4C h=42.4% 401.40MHz Type=RS41-SGP batt=2.9V Join https://groups.io/g/Balloons
W7BDB-12U22308672022-12-07 11:11:3844.9154-123.0068201730Clb=3.7m/s t=-0.5C h=38.9% p=821.8hPa 401.399 MHz Type=RS41-SGP ser=U2230867 Radiosonde
W7BDB-13U22308672022-12-07 11:11:3144.9152-123.00650281701Clb=5.5m/s p=824.6hPa t=-0.6C h=39.1% 401.40MHz Type=RS41-SGP Details on http://radiosondy.info
WA9ONY-14U22308672022-12-07 11:11:3044.9151-123.00644261697Clb=4.7m/s p=825.1hPa t=-0.6C h=38.0% 401.40MHz Type=RS41-SGP Join https://groups.io/g/Balloons
WA9ONY-10U22308672022-12-07 11:11:2944.9151-123.00643261691Clb=5.5m/s p=825.5hPa t=-0.7C h=37.3% 401.40MHz Type=RS41-SGP Join https://groups.io/g/Balloons
KJ7NUX-14U22308672022-12-07 11:11:2644.915-123.00656301677Clb=7.8m/s p=827.1hPa t=-0.9C h=39.6% 401.40MHz Type=RS41-SGP Details on http://radiosondy.info
KG7GDB-12U22308672022-12-07 11:11:2244.9147-123.00744301646Clb=5.2m/s t=-1.4C h=51.2% p=830.4hPa 401.401 MHz Type=RS41-SGP ser=U2230867 Radiosonde
WA9ONY-14U22308672022-12-07 11:11:2044.9147-123.00751331640Clb=6.5m/s p=831.0hPa t=-1.4C h=51.2% 401.40MHz Type=RS41-SGP Join https://groups.io/g/Balloons
WA9ONY-10U22308672022-12-07 11:11:1944.9147-123.00757331634Clb=4.4m/s p=831.6hPa t=-1.3C h=50.8% 401.40MHz Type=RS41-SGP Join https://groups.io/g/Balloons
W7BDB-13U22308672022-12-07 11:11:1544.9144-123.00735311611Clb=4.8m/s p=834.0hPa t=-1.4C h=54.4% 401.40MHz Type=RS41-SGP batt=2.9V Details on http://radiosondy.info
K6GDP-11U22308672022-12-07 11:11:1144.9142-123.00751241590Clb=5.2m/s t=-1.6C h=65.5% p=836.2hPa 401.400 MHz Type=RS41-SGP ser=U2230867 Radiosonde
KJ7NUX-14U22308672022-12-07 11:11:1044.9141-123.00858281586Clb=5.4m/s p=836.8hPa t=-1.6C h=64.1% 401.40MHz Type=RS41-SGP TxPastBurst=8h30m batt=2.9V Details on http://radiosondy.info
WA9ONY-10U22308672022-12-07 11:11:0944.9141-123.00856301580Clb=5.7m/s p=837.2hPa t=-1.7C h=60.9% 401.40MHz Type=RS41-SGP TxPastBurst=8h30m batt=2.9V Join https://groups.io/g/Balloons
WA9ONY-14U22308672022-12-07 11:11:0044.9137-123.00859261539Clb=4.3m/s p=841.6hPa t=-2.2C h=79.4% 401.40MHz Type=RS41-SGP Join https://groups.io/g/Balloons
W7BDB-13U22308672022-12-07 11:10:5944.9137-123.00839281534Clb=4.7m/s p=842.0hPa t=-2.3C h=81.6% 401.40MHz Type=RS41-SGP Details on http://radiosondy.info
KJ7NUX-14U22308672022-12-07 11:10:5444.9134-123.00921301512Clb=4.0m/s p=844.3hPa t=-2.2C h=80.6% 401.40MHz Type=RS41-SGP Details on http://radiosondy.info
KG7GDB-12U22308672022-12-07 11:10:5144.9131-123.00943301495Clb=5.4m/s t=-2.2C h=81.0% p=846.2hPa 401.401 MHz Type=RS41-SGP ser=U2230867 Radiosonde
WA9ONY-14U22308672022-12-07 11:10:5044.9131-123.00944301495Clb=5.4m/s p=846.2hPa t=-2.2C h=81.8% 401.40MHz Type=RS41-SGP Join https://groups.io/g/Balloons
WA9ONY-10U22308672022-12-07 11:10:4944.9131-123.00940301490Clb=4.5m/s p=846.8hPa t=-2.2C h=81.4% 401.40MHz Type=RS41-SGP Join https://groups.io/g/Balloons
W7BDB-13U22308672022-12-07 11:10:4344.9127-123.00946221458Clb=4.0m/s p=850.1hPa t=-2.6C h=94.4% 401.40MHz Type=RS41-SGP Details on http://radiosondy.info
K6GDP-11U22308672022-12-07 11:10:4044.9126-123.0162281444Clb=4.9m/s t=-2.7C h=97.7% p=851.5hPa 401.400 MHz Type=RS41-SGP ser=U2230867 Radiosonde
WA9ONY-10U22308672022-12-07 11:10:3944.9126-123.0170201439Clb=4.3m/s p=852.1hPa t=-2.7C 401.40MHz Type=RS41-SGP batt=2.9V Join https://groups.io/g/Balloons
KJ7NUX-14U22308672022-12-07 11:10:3644.9125-123.0140191426Clb=5.0m/s p=853.7hPa t=-2.7C 401.40MHz Type=RS41-SGP Details on http://radiosondy.info
WA9ONY-14U22308672022-12-07 11:10:3044.9123-123.0163191393Clb=6.7m/s p=857.1hPa t=-2.7C 401.40MHz Type=RS41-SGP Join https://groups.io/g/Balloons
WA9ONY-10U22308672022-12-07 11:10:2944.9122-123.0158191386Clb=7.3m/s p=857.7hPa t=-2.6C 401.40MHz Type=RS41-SGP Join https://groups.io/g/Balloons
W7BDB-13U22308672022-12-07 11:10:2844.9122-123.01360171381Clb=5.0m/s p=858.6hPa t=-2.6C 401.40MHz Type=RS41-SGP TxPastBurst=8h30m batt=2.9V Details on http://radiosondy.info
KJ7NUX-14U22308672022-12-07 11:10:2044.9119-123.0163131337Clb=7.2m/s p=862.9hPa t=-2.3C 401.40MHz Type=RS41-SGP batt=2.9V Details on http://radiosondy.info
KG7GDB-12U22308672022-12-07 11:10:1944.9119-123.0167131330Clb=5.3m/s t=-2.3C h=99.4% p=864.0hPa 401.401 MHz Type=RS41-SGP ser=U2230867 Radiosonde
W7BDB-13U22308672022-12-07 11:10:1344.9117-123.01132151300Clb=3.7m/s p=867.2hPa t=-2.1C h=97.3% 401.40MHz Type=RS41-SGP Details on http://radiosondy.info
WA9ONY-14U22308672022-12-07 11:10:1044.9116-123.01111131284Clb=4.5m/s p=869.1hPa t=-1.9C h=96.8% 401.40MHz Type=RS41-SGP batt=2.9V Join https://groups.io/g/Balloons
K6GDP-11U22308672022-12-07 11:10:0944.9116-123.01135071278Clb=6.0m/s t=-1.9C h=95.3% p=869.6hPa 401.400 MHz Type=RS41-SGP ser=U2230867 Radiosonde
KJ7NUX-14U22308672022-12-07 11:10:0444.9114-123.011357131251Clb=6.8m/s p=872.5hPa t=-1.6C h=95.2% 401.40MHz Type=RS41-SGP Details on http://radiosondy.info
WA9ONY-14U22308672022-12-07 11:10:0044.9113-123.01318131227Clb=7.3m/s p=875.2hPa t=-1.4C h=94.2% 401.40MHz Type=RS41-SGP Join https://groups.io/g/Balloons
WA9ONY-10U22308672022-12-07 11:09:5944.9113-123.01331111220Clb=5.7m/s p=875.8hPa t=-1.4C h=94.1% 401.40MHz Type=RS41-SGP Join https://groups.io/g/Balloons
W7BDB-13U22308672022-12-07 11:09:5744.9112-123.0112111210Clb=4.6m/s p=876.9hPa t=-1.3C h=94.1% 401.40MHz Type=RS41-SGP Details on http://radiosondy.info
WA9ONY-14U22308672022-12-07 11:09:5044.9111-123.01133991178Clb=5.0m/s p=880.6hPa t=-1.0C h=93.0% 401.40MHz Type=RS41-SGP Join https://groups.io/g/Balloons
WA9ONY-10U22308672022-12-07 11:09:4944.9111-123.0112191172Clb=6.6m/s p=881.3hPa t=-0.9C h=92.5% 401.40MHz Type=RS41-SGP Join https://groups.io/g/Balloons
KG7GDB-12U22308672022-12-07 11:09:4844.9111-123.01132131166Clb=4.3m/s t=-0.9C h=91.5% p=882.0hPa 401.401 MHz Type=RS41-SGP ser=U2230867 Radiosonde
W7BDB-13U22308672022-12-07 11:09:4144.911-123.01134471130Clb=4.8m/s p=886.2hPa 401.40MHz Type=RS41-SGP batt=2.9V Details on http://radiosondy.info
WA9ONY-14U22308672022-12-07 11:09:4044.911-123.011271124Clb=4.8m/s p=886.7hPa 401.40MHz Type=RS41-SGP TxPastBurst=8h30m batt=2.9V Join https://groups.io/g/Balloons
WA9ONY-10U22308672022-12-07 11:09:3944.9109-123.0112171120Clb=4.7m/s p=887.2hPa 401.40MHz Type=RS41-SGP TxPastBurst=8h30m batt=2.9V Join https://groups.io/g/Balloons
K6GDP-11U22308672022-12-07 11:09:3844.9109-123.0115291115Clb=5.1m/s t=-0.5C h=-1.0% p=887.8hPa 401.400 MHz Type=RS41-SGP ser=U2230867 Radiosonde
KJ7NUX-14U22308672022-12-07 11:09:3244.911-123.0114071083Clb=6.1m/s p=891.3hPa t=-0.2C h=88.1% 401.40MHz Type=RS41-SGP batt=2.9V Details on http://radiosondy.info
WA9ONY-14U22308672022-12-07 11:09:3044.9109-123.0115471072Clb=4.7m/s p=892.3hPa calibration 98% 401.40MHz Type=RS41-SGP Join https://groups.io/g/Balloons
WA9ONY-10U22308672022-12-07 11:09:2944.9109-123.0116571068Clb=4.0m/s p=893.0hPa calibration 98% 401.40MHz Type=RS41-SGP Join https://groups.io/g/Balloons
W7BDB-13U22308672022-12-07 11:09:2644.9109-123.01122471052Clb=4.3m/s calibration 84% 401.40MHz Type=RS41-SGP Details on http://radiosondy.info
WA9ONY-14U22308672022-12-07 11:09:2044.9109-123.01112891018Clb=6.2m/s p=898.5hPa calibration 98% 401.40MHz Type=RS41-SGP Join https://groups.io/g/Balloons
WA9ONY-10U22308672022-12-07 11:09:1944.9109-123.01117491012Clb=5.1m/s p=899.2hPa calibration 98% 401.40MHz Type=RS41-SGP Join https://groups.io/g/Balloons
KG7GDB-12U22308672022-12-07 11:09:1744.9109-123.01123091003Clb=4.8m/s t=0.4C h=82.9% p=900.2hPa 401.401 MHz Type=RS41-SGP ser=U2230867 Radiosonde
KJ7NUX-14U22308672022-12-07 11:09:1644.9109-123.0112479999Clb=5.1m/s t=0.4C h=83.5% calibration 98% 401.40MHz Type=RS41-SGP Details on http://radiosondy.info
W7BDB-13U22308672022-12-07 11:09:1144.9109-123.0113811973Clb=5.6m/s calibration 78% 401.40MHz Type=RS41-SGP Details on http://radiosondy.info
WA9ONY-14U22308672022-12-07 11:09:1044.9109-123.011659967Clb=6.9m/s p=904.1hPa calibration 98% 401.40MHz Type=RS41-SGP batt=2.9V Join https://groups.io/g/Balloons
WA9ONY-10U22308672022-12-07 11:09:0944.9109-123.0111149961Clb=5.5m/s p=904.9hPa calibration 98% 401.40MHz Type=RS41-SGP batt=2.9V Join https://groups.io/g/Balloons
K6GDP-11U22308672022-12-07 11:09:0744.9109-123.0111789951Clb=7.0m/s t=-273.0C h=-1.0% p=905.9hPa 401.400 MHz Type=RS41-SGP ser=U2230867 Radiosonde
KJ7NUX-14U22308672022-12-07 11:09:0144.9109-123.011399916Clb=3.8m/s t=1.1C h=80.4% calibration 98% 401.40MHz Type=RS41-SGP Details on http://radiosondy.info
WA9ONY-14U22308672022-12-07 11:09:0044.9109-123.0113911916Clb=3.8m/s p=909.8hPa calibration 98% 401.40MHz Type=RS41-SGP Join https://groups.io/g/Balloons
WA9ONY-10U22308672022-12-07 11:08:5944.9109-123.0117411912Clb=3.8m/s p=910.2hPa calibration 98% 401.40MHz Type=RS41-SGP Join https://groups.io/g/Balloons
W7BDB-13U22308672022-12-07 11:08:5644.9109-123.0111297898Clb=5.4m/s calibration 74% 401.40MHz Type=RS41-SGP batt=2.9V Details on http://radiosondy.info
WA9ONY-14U22308672022-12-07 11:08:5044.911-123.0113156871Clb=3.9m/s p=915.2hPa calibration 88% 401.40MHz Type=RS41-SGP Join https://groups.io/g/Balloons
WA9ONY-10U22308672022-12-07 11:08:4944.911-123.0113456867Clb=4.2m/s p=915.5hPa calibration 84% 401.40MHz Type=RS41-SGP Join https://groups.io/g/Balloons
KG7GDB-12U22308672022-12-07 11:08:4644.9109-123.0112064853Clb=6.0m/s t=1.6C h=76.8% p=917.0hPa 401.401 MHz Type=RS41-SGP ser=U2230867 Radiosonde
KJ7NUX-14U22308672022-12-07 11:08:4444.911-123.0112706843Clb=6.6m/s t=1.6C h=77.0% calibration 98% 401.40MHz Type=RS41-SGP TxPastBurst=8h30m batt=2.9V Details on http://radiosondy.info
W7BDB-13U22308672022-12-07 11:08:4144.9109-123.011757828Clb=5.5m/s calibration 54% Type=RS41-SGP Details on http://radiosondy.info
WA9ONY-10U22308672022-12-07 11:08:3944.911-123.0111416818Clb=4.3m/s p=921.1hPa calibration 70% Type=RS41-SGP batt=2.9V Join https://groups.io/g/Balloons
WA9ONY-10U22308672022-12-07 11:08:2944.911-123.0112829765Clb=4.5m/s calibration 54% Type=RS41-SGP Join https://groups.io/g/Balloons
KJ7NUX-14U22308672022-12-07 11:08:2844.911-123.0113137760Clb=6.6m/s t=2.3C h=73.5% calibration 92% 401.40MHz Type=RS41-SGP Details on http://radiosondy.info
W7BDB-13U22308672022-12-07 11:08:2644.911-123.011919750Clb=3.3m/s calibration 37% Type=RS41-SGP Details on http://radiosondy.info
WA9ONY-10U22308672022-12-07 11:08:1944.9111-123.011276714Clb=5.4m/s calibration 35% Type=RS41 Join https://groups.io/g/Balloons
KG7GDB-12U22308672022-12-07 11:08:1544.9112-123.0112159692Clb=5.2m/s t=2.8C h=74.1% p=935.4hPa 401.401 MHz Type=RS41-SGP ser=U2230867 Radiosonde
KJ7NUX-14U22308672022-12-07 11:08:1244.9112-123.01133113677Clb=6.1m/s t=2.9C h=74.3% calibration 92% 401.40MHz Type=RS41-SGP Details on http://radiosondy.info
W7BDB-13U22308672022-12-07 11:08:1144.9112-123.0113279671Clb=5.7m/s calibration 7% Type=RS41 batt=2.9V Details on http://radiosondy.info
WA9ONY-14U22308672022-12-07 11:08:0944.9112-123.01121313661Clb=6.5m/s calibration 11% Type=RS41 batt=2.9V Join https://groups.io/g/Balloons
KJ7NUX-14U22308672022-12-07 11:07:5644.9114-123.0130011598Clb=5.4m/s t=3.2C h=74.3% calibration 92% 401.40MHz Type=RS41-SGP batt=2.9V Details on http://radiosondy.info
KG7GDB-12U22308672022-12-07 11:07:4444.9114-123.011964538Clb=3.8m/s t=-273.0C h=-1.0% p=953.3hPa 401.401 MHz Type=RS41-SGP ser=U2230867 Radiosonde
KJ7NUX-14U22308672022-12-07 11:07:4044.9114-123.0134419520Clb=4.8m/s t=2.7C h=78.2% calibration 82% Type=RS41-SGP Details on http://radiosondy.info
KJ7NUX-14U22308672022-12-07 11:07:2444.9108-123.0134617437Clb=5.8m/s t=1.8C calibration 66% Type=RS41 Details on http://radiosondy.info
KJ7NUX-14U22308672022-12-07 11:07:0844.9105-123.011819343Clb=5.9m/s calibration 50% Type=RS41 batt=2.9V Details on http://radiosondy.info